[[{"header":{"parameterUnit":"m.s-1","parameterCategory":1,"la1":31.0,"la2":29.5877,"lo1":-88.7671,"lo2":-86.6584,"dy":0.0162,"dx":0.0185,"nx":115,"ny":88,"refTime":"2023-08-06T00:00:00:Z","depth":0,"parameterNumber":2,"parameterNumberName":"U-component_of_WINDS"},"data":[0.0,0.0,0.0,0.0,0.0,0.0,0.0,0.0,0.0,0.0,0.0,0.0,0.0,0.0,0.0,0.0,0.0,0.0,0.0,0.0,0.0,0.0,0.0,0.0,0.0,0.0,0.0,0.0,0.0,0.0,0.0,0.0,0.0,0.0,0.0,0.0,0.0,0.0,0.0,0.0,0.0,0.0,0.0,0.0,0.0,0.0,0.0,0.0,0.0,0.0,0.0,0.0,0.0,0.0,0.0,0.0,0.0,0.0,0.0,0.0,0.0,0.0,0.0,0.0,0.0,0.0,0.0,0.0,0.0,0.0,0.0,0.0,0.0,0.0,0.0,0.0,0.0,0.0,0.0,0.0,0.0,0.0,0.0,0.0,0.0,0.0,0.0,0.0,0.0,0.0,0.0,0.0,0.0,0.0,0.0,0.0,0.0,0.0,0.0,0.0,0.0,0.0,0.0,0.0,0.0,0.0,0.0,0.0,0.0,0.0,0.0,0.0,0.0,0.0,0.0,0.0,0.0,0.0,0.0,0.0,0.0,0.0,0.0,0.0,0.0,0.0,0.0,0.0,0.0,0.0,0.0,0.0,0.0,0.0,0.0,0.0,0.0,0.0,0.0,0.0,0.0,0.0,0.0,0.0,0.0,0.0,0.0,0.0,0.0,0.0,0.0,0.0,0.0,0.0,0.0,0.0,0.0,0.0,0.0,0.0,0.0,0.0,0.0,0.0,0.0,0.0,0.0,0.0,0.0,0.0,0.0,0.0,0.0,0.0,0.0,0.0,0.0,0.0,0.0,0.0,0.0,0.0,0.0,0.0,0.0,0.0,0.0,0.0,0.0,0.0,0.0,0.0,0.0,0.0,0.0,0.0,0.0,0.0,0.0,0.0,0.0,0.0,0.0,0.0,0.0,0.0,0.0,0.0,0.0,0.0,0.0,0.0,0.0,0.0,0.0,0.0,0.0,0.0,0.0,0.0,0.0,0.0,0.0,0.0,0.0,0.0,0.0,0.0,0.0,0.0,0.0,0.0,0.0,0.0,0.0,0.0,0.0,0.0,0.0,0.0,0.0,0.0,0.0,0.0,0.0,0.0,0.0,0.0,0.0,0.0,0.0,0.0,0.0,0.0,0.0,0.0,0.0,0.0,0.0,0.0,0.0,0.0,0.0,0.0,0.0,0.0,0.0,0.0,0.0,0.0,0.0,0.0,0.0,0.0,0.0,0.0,0.0,0.0,0.0,0.0,0.0,0.0,0.0,0.0,0.0,0.0,0.0,0.0,0.0,0.0,0.0,0.0,0.0,0.0,0.0,0.0,0.0,0.0,0.0,0.0,0.0,0.0,0.0,0.0,0.0,0.0,0.0,0.0,0.0,0.0,0.0,0.0,0.0,0.0,0.0,0.0,0.0,0.0,0.0,0.0,0.0,0.0,0.0,0.0,0.0,0.0,0.0,0.0,0.0,0.0,0.0,0.0,0.0,0.0,0.0,0.0,0.0,0.0,0.0,0.0,0.0,0.0,0.0,0.0,0.0,0.0,0.0,0.0,0.0,0.0,0.0,0.0,0.0,0.0,0.0,0.0,0.0,0.0,0.0,0.0,0.0,0.0,0.0,0.0,0.0,0.0,0.0,0.0,0.0,0.0,0.0,0.0,0.0,0.0,0.0,0.0,0.0,0.0,0.0,0.0,0.0,0.0,0.0,0.0,0.0,0.0,0.0,0.0,0.0,0.0,0.0,0.0,0.0,0.0,0.0,0.0,0.0,0.0,0.0,0.0,0.0,0.0,0.0,0.0,0.0,0.0,0.0,0.0,0.0,0.0,0.0,0.0,0.0,0.0,0.0,0.0,0.0,0.0,0.0,0.0,0.0,0.0,0.0,0.0,0.0,0.0,0.0,0.0,0.0,0.0,0.0,0.0,0.0,0.0,0.0,0.0,0.0,0.0,0.0,0.0,0.0,0.0,0.0,0.0,0.0,0.0,0.0,0.0,0.0,0.0,0.0,0.0,0.0,0.0,0.0,0.0,0.0,0.0,0.0,0.0,0.0,0.0,0.0,0.0,0.0,0.0,0.0,0.0,0.0,0.0,0.0,0.0,0.0,0.0,0.0,0.0,0.0,0.0,0.0,0.0,0.0,0.0,0.0,0.0,0.0,0.0,0.0,0.0,0.0,0.0,0.0,0.0,0.0,0.0,0.0,0.0,0.0,0.0,0.0,0.0,0.0,0.0,0.0,0.0,0.0,0.0,0.0,0.0,0.0,0.0,0.0,0.0,0.0,0.0,0.0,0.0,0.0,0.0,0.0,0.0,0.0,0.0,0.0,0.0,0.0,0.0,0.0,0.0,0.0,0.0,0.0,0.0,0.0,0.0,0.0,0.0,0.0,0.0,0.0,0.0,0.0,0.0,0.0,0.0,0.0,0.0,0.0,0.0,0.0,0.0,0.0,0.0,0.0,0.0,0.0,0.0,0.0,0.0,0.0,0.0,0.0,0.0,0.0,0.0,0.0,0.0,0.0,0.0,0.0,0.0,0.0,0.0,0.0,0.0,0.0,0.0,0.0,0.0,0.0,0.0,0.0,0.0,0.0,0.0,0.0,0.0,0.0,0.0,0.0,0.0,0.0,0.0,0.0,0.0,0.0,0.0,0.0,0.0,0.0,0.0,0.0,0.0,0.0,0.0,0.0,0.0,0.0,0.0,0.0,0.0,0.0,0.0,0.0,0.0,0.0,0.0,0.0,0.0,0.0,0.0,0.0,0.0,0.0,0.0,0.0,0.0,0.0,0.0,0.0,0.0,0.0,0.0,0.0,0.0,0.0,0.0,0.0,0.0,0.0,0.0,0.0,0.0,0.0,0.0,0.0,0.0,0.0,0.0,0.0,0.0,0.0,0.0,0.0,0.0,0.0,0.0,0.0,0.0,0.0,0.0,0.0,0.0,0.0,0.0,0.0,0.0,0.0,0.0,0.0,0.0,0.0,0.0,0.0,0.0,0.0,0.0,0.0,0.0,0.0,0.0,0.0,0.0,0.0,0.0,0.0,0.0,0.0,0.0,0.0,0.0,0.0,0.0,0.0,0.0,0.0,0.0,0.0,0.0,0.0,0.0,0.0,0.0,0.0,0.0,0.0,0.0,0.0,0.0,0.0,0.0,0.0,0.0,0.0,0.0,0.0,0.0,0.0,0.0,0.0,0.0,0.0,0.0,0.0,0.0,0.0,0.0,0.0,0.0,0.0,0.0,0.0,0.0,0.0,0.0,0.0,0.0,0.0,0.0,0.0,0.0,0.0,0.0,0.0,0.0,0.0,0.0,0.0,0.0,0.0,0.0,0.0,0.0,0.0,0.0,0.0,0.0,0.0,0.0,0.0,0.0,0.0,0.0,0.0,0.0,0.0,0.0,0.0,0.0,0.0,0.0,0.0,0.0,0.0,0.0,0.0,0.0,0.0,0.0,0.0,0.0,0.0,0.0,0.0,0.0,0.0,0.0,0.0,0.0,0.0,0.0,0.0,0.0,0.0,0.0,0.0,0.0,0.0,0.0,0.0,0.0,0.0,0.0,0.0,0.0,0.0,0.0,0.0,0.0,0.0,0.0,0.0,0.0,0.0,0.0,0.0,0.0,0.0,0.0,0.0,0.0,0.0,0.0,0.0,0.0,0.0,0.0,0.0,0.0,0.0,0.0,0.0,0.0,0.0,0.0,0.0,0.0,0.0,0.0,0.0,0.0,0.0,0.0,0.0,0.0,0.0,0.0,0.0,0.0,0.0,0.0,0.0,0.0,0.0,0.0,0.0,0.0,0.0,0.0,0.0,0.0,0.0,0.0,0.0,0.0,0.0,0.0,0.0,0.0,0.0,0.0,0.0,0.0,0.0,0.0,0.0,0.0,0.0,0.0,0.0,0.0,0.0,0.0,0.0,0.0,0.0,0.0,0.0,0.0,0.0,0.0,0.0,0.0,0.0,0.0,0.0,0.0,0.0,0.0,0.0,0.0,0.0,0.0,0.0,0.0,0.0,0.0,0.0,0.0,0.0,0.0,0.0,0.0,0.0,0.0,0.0,0.0,0.0,0.0,0.0,0.0,0.0,0.0,0.0,0.0,0.0,0.0,0.0,0.0,0.0,0.0,0.0,0.0,0.0,0.0,0.0,0.0,0.0,0.0,0.0,0.0,0.0,0.0,0.0,0.0,0.0,0.0,0.0,0.0,0.0,0.0,0.0,0.0,0.0,0.0,0.0,0.0,0.0,0.0,0.0,0.0,0.0,0.0,0.0,0.0,0.0,0.0,-1.7233,0.0,0.0,0.0,0.0,0.0,0.0,0.0,0.0,0.0,0.0,0.0,0.0,0.0,0.0,0.0,0.0,0.0,0.0,0.0,0.0,0.0,0.0,0.0,0.0,0.0,0.0,0.0,0.0,0.0,0.0,0.0,0.0,0.0,0.0,0.0,0.0,0.0,0.0,0.0,0.0,0.0,0.0,0.0,0.0,0.0,0.0,0.0,0.0,0.0,0.0,0.0,0.0,0.0,0.0,0.0,0.0,0.0,0.0,0.0,0.0,0.0,0.0,0.0,0.0,0.0,0.0,0.0,0.0,0.0,0.0,0.0,0.0,0.0,0.0,0.0,0.0,0.0,0.0,0.0,0.0,0.0,0.0,0.0,0.0,0.0,0.0,0.0,0.0,0.0,0.0,0.0,0.0,0.0,0.0,0.0,0.0,0.0,0.0,0.0,0.0,0.0,0.0,0.0,0.0,0.0,0.0,0.0,0.0,0.0,0.0,-1.6867,-1.7002,-1.6989,-1.7065,-1.7199,0.0,0.0,0.0,0.0,0.0,0.0,0.0,0.0,0.0,0.0,0.0,0.0,0.0,0.0,0.0,0.0,0.0,0.0,0.0,0.0,0.0,0.0,0.0,0.0,0.0,0.0,0.0,0.0,0.0,0.0,0.0,0.0,0.0,0.0,0.0,0.0,0.0,0.0,0.0,0.0,0.0,0.0,0.0,0.0,0.0,0.0,0.0,0.0,0.0,0.0,0.0,0.0,0.0,0.0,0.0,0.0,0.0,0.0,0.0,0.0,0.0,0.0,0.0,0.0,0.0,0.0,0.0,0.0,0.0,0.0,0.0,0.0,0.0,0.0,0.0,0.0,0.0,0.0,0.0,0.0,0.0,0.0,0.0,0.0,0.0,0.0,0.0,0.0,0.0,0.0,0.0,0.0,0.0,0.0,0.0,0.0,0.0,0.0,0.0,0.0,0.0,0.0,0.0,0.0,0.0,0.0,0.0,0.0,0.0,0.0,0.0,0.0,-1.6918,-1.7054,-1.7323,0.0,0.0,0.0,0.0,0.0,0.0,0.0,0.0,0.0,0.0,0.0,0.0,0.0,0.0,0.0,0.0,0.0,0.0,0.0,0.0,0.0,0.0,0.0,0.0,0.0,0.0,0.0,0.0,0.0,0.0,0.0,0.0,0.0,0.0,0.0,0.0,0.0,0.0,0.0,0.0,0.0,0.0,0.0,0.0,0.0,0.0,0.0,0.0,0.0,0.0,0.0,0.0,0.0,0.0,0.0,0.0,0.0,0.0,0.0,0.0,0.0,0.0,0.0,0.0,0.0,0.0,0.0,0.0,0.0,0.0,0.0,0.0,0.0,0.0,0.0,0.0,0.0,0.0,0.0,0.0,0.0,0.0,0.0,0.0,0.0,0.0,0.0,0.0,0.0,0.0,0.0,0.0,0.0,0.0,0.0,0.0,0.0,0.0,0.0,0.0,0.0,0.0,0.0,0.0,0.0,0.0,0.0,0.0,0.0,0.0,-1.6599,-1.6718,-1.6731,0.0,-1.7593,0.0,0.0,0.0,0.0,0.0,0.0,0.0,0.0,0.0,0.0,0.0,0.0,0.0,0.0,0.0,0.0,0.0,0.0,0.0,0.0,0.0,0.0,0.0,0.0,0.0,0.0,0.0,0.0,0.0,0.0,0.0,0.0,0.0,0.0,0.0,0.0,0.0,0.0,0.0,0.0,0.0,0.0,0.0,0.0,0.0,0.0,0.0,0.0,0.0,0.0,0.0,0.0,0.0,0.0,0.0,0.0,0.0,0.0,0.0,0.0,0.0,0.0,0.0,0.0,0.0,0.0,0.0,0.0,0.0,0.0,0.0,0.0,0.0,0.0,0.0,0.0,0.0,0.0,0.0,0.0,0.0,0.0,0.0,0.0,0.0,0.0,0.0,0.0,0.0,0.0,0.0,0.0,0.0,0.0,0.0,0.0,0.0,0.0,0.0,0.0,0.0,0.0,0.0,0.0,0.0,0.0,0.0,0.0,0.0,0.0,-1.6556,-1.6697,-1.7079,-1.7425,0.0,0.0,0.0,0.0,0.0,0.0,0.0,0.0,0.0,0.0,0.0,0.0,0.0,0.0,0.0,0.0,0.0,0.0,0.0,0.0,0.0,0.0,0.0,0.0,0.0,0.0,0.0,0.0,0.0,0.0,0.0,0.0,0.0,0.0,0.0,0.0,0.0,0.0,0.0,0.0,0.0,0.0,0.0,0.0,0.0,0.0,0.0,0.0,0.0,0.0,0.0,0.0,0.0,0.0,0.0,0.0,0.0,0.0,0.0,0.0,0.0,0.0,0.0,0.0,0.0,0.0,0.0,0.0,0.0,0.0,0.0,0.0,0.0,0.0,0.0,0.0,0.0,0.0,0.0,0.0,0.0,0.0,0.0,0.0,0.0,0.0,0.0,0.0,0.0,0.0,0.0,0.0,0.0,0.0,0.0,0.0,0.0,0.0,0.0,0.0,0.0,0.0,0.0,0.0,0.0,0.0,0.0,0.0,0.0,0.0,-1.6513,-1.6619,-1.6907,-1.7349,-1.7763,-1.8033,0.0,0.0,0.0,0.0,0.0,0.0,0.0,0.0,0.0,0.0,0.0,0.0,0.0,0.0,0.0,0.0,0.0,0.0,0.0,0.0,0.0,0.0,0.0,0.0,0.0,0.0,0.0,0.0,0.0,0.0,0.0,0.0,0.0,0.0,0.0,0.0,0.0,0.0,0.0,0.0,0.0,0.0,0.0,0.0,0.0,0.0,0.0,0.0,0.0,0.0,0.0,0.0,0.0,0.0,0.0,0.0,0.0,0.0,0.0,0.0,0.0,0.0,0.0,0.0,0.0,0.0,0.0,0.0,0.0,0.0,0.0,0.0,0.0,0.0,0.0,0.0,0.0,0.0,0.0,0.0,0.0,0.0,0.0,0.0,0.0,0.0,0.0,0.0,0.0,0.0,0.0,0.0,0.0,0.0,0.0,0.0,0.0,0.0,0.0,0.0,0.0,0.0,0.0,0.0,0.0,0.0,0.0,0.0,-1.6513,-1.6513,-1.6785,-1.7348,-1.7385,-1.7901,0.0,0.0,0.0,0.0,0.0,0.0,0.0,0.0,0.0,0.0,0.0,0.0,0.0,0.0,0.0,0.0,0.0,0.0,0.0,0.0,0.0,0.0,0.0,0.0,0.0,0.0,0.0,0.0,0.0,0.0,0.0,0.0,0.0,0.0,0.0,0.0,0.0,0.0,0.0,0.0,0.0,0.0,0.0,0.0,0.0,0.0,0.0,0.0,0.0,0.0,0.0,0.0,0.0,0.0,0.0,0.0,0.0,0.0,0.0,0.0,0.0,0.0,0.0,0.0,0.0,0.0,0.0,0.0,0.0,0.0,0.0,0.0,0.0,0.0,0.0,0.0,0.0,0.0,0.0,0.0,0.0,0.0,0.0,0.0,0.0,0.0,0.0,0.0,0.0,0.0,0.0,0.0,0.0,0.0,0.0,0.0,0.0,0.0,0.0,0.0,0.0,0.0,0.0,0.0,0.0,0.0,0.0,0.0,0.0,-1.6513,-1.6886,-1.7338,-1.7877,-1.8242,-1.8607,0.0,0.0,0.0,0.0,0.0,0.0,0.0,0.0,0.0,0.0,0.0,0.0,0.0,0.0,0.0,0.0,0.0,0.0,0.0,0.0,0.0,0.0,0.0,0.0,0.0,0.0,0.0,0.0,0.0,0.0,0.0,0.0,0.0,0.0,0.0,0.0,0.0,0.0,0.0,0.0,0.0,0.0,0.0,0.0,0.0,0.0,0.0,0.0,0.0,0.0,0.0,0.0,0.0,0.0,0.0,0.0,0.0,0.0,0.0,0.0,0.0,0.0,0.0,0.0,0.0,0.0,0.0,0.0,0.0,0.0,0.0,0.0,0.0,0.0,0.0,0.0,0.0,0.0,0.0,0.0,0.0,0.0,0.0,0.0,0.0,0.0,0.0,0.0,0.0,0.0,0.0,0.0,0.0,0.0,0.0,0.0,0.0,0.0,0.0,0.0,0.0,0.0,0.0,0.0,0.0,0.0,0.0,0.0,0.0,-1.681,0.0,-1.7903,-1.8455,-1.8807,-1.9083,0.0,0.0,0.0,0.0,0.0,0.0,0.0,0.0,0.0,0.0,0.0,0.0,0.0,0.0,0.0,0.0,0.0,0.0,0.0,0.0,0.0,0.0,0.0,0.0,0.0,0.0,0.0,0.0,0.0,0.0,0.0,0.0,0.0,0.0,0.0,0.0,0.0,0.0,0.0,0.0,0.0,0.0,0.0,0.0,0.0,0.0,0.0,0.0,0.0,0.0,0.0,0.0,0.0,0.0,0.0,0.0,0.0,0.0,0.0,0.0,0.0,0.0,0.0,0.0,0.0,0.0,0.0,0.0,0.0,0.0,0.0,0.0,0.0,0.0,0.0,0.0,0.0,0.0,0.0,0.0,0.0,0.0,0.0,0.0,0.0,0.0,0.0,0.0,0.0,0.0,0.0,0.0,0.0,0.0,0.0,0.0,0.0,0.0,0.0,0.0,0.0,0.0,0.0,0.0,0.0,0.0,0.0,0.0,-1.6848,-1.74,-1.7928,-1.8444,-1.8983,-1.902,-1.9259,0.0,0.0,0.0,0.0,0.0,0.0,0.0,0.0,0.0,0.0,0.0,0.0,0.0,0.0,0.0,0.0,0.0,0.0,0.0,0.0,0.0,0.0,0.0,0.0,0.0,0.0,0.0,0.0,0.0,0.0,0.0,0.0,0.0,0.0,0.0,0.0,0.0,0.0,0.0,0.0,0.0,0.0,0.0,0.0,0.0,0.0,0.0,0.0,0.0,0.0,0.0,0.0,0.0,0.0,0.0,0.0,0.0,0.0,0.0,0.0,0.0,0.0,0.0,0.0,0.0,0.0,0.0,0.0,0.0,0.0,0.0,0.0,0.0,0.0,0.0,0.0,0.0,0.0,0.0,0.0,0.0,0.0,0.0,0.0,0.0,0.0,0.0,0.0,0.0,0.0,0.0,0.0,0.0,0.0,0.0,0.0,0.0,0.0,0.0,0.0,0.0,0.0,0.0,0.0,0.0,0.0,0.0,0.0,0.0,-1.8481,-1.8657,-1.9008,-1.9535,-1.9534,-1.9635,0.0,0.0,0.0,0.0,0.0,0.0,0.0,0.0,0.0,0.0,0.0,0.0,0.0,0.0,0.0,0.0,0.0,0.0,0.0,0.0,0.0,0.0,0.0,0.0,0.0,0.0,0.0,0.0,0.0,0.0,0.0,0.0,0.0,0.0,0.0,0.0,0.0,0.0,0.0,0.0,0.0,0.0,0.0,0.0,0.0,0.0,0.0,0.0,0.0,0.0,0.0,0.0,0.0,0.0,0.0,0.0,0.0,0.0,0.0,0.0,0.0,0.0,0.0,0.0,0.0,0.0,0.0,0.0,0.0,0.0,0.0,0.0,0.0,0.0,0.0,0.0,0.0,0.0,0.0,0.0,0.0,0.0,0.0,0.0,0.0,0.0,0.0,0.0,0.0,0.0,0.0,0.0,0.0,0.0,0.0,0.0,0.0,0.0,0.0,0.0,0.0,0.0,0.0,0.0,0.0,0.0,0.0,0.0,0.0,-1.9271,-1.9284,-1.9472,-1.9798,-1.9798,-1.9798,-1.9798,0.0,0.0,0.0,0.0,0.0,0.0,0.0,0.0,0.0,0.0,0.0,0.0,0.0,0.0,0.0,0.0,0.0,0.0,0.0,0.0,0.0,0.0,0.0,0.0,0.0,0.0,0.0,0.0,0.0,0.0,0.0,0.0,0.0,0.0,0.0,0.0,0.0,0.0,0.0,0.0,0.0,0.0,0.0,0.0,0.0,0.0,0.0,0.0,0.0,0.0,0.0,0.0,0.0,0.0,0.0,0.0,0.0,0.0,0.0,0.0,0.0,0.0,0.0,0.0,0.0,0.0,0.0,0.0,0.0,0.0,0.0,0.0,0.0,0.0,0.0,0.0,0.0,0.0,0.0,0.0,0.0,0.0,0.0,0.0,0.0,0.0,0.0,0.0,0.0,0.0,0.0,0.0,0.0,0.0,0.0,0.0,0.0,0.0,0.0,0.0,0.0,0.0,0.0,0.0,0.0,0.0,0.0,0.0,-1.9811,-1.9824,-1.9798,-1.9798,-1.9798,-1.9798,0.0,0.0,0.0,0.0,0.0,0.0,0.0,0.0,0.0,0.0,0.0,0.0,0.0,0.0,0.0,0.0,0.0,0.0,0.0,0.0,0.0,0.0,0.0,0.0,0.0,0.0,0.0,0.0,0.0,0.0,0.0,0.0,0.0,0.0,0.0,0.0,0.0,0.0,0.0,0.0,0.0,0.0,0.0,0.0,0.0,0.0,0.0,0.0,0.0,0.0,0.0,0.0,0.0,0.0,0.0,0.0,0.0,0.0,0.0,0.0,0.0,0.0,0.0,0.0,0.0,0.0,0.0,0.0,0.0,0.0,0.0,0.0,0.0,0.0,0.0,0.0,0.0,0.0,0.0,0.0,0.0,0.0,0.0,0.0,0.0,0.0,0.0,0.0,0.0,0.0,0.0,0.0,0.0,0.0,0.0,0.0,0.0,0.0,0.0,0.0,0.0,0.0,0.0,0.0,0.0,0.0,0.0,0.0,0.0,-2.0346,-2.0016,-1.9798,-1.9798,-1.9798,-1.9798,0.0,0.0,0.0,0.0,0.0,0.0,0.0,0.0,0.0,0.0,0.0,0.0,0.0,0.0,0.0,0.0,0.0,0.0,0.0,0.0,0.0,0.0,0.0,0.0,0.0,0.0,0.0,0.0,0.0,0.0,0.0,0.0,0.0,0.0,0.0,0.0,0.0,0.0,0.0,0.0,0.0,0.0,0.0,0.0,0.0,0.0,0.0,0.0,0.0,0.0,0.0,0.0,0.0,0.0,0.0,0.0,0.0,0.0,0.0,0.0,0.0,0.0,0.0,0.0,0.0,0.0,0.0,0.0,0.0,0.0,0.0,0.0,0.0,0.0,0.0,0.0,0.0,0.0,0.0,0.0,0.0,0.0,0.0,0.0,0.0,0.0,0.0,0.0,0.0,0.0,0.0,0.0,0.0,0.0,0.0,0.0,0.0,0.0,0.0,0.0,0.0,0.0,0.0,0.0,0.0,0.0,0.0,0.0,-1.9991,-2.0585,-2.0283,-2.0118,-2.0131,-1.9927,-1.9798,0.0,0.0,0.0,0.0,0.0,0.0,0.0,0.0,0.0,0.0,0.0,0.0,0.0,0.0,0.0,0.0,0.0,0.0,0.0,0.0,0.0,0.0,0.0,0.0,0.0,0.0,0.0,0.0,0.0,0.0,0.0,0.0,0.0,0.0,0.0,0.0,0.0,0.0,0.0,0.0,0.0,0.0,0.0,0.0,0.0,0.0,0.0,0.0,0.0,0.0,0.0,0.0,0.0,0.0,0.0,0.0,0.0,0.0,0.0,0.0,0.0,0.0,0.0,0.0,0.0,0.0,0.0,0.0,0.0,0.0,0.0,0.0,0.0,0.0,0.0,0.0,0.0,0.0,0.0,0.0,0.0,0.0,0.0,0.0,0.0,0.0,0.0,0.0,0.0,0.0,0.0,0.0,0.0,0.0,0.0,0.0,0.0,0.0,0.0,0.0,0.0,0.0,0.0,0.0,0.0,0.0,0.0,0.0,-2.0156,-2.0671,-2.0648,-2.0635,-2.0646,-2.0156,-1.985,0.0,0.0,0.0,0.0,0.0,0.0,0.0,0.0,0.0,0.0,0.0,0.0,0.0,0.0,0.0,0.0,0.0,0.0,0.0,0.0,0.0,0.0,0.0,0.0,0.0,0.0,0.0,0.0,0.0,0.0,0.0,0.0,0.0,0.0,0.0,0.0,0.0,0.0,0.0,0.0,0.0,0.0,0.0,0.0,0.0,0.0,0.0,0.0,0.0,0.0,0.0,0.0,0.0,0.0,0.0,0.0,0.0,0.0,0.0,0.0,0.0,0.0,0.0,0.0,0.0,0.0,0.0,0.0,0.0,0.0,0.0,0.0,0.0,0.0,0.0,0.0,0.0,0.0,0.0,0.0,0.0,0.0,0.0,0.0,0.0,0.0,0.0,0.0,0.0,0.0,0.0,0.0,0.0,0.0,0.0,0.0,0.0,0.0,0.0,0.0,0.0,0.0,0.0,0.0,0.0,0.0,0.0,0.0,-2.0671,-2.1199,-2.0833,-2.0795,-2.1199,-2.0721,-2.022,0.0,0.0,0.0,0.0,0.0,0.0,0.0,0.0,0.0,0.0,0.0,0.0,0.0,0.0,0.0,0.0,0.0,0.0,0.0,0.0,0.0,0.0,0.0,0.0,0.0,0.0,0.0,0.0,0.0,0.0,0.0,0.0,0.0,0.0,0.0,0.0,0.0,0.0,0.0,0.0,0.0,0.0,0.0,0.0,0.0,0.0,0.0,0.0,-1.9093,0.0,0.0,0.0,0.0,0.0,0.0,0.0,0.0,0.0,0.0,0.0,0.0,0.0,0.0,0.0,0.0,0.0,0.0,0.0,0.0,0.0,0.0,0.0,0.0,0.0,0.0,0.0,0.0,0.0,0.0,0.0,0.0,0.0,0.0,0.0,0.0,0.0,0.0,0.0,0.0,0.0,0.0,0.0,0.0,0.0,0.0,0.0,0.0,0.0,0.0,0.0,0.0,0.0,0.0,0.0,0.0,0.0,0.0,0.0,-2.087,-2.1369,-2.1358,-2.1358,-2.1393,-2.114,-2.0597,0.0,0.0,0.0,0.0,0.0,0.0,0.0,0.0,0.0,0.0,0.0,0.0,0.0,0.0,0.0,0.0,0.0,0.0,0.0,0.0,0.0,0.0,0.0,0.0,0.0,0.0,0.0,0.0,0.0,0.0,0.0,0.0,0.0,0.0,0.0,0.0,0.0,0.0,0.0,0.0,0.0,0.0,0.0,0.0,0.0,0.0,0.0,0.0,0.0,0.0,0.0,0.0,0.0,0.0,0.0,0.0,0.0,0.0,0.0,0.0,0.0,0.0,0.0,0.0,0.0,0.0,0.0,0.0,0.0,0.0,0.0,0.0,0.0,0.0,0.0,0.0,0.0,0.0,0.0,0.0,0.0,0.0,0.0,0.0,0.0,0.0,0.0,0.0,0.0,0.0,0.0,0.0,0.0,0.0,0.0,0.0,0.0,0.0,0.0,0.0,0.0,0.0,0.0,0.0,0.0,0.0,0.0,-2.0346,-2.0968,-2.1321,-2.1898,-2.1898,-2.1296,-2.1272,-2.0807,-1.985,0.0,0.0,0.0,0.0,0.0,0.0,0.0,0.0,0.0,0.0,0.0,0.0,0.0,0.0,0.0,0.0,0.0,0.0,0.0,0.0,0.0,0.0,0.0,0.0,0.0,0.0,0.0,0.0,0.0,0.0,0.0,0.0,0.0,0.0,0.0,0.0,0.0,0.0,-1.9565,-1.9368,0.0,0.0,0.0,0.0,0.0,0.0,0.0,0.0,-1.9151,0.0,0.0,0.0,0.0,0.0,0.0,0.0,0.0,0.0,0.0,0.0,0.0,0.0,0.0,0.0,0.0,0.0,0.0,0.0,0.0,0.0,0.0,0.0,0.0,0.0,0.0,0.0,0.0,0.0,0.0,0.0,0.0,0.0,0.0,0.0,0.0,0.0,0.0,0.0,0.0,0.0,0.0,0.0,0.0,0.0,0.0,0.0,0.0,0.0,0.0,0.0,0.0,0.0,0.0,0.0,0.0,-1.9772,-2.0968,-2.142,-2.1091,-2.1803,-2.1732,-2.0784,-2.0721,-2.0421,-1.985,0.0,0.0,0.0,0.0,0.0,0.0,0.0,0.0,0.0,0.0,0.0,0.0,0.0,0.0,0.0,0.0,0.0,0.0,0.0,0.0,0.0,0.0,0.0,0.0,0.0,0.0,0.0,0.0,0.0,0.0,0.0,0.0,0.0,0.0,0.0,0.0,0.0,0.0,0.0,-1.9394,-1.9511,0.0,0.0,0.0,0.0,0.0,0.0,0.0,0.0,-1.9715,0.0,0.0,0.0,0.0,0.0,0.0,0.0,0.0,0.0,0.0,0.0,0.0,0.0,0.0,0.0,0.0,0.0,0.0,0.0,0.0,0.0,0.0,0.0,0.0,0.0,0.0,0.0,0.0,0.0,0.0,0.0,0.0,0.0,0.0,0.0,0.0,0.0,0.0,0.0,0.0,0.0,0.0,0.0,0.0,0.0,0.0,0.0,0.0,0.0,0.0,0.0,0.0,0.0,0.0,0.0,-2.0104,-2.1269,-2.167,-2.1237,-2.1851,-2.1841,-2.1028,-2.0759,-2.0334,0.0,0.0,0.0,0.0,0.0,0.0,0.0,0.0,0.0,0.0,0.0,0.0,0.0,0.0,0.0,0.0,0.0,0.0,0.0,0.0,0.0,0.0,0.0,0.0,0.0,0.0,0.0,0.0,0.0,0.0,0.0,0.0,0.0,0.0,0.0,0.0,0.0,0.0,0.0,0.0,-1.9184,-1.9461,-2.0233,0.0,0.0,0.0,0.0,0.0,0.0,-1.9652,-2.0001,0.0,0.0,0.0,0.0,0.0,0.0,0.0,0.0,0.0,0.0,0.0,0.0,0.0,0.0,0.0,0.0,0.0,0.0,0.0,0.0,0.0,0.0,0.0,0.0,0.0,0.0,0.0,0.0,0.0,0.0,0.0,0.0,0.0,0.0,0.0,0.0,0.0,0.0,0.0,0.0,0.0,0.0,0.0,0.0,0.0,0.0,0.0,0.0,0.0,0.0,0.0,0.0,0.0,0.0,0.0,-2.0286,-2.1212,-2.1509,-2.1129,-2.166,-2.1715,-2.124,-2.088,-2.0463,0.0,0.0,0.0,0.0,0.0,0.0,0.0,0.0,0.0,0.0,0.0,0.0,0.0,0.0,0.0,0.0,0.0,0.0,0.0,0.0,0.0,0.0,0.0,0.0,0.0,0.0,0.0,0.0,0.0,0.0,0.0,0.0,0.0,0.0,0.0,0.0,0.0,0.0,0.0,0.0,0.0,-1.9531,-2.047,-2.031,0.0,0.0,0.0,0.0,-1.9989,-2.0033,0.0,0.0,0.0,0.0,0.0,0.0,0.0,0.0,0.0,0.0,0.0,0.0,0.0,0.0,0.0,0.0,0.0,0.0,0.0,0.0,0.0,0.0,0.0,0.0,0.0,0.0,0.0,0.0,0.0,0.0,0.0,0.0,0.0,0.0,0.0,0.0,0.0,0.0,0.0,0.0,0.0,0.0,0.0,0.0,0.0,0.0,0.0,0.0,0.0,0.0,0.0,0.0,0.0,0.0,0.0,0.0,-2.0385,-2.063,-2.0499,-2.0042,-2.0746,-2.0971,-2.0619,-2.095,-2.1087,0.0,0.0,0.0,0.0,0.0,0.0,0.0,0.0,0.0,0.0,0.0,0.0,0.0,0.0,0.0,0.0,0.0,0.0,0.0,0.0,0.0,0.0,0.0,0.0,0.0,0.0,0.0,0.0,0.0,0.0,0.0,0.0,0.0,0.0,0.0,0.0,0.0,0.0,0.0,0.0,0.0,-1.9941,-2.0526,-2.0971,-2.1235,0.0,0.0,-2.1055,-2.0586,-2.0911,0.0,0.0,0.0,0.0,0.0,0.0,0.0,0.0,0.0,0.0,0.0,0.0,0.0,0.0,0.0,0.0,0.0,0.0,0.0,0.0,0.0,0.0,0.0,0.0,0.0,0.0,0.0,0.0,0.0,0.0,0.0,0.0,0.0,0.0,0.0,0.0,0.0,0.0,0.0,0.0,0.0,0.0,0.0,0.0,0.0,0.0,0.0,0.0,0.0,0.0,0.0,0.0,0.0,0.0,0.0,-2.0559,-2.0646,-2.0961,-2.1088,-2.0955,-2.1274,-2.143,-2.1363,-2.1241,-2.1162,0.0,0.0,0.0,0.0,0.0,0.0,0.0,0.0,0.0,0.0,0.0,0.0,0.0,0.0,0.0,0.0,0.0,0.0,0.0,0.0,0.0,0.0,0.0,0.0,0.0,0.0,0.0,0.0,0.0,0.0,0.0,0.0,0.0,0.0,0.0,0.0,0.0,0.0,0.0,0.0,0.0,0.0,-2.0478,-2.082,0.0,0.0,0.0,-2.1332,-2.1091,0.0,0.0,0.0,0.0,0.0,0.0,0.0,0.0,0.0,0.0,0.0,0.0,0.0,0.0,0.0,0.0,0.0,0.0,0.0,0.0,0.0,0.0,0.0,0.0,0.0,0.0,0.0,0.0,0.0,0.0,0.0,0.0,0.0,0.0,0.0,0.0,0.0,0.0,0.0,0.0,0.0,0.0,0.0,0.0,0.0,0.0,0.0,0.0,0.0,0.0,0.0,0.0,0.0,0.0,0.0,0.0,0.0,-2.077,-2.1131,-2.14,-2.1496,-2.1509,-2.1655,-2.1949,-2.154,0.0,0.0,0.0,0.0,0.0,0.0,0.0,0.0,0.0,0.0,0.0,0.0,0.0,0.0,0.0,0.0,0.0,0.0,0.0,0.0,0.0,0.0,0.0,0.0,0.0,0.0,0.0,-1.9342,0.0,0.0,0.0,0.0,0.0,0.0,0.0,0.0,0.0,0.0,0.0,0.0,0.0,0.0,-1.9712,-2.0494,-2.0832,-2.1012,0.0,0.0,-2.1596,-2.1608,-2.1608,-2.171,0.0,0.0,0.0,0.0,0.0,0.0,0.0,0.0,0.0,0.0,0.0,0.0,0.0,0.0,0.0,0.0,0.0,0.0,0.0,0.0,0.0,0.0,0.0,0.0,0.0,0.0,0.0,0.0,0.0,0.0,0.0,0.0,0.0,0.0,0.0,0.0,0.0,0.0,0.0,0.0,0.0,0.0,0.0,0.0,0.0,0.0,0.0,0.0,0.0,0.0,0.0,0.0,0.0,0.0,-2.0581,-2.061,-2.0639,-2.0692,-2.0696,-2.0668,-2.1071,-2.1864,-2.1699,-2.2134,0.0,0.0,0.0,0.0,0.0,0.0,0.0,0.0,0.0,0.0,0.0,0.0,0.0,0.0,0.0,0.0,0.0,0.0,0.0,0.0,0.0,0.0,0.0,0.0,0.0,0.0,0.0,0.0,0.0,0.0,0.0,0.0,0.0,0.0,0.0,0.0,0.0,0.0,0.0,0.0,0.0,-2.0526,-2.0591,-2.1458,-2.2077,0.0,-2.2113,-2.2149,-2.2137,-2.2137,-2.2056,-2.1788,0.0,0.0,0.0,0.0,0.0,0.0,0.0,0.0,0.0,0.0,0.0,0.0,0.0,0.0,0.0,0.0,0.0,0.0,0.0,0.0,0.0,0.0,0.0,0.0,0.0,0.0,0.0,0.0,0.0,0.0,0.0,0.0,0.0,0.0,0.0,0.0,0.0,0.0,0.0,0.0,0.0,0.0,0.0,0.0,0.0,0.0,0.0,0.0,0.0,0.0,0.0,0.0,0.0,-2.043,-2.1091,-2.1428,-2.174,-2.2065,-2.239,-2.2769,-2.3184,-2.3101,-2.3296,0.0,0.0,0.0,0.0,0.0,0.0,0.0,0.0,0.0,0.0,0.0,0.0,0.0,0.0,0.0,0.0,0.0,0.0,0.0,0.0,0.0,0.0,0.0,0.0,0.0,0.0,0.0,0.0,-2.0025,-2.0069,-2.0261,0.0,0.0,0.0,0.0,0.0,0.0,0.0,0.0,0.0,0.0,-2.1211,-2.1566,-2.1644,0.0,0.0,-2.1981,-2.2197,-2.2197,-2.2197,-2.2181,-2.2118,-2.2037,0.0,0.0,0.0,0.0,0.0,0.0,0.0,0.0,0.0,0.0,0.0,0.0,0.0,0.0,0.0,0.0,0.0,0.0,0.0,0.0,0.0,0.0,0.0,0.0,0.0,0.0,0.0,0.0,0.0,0.0,0.0,0.0,0.0,0.0,0.0,0.0,0.0,0.0,0.0,0.0,0.0,0.0,0.0,0.0,0.0,0.0,0.0,0.0,0.0,0.0,0.0,0.0,-2.1145,-2.1873,-2.2433,-2.2879,-2.324,-2.3613,-2.386,-2.398,-2.3947,-2.402,0.0,0.0,0.0,0.0,0.0,0.0,0.0,0.0,0.0,0.0,0.0,0.0,0.0,0.0,0.0,0.0,0.0,0.0,0.0,0.0,0.0,0.0,0.0,0.0,0.0,0.0,0.0,0.0,-2.0767,-2.0762,-2.0605,0.0,0.0,0.0,0.0,0.0,0.0,0.0,0.0,0.0,0.0,-2.2005,-2.2378,-2.2152,-2.1978,-2.2082,-2.2238,-2.2369,-2.2464,-2.2508,-2.2423,-2.2176,0.0,0.0,0.0,0.0,0.0,0.0,0.0,0.0,0.0,0.0,0.0,0.0,0.0,0.0,0.0,0.0,0.0,0.0,0.0,0.0,0.0,0.0,0.0,0.0,0.0,0.0,0.0,0.0,0.0,0.0,-1.9023,0.0,0.0,0.0,0.0,0.0,0.0,0.0,0.0,0.0,0.0,0.0,0.0,0.0,0.0,0.0,0.0,0.0,0.0,0.0,0.0,0.0,0.0,-2.2927,-2.2955,-2.3481,-2.377,-2.3782,-2.3806,-2.3896,-2.4016,-2.3884,-2.4114,-2.4745,0.0,0.0,0.0,0.0,0.0,0.0,0.0,0.0,0.0,0.0,0.0,0.0,0.0,0.0,0.0,0.0,0.0,0.0,0.0,0.0,0.0,0.0,0.0,0.0,0.0,0.0,-2.0701,-2.1062,-2.1211,0.0,0.0,0.0,0.0,0.0,0.0,0.0,0.0,0.0,0.0,-2.263,-2.2987,-2.2979,-2.3081,-2.3264,-2.3631,-2.3099,-2.274,-2.311,-2.3144,-2.2797,0.0,0.0,0.0,0.0,0.0,0.0,0.0,0.0,0.0,0.0,0.0,0.0,0.0,0.0,0.0,0.0,0.0,0.0,0.0,0.0,0.0,0.0,0.0,0.0,0.0,0.0,0.0,-1.9589,-1.9759,0.0,0.0,0.0,0.0,0.0,0.0,0.0,0.0,0.0,0.0,0.0,-2.1668,-2.2029,0.0,0.0,0.0,0.0,0.0,0.0,0.0,0.0,0.0,0.0,0.0,0.0,-2.3147,-2.3541,-2.4001,-2.4266,-2.4278,-2.4614,-2.4829,-2.4852,-2.4829,-2.4914,-2.5117,0.0,0.0,0.0,0.0,0.0,0.0,0.0,0.0,0.0,0.0,0.0,0.0,0.0,0.0,0.0,0.0,0.0,0.0,0.0,0.0,0.0,0.0,0.0,0.0,0.0,-2.2378,0.0,0.0,0.0,0.0,0.0,0.0,0.0,0.0,0.0,0.0,0.0,-2.3364,-2.3688,-2.3893,-2.4001,-2.4001,-2.3769,-2.3628,0.0,0.0,0.0,0.0,0.0,0.0,0.0,0.0,0.0,0.0,0.0,0.0,0.0,0.0,-1.8704,-1.8182,-1.8081,-1.8045,-1.7935,0.0,0.0,0.0,0.0,0.0,0.0,0.0,0.0,0.0,0.0,0.0,0.0,0.0,0.0,-2.0292,0.0,-2.0553,0.0,0.0,0.0,0.0,0.0,0.0,0.0,0.0,-2.1897,-2.2402,-2.2751,-2.3099,-2.3469,0.0,-2.4278,-2.3968,0.0,0.0,0.0,0.0,0.0,0.0,0.0,0.0,-2.3998,-2.4302,-2.4626,-2.4795,-2.4772,-2.5131,-2.5312,-2.5312,-2.5312,-2.5312,-2.5312,-2.5312,-2.5359,0.0,0.0,0.0,0.0,0.0,0.0,0.0,0.0,0.0,0.0,0.0,0.0,0.0,0.0,0.0,0.0,0.0,0.0,0.0,0.0,0.0,0.0,0.0,-2.3288,0.0,0.0,0.0,0.0,0.0,0.0,0.0,0.0,0.0,-2.3628,-2.3977,-2.4434,-2.4747,-2.4795,-2.4748,-2.4795,0.0,0.0,0.0,0.0,0.0,0.0,0.0,-2.1798,-2.1311,-2.035,-1.9591,-1.9374,-1.9206,-1.8939,-1.8551,0.0,0.0,-1.8539,-1.8421,-1.8292,-1.8292,-1.7999,-1.7798,-1.8036,-1.7479,-1.6965,0.0,0.0,0.0,0.0,0.0,0.0,0.0,0.0,-2.0147,-2.0317,0.0,-2.0591,0.0,0.0,0.0,0.0,0.0,-2.1789,0.0,0.0,-2.33,-2.3806,-2.3806,-2.3818,-2.3842,-2.3878,-2.4326,-2.4508,-2.4508,-2.5035,0.0,0.0,0.0,0.0,0.0,0.0,-2.5312,-2.5252,-2.5288,-2.53,-2.53,-2.5312,-2.5312,-2.5312,-2.5312,-2.5312,-2.5312,-2.5312,-2.5312,-2.5312,-2.5312,0.0,0.0,0.0,0.0,0.0,0.0,0.0,0.0,0.0,0.0,0.0,0.0,0.0,0.0,0.0,0.0,0.0,0.0,0.0,0.0,-2.383,0.0,0.0,0.0,0.0,0.0,0.0,0.0,0.0,0.0,0.0,-2.459,-2.4963,-2.5312,-2.5264,0.0,0.0,0.0,0.0,-2.4909,-2.5217,-2.4683,-2.3973,-2.3427,-2.2836,-2.193,-2.0295,0.0,0.0,-1.8212,-1.8054,-1.81,-1.8072,-1.8146,-1.8338,-1.9118,-1.8898,-1.8678,-1.8649,-1.8356,-1.8127,-1.8164,-1.8127,-1.7972,-2.2357,0.0,0.0,0.0,0.0,-2.1534,-2.1612,-2.1485,-2.1588,-2.1619,-2.1649,-2.1722,0.0,0.0,0.0,0.0,0.0,0.0,-2.3348,-2.3372,-2.3661,-2.3986,-2.4302,-2.4314,-2.4506,-2.4867,-2.5011,-2.5083,-2.506,-2.5228,-2.5312,-2.5312,0.0,0.0,0.0,0.0,-2.5312,-2.5312,-2.5312,-2.5312,-2.5312,-2.5312,-2.5312,-2.5312,-2.5312,-2.5312,-2.5312,-2.5312,-2.5312,-2.5312,-2.5312,0.0,0.0,0.0,0.0,0.0,0.0,0.0,0.0,0.0,0.0,0.0,0.0,0.0,0.0,0.0,0.0,0.0,0.0,0.0,-2.4338,-2.4314,-2.4314,0.0,0.0,0.0,0.0,0.0,0.0,0.0,0.0,0.0,-2.5107,-2.5216,-2.5218,0.0,0.0,-2.5218,-2.4981,-2.5052,-2.5182,-2.5312,-2.4647,0.0,-2.3902,-2.2186,-2.0668,-2.0054,-1.8686,-1.7591,-1.7292,-1.7486,-1.7678,-1.7678,-1.7926,-1.8284,-1.8733,-1.8559,-1.8412,-1.8623,-1.8614,-1.865,-1.8889,-1.8751,-1.8466,-2.3781,-2.3283,-2.2827,-2.261,-2.2567,-2.2855,-2.295,-2.2855,-2.2843,-2.2843,-2.2823,-2.2811,-2.3003,-2.3324,-2.3324,0.0,0.0,0.0,-2.4061,-2.4061,-2.429,-2.4542,-2.4784,-2.4796,-2.4999,-2.53,-2.5312,-2.5312,-2.5312,-2.5312,-2.5312,-2.5312,0.0,0.0,-2.5312,-2.5312,-2.5312,-2.5312,-2.5312,-2.5312,-2.5312,-2.5312,-2.5312,-2.5312,-2.5312,-2.5312,-2.5312,-2.5312,-2.5312,-2.5312,-2.5312,-2.5312,0.0,0.0,0.0,0.0,0.0,0.0,0.0,0.0,0.0,0.0,0.0,-2.4386,-2.442,0.0,0.0,0.0,-2.5119,-2.518,-2.4867,-2.4843,0.0,0.0,0.0,0.0,0.0,0.0,0.0,-2.4832,-2.5107,-2.5312,-2.5312,-2.5016,-2.4731,-2.4539,-2.4443,-2.4324,-2.4141,0.0,-2.4384,-2.4396,-2.3975,-2.3537,-2.3121,-2.1539,-2.0075,-1.9304,-1.8212,-1.7403,-1.7394,-1.756,-1.7743,-1.777,-1.7926,-1.8155,-1.843,-1.8284,-1.8274,-1.8825,-1.8815,-1.8843,-1.9219,-1.9109,-1.8907,-2.458,-2.4602,-2.4145,-2.3914,-2.3806,-2.3842,-2.3842,-2.3806,-2.3794,-2.3806,-2.3806,-2.3806,-2.383,-2.3866,-2.3902,0.0,-2.395,-2.4386,-2.4578,-2.4568,-2.5083,-2.5312,-2.5312,-2.5312,-2.5312,-2.5312,-2.5312,-2.5312,-2.5312,-2.536,-2.536,-2.5372,-2.542,-2.5396,-2.5312,-2.5312,-2.5312,-2.5312,-2.5312,-2.5312,-2.5312,-2.5312,-2.5312,-2.5312,-2.5312,-2.5312,-2.5312,-2.5312,-2.5312,-2.5312,-2.5312,-2.5312,-2.5312,0.0,0.0,0.0,0.0,0.0,0.0,0.0,0.0,0.0,0.0,0.0,0.0,0.0,0.0,0.0,-2.5312,0.0,-2.5312,-2.5312,0.0,0.0,0.0,-2.5312,-2.5312,-2.5312,-2.5276,-2.5194,0.0,0.0,-2.5123,-2.442,-2.3938,-2.3938,-2.339,-2.2995,-2.2957,-2.3032,-2.2995,-2.3095,-2.2957,-2.2547,-2.1783,-2.0865,-1.9791,-1.8518,-1.8119,-1.8036,-1.8073,-1.8045,-1.8072,-1.8054,-1.8081,-1.8118,-1.8127,-1.821,-1.8403,-1.9146,-1.8971,-1.8834,-1.9201,-1.9274,-1.9164,-2.536,-2.5709,-2.5588,-2.4855,-2.3842,-2.4181,-2.4121,-2.3818,-2.3806,-2.3806,-2.3806,-2.3806,-2.4023,-2.4362,-2.4759,-2.4939,-2.4951,-2.5071,-2.5119,-2.5131,-2.524,-2.5312,-2.5312,-2.5312,-2.5312,-2.5312,-2.5312,-2.5312,-2.5336,-2.5709,-2.5913,-2.5925,-2.6297,-2.6093,-2.5348,-2.5312,-2.5312,-2.5312,-2.5312,-2.5312,-2.5312,-2.5312,-2.5312,-2.5312,-2.5312,-2.5312,-2.5312,-2.5312,-2.5312,-2.5312,-2.5312,-2.5312,-2.5312,-2.5312,0.0,0.0,0.0,0.0,0.0,0.0,0.0,0.0,0.0,-2.5312,-2.5312,0.0,-2.5312,0.0,-2.5312,-2.5312,-2.5312,-2.5312,0.0,0.0,-2.5312,-2.5312,-2.5312,-2.5312,-2.5075,-2.4445,-2.4373,-2.4156,-2.3621,-2.2835,-2.2349,-2.2349,-2.2745,-2.2883,-2.2606,-2.2809,-2.2995,-2.292,-2.2322,-2.1804,-2.1431,-2.0252,-1.9175,-1.8434,-1.8202,-1.8081,-1.8081,-1.8081,-1.8081,-1.8081,-1.8081,-1.82,-1.8522,-1.8577,-1.8742,-1.9164,-1.899,-1.8834,-1.9219,-1.9292,-1.9265,-2.548,-2.5769,-2.5997,-2.5588,-2.4831,-2.5095,-2.5059,-2.4829,-2.4554,-2.4613,-2.4783,-2.4601,-2.4614,-2.4891,-2.518,-2.5444,-2.5648,-2.5661,-2.5793,-2.6021,-2.6033,-2.6033,-2.5997,-2.5997,-2.5997,-2.5997,-2.5997,-2.5997,-2.6045,-2.6285,-2.6466,-2.6441,-2.6741,-2.6597,-2.6021,-2.5997,-2.5997,-2.5997,-2.5793,-2.554,-2.5324,-2.5312,-2.5312,-2.5312,-2.5312,-2.5312,-2.5312,-2.5312,-2.5312,-2.5312,-2.5312,-2.5312,-2.5312,-2.5312,-2.5312,0.0,0.0,0.0,0.0,0.0,0.0,0.0,0.0,0.0,0.0,0.0,-2.5312,-2.5312,-2.5312,-2.5312,-2.5312,-2.5312,-2.5312,-2.5312,-2.5312,-2.5158,-2.4826,-2.4791,-2.4456,-2.372,-2.3599,-2.3516,-2.329,-2.2565,-2.2159,-2.2346,-2.2465,-2.2271,-2.1755,-2.1804,-2.1907,-2.1756,-2.1385,-2.1059,-2.0972,-2.0091,-1.9294,-1.9012,-1.8765,-1.865,-1.865,-1.865,-1.865,-1.8641,-1.865,-1.8705,-1.8926,-1.8971,-1.9054,-1.9182,-1.9127,-1.9072,-1.9246,-1.9292,-1.9292,-2.5661,-2.5853,-2.6166,-2.6346,-2.6394,-2.6334,-2.6262,-2.6166,-2.5721,-2.5769,-2.6166,-2.5721,-2.5516,-2.5516,-2.5516,-2.5769,-2.6202,-2.6202,-2.6466,-2.6873,-2.6885,-2.6885,-2.6885,-2.6885,-2.6885,-2.6885,-2.6885,-2.6885,-2.691,-2.6958,-2.6994,-2.6994,-2.7066,-2.7102,-2.709,-2.709,-2.703,-2.6885,-2.6442,-2.5937,-2.5432,-2.5408,-2.5372,-2.5312,-2.5312,-2.5312,-2.5312,-2.5312,-2.5312,-2.5312,-2.5312,-2.5312,-2.5312,-2.5312,-2.5312,0.0,-2.5312,0.0,0.0,0.0,0.0,0.0,0.0,0.0,0.0,-2.5312,-2.5312,-2.5312,-2.5312,-2.5312,-2.5312,-2.5312,-2.5276,-2.5158,-2.5158,-2.4826,-2.4084,-2.402,-2.3737,-2.3008,-2.2998,-2.3129,-2.327,-2.2749,-2.249,-2.2706,-2.233,-2.1756,-2.1007,-2.0899,-2.0879,-2.0507,-2.0575,-2.0712,-2.0446,-2.0123,-1.9809,-1.9687,-1.9512,-1.9412,-1.9448,-1.9457,-1.9457,-1.9448,-1.9402,-1.9375,-1.9375,-1.9338,-1.9283,-1.9292,-1.9274,-1.9265,-1.9292,-1.9292,-1.9292,-2.7765,-2.8462,-2.7717,-2.7657,-2.8017,-2.7596,-2.7138,-2.6729,-2.6645,-2.6645,-2.6729,-2.6633,-2.6585,-2.6597,-2.6585,-2.6645,-2.6779,-2.6741,-2.6789,-2.6885,-2.6885,-2.6885,-2.6885,-2.6885,-2.6885,-2.6885,-2.6885,-2.6885,-2.6898,-2.733,-2.7534,-2.7558,-2.7966,-2.8198,-2.821,0.0,0.0,0.0,-2.6801,-2.6502,-2.5973,-2.5937,-2.5745,-2.5336,-2.5312,0.0,-2.5312,-2.5312,-2.5312,-2.5312,-2.5312,0.0,0.0,0.0,0.0,0.0,0.0,0.0,0.0,0.0,0.0,0.0,-2.5312,-2.5312,-2.5312,-2.5312,-2.5312,-2.5312,-2.5312,-2.5312,-2.5312,-2.5312,-2.504,-2.442,-2.4337,-2.4036,-2.3338,-2.3473,-2.3411,-2.2646,-2.2843,-2.2835,-2.2372,-2.2076,-2.2043,-2.2193,-2.2009,-2.1858,-2.168,-2.1611,-2.1621,-2.16,-2.1267,-2.0926,-2.0541,-2.0172,-2.0079,-2.0196,-1.9998,-1.9902,-2.0173,-2.0255,-2.0232,-2.0255,-1.9985,-1.9815,-1.9806,-1.954,-1.932,-1.9301,-1.9301,-1.9292,-1.9292,-1.9292,-1.9292,-2.8426,0.0,-2.8607,-2.851,0.0,-2.8498,-2.8198,-2.763,-2.7126,-2.6885,-2.6885,-2.6885,-2.6885,-2.6885,-2.6885,-2.703,-2.7282,-2.7282,-2.7426,-2.7705,-2.7678,-2.7678,-2.7666,-2.7678,-2.7678,-2.7678,-2.7678,-2.7678,-2.769,-2.7981,-2.8074,-2.8126,-2.839,-2.851,-2.851,-2.851,-2.8126,-2.7294,-2.7282,-2.7055,-2.6538,-2.6514,-2.625,-2.5733,-2.5697,0.0,0.0,0.0,0.0,0.0,0.0,0.0,0.0,0.0,0.0,-2.5312,-2.5312,-2.5312,-2.5312,-2.5312,-2.5312,-2.5312,-2.5312,-2.5312,-2.5312,-2.5312,-2.5312,-2.5312,-2.5312,-2.5312,-2.5312,-2.5312,-2.4969,-2.4204,-2.4301,-2.4007,-2.2982,-2.3087,-2.3018,-2.2312,-2.2341,-2.2388,-2.221,-2.2197,-2.2285,-2.2461,-2.25,-2.249,-2.2461,-2.2139,-2.1894,-2.1894,-2.1607,-2.1307,-2.1182,-2.0833,-2.0596,-2.0731,-2.0472,-2.031,-2.0442,-2.0521,-2.0521,-2.0512,-2.0305,-2.0177,-2.0149,-1.9888,-1.9622,-1.9586,-1.9448,-1.9301,-1.9292,-1.9292,-1.9292,-2.8931,-2.8955,-2.9304,-2.9196,-2.8823,-2.9244,-2.9196,-2.8727,0.0,0.0,0.0,-2.7174,-2.7186,-2.7174,-2.7174,-2.7452,-2.781,-2.7822,-2.805,-2.851,-2.851,-2.851,-2.851,-2.851,-2.851,-2.851,-2.851,-2.851,-2.851,-2.851,-2.851,-2.851,-2.851,-2.851,-2.851,-2.851,-2.8294,-2.7846,-2.7822,-2.757,-2.7054,-2.703,-2.6765,-2.6262,-2.6142,-2.5889,-2.5468,-2.5348,-2.5312,-2.5312,-2.5312,-2.5312,-2.5312,-2.5312,-2.5312,-2.5312,-2.5312,-2.5312,-2.5312,-2.5312,-2.5312,-2.5312,-2.5312,-2.5312,-2.5312,-2.5312,-2.5312,-2.5312,-2.5312,-2.5348,-2.5444,-2.5456,-2.5075,-2.4262,-2.4502,-2.4105,-2.2615,-2.2716,-2.2757,-2.2168,-2.2132,-2.2227,-2.2568,-2.2617,-2.2691,-2.3003,-2.3023,-2.3101,-2.3013,-2.2568,-2.2155,-2.2029,-2.1819,-2.1732,-2.1807,-2.152,-2.1282,-2.132,-2.0959,-2.0692,-2.0714,-2.0689,-2.0689,-2.0805,-2.0695,-2.0631,-2.0594,-2.0301,-1.9976,-1.9902,-1.9498,-1.9225,-1.928,-1.9183,-1.9015,-3.0573,-3.0506,-3.0176,-2.9929,-2.9881,-2.9941,-2.9941,-2.9773,-2.8739,-2.8282,-2.8294,-2.8294,-2.8294,-2.8282,-2.8282,-2.833,-2.8402,-2.8402,-2.8438,-2.851,-2.851,-2.851,-2.851,-2.851,-2.851,-2.851,-2.8522,-2.851,-2.851,-2.8522,-2.851,-2.8522,-2.851,-2.8522,-2.851,-2.851,-2.8474,-2.8402,-2.8402,-2.811,-2.7582,-2.757,-2.7318,-2.6789,-2.6358,-2.6069,-2.5985,-2.5552,-2.5312,-2.5312,-2.5312,-2.5312,-2.5312,-2.5312,-2.5312,-2.5312,-2.5312,-2.5312,-2.5312,-2.5312,-2.5312,-2.5312,-2.5312,-2.5312,-2.5312,-2.5312,-2.5312,-2.5312,-2.5348,-2.5492,-2.5913,-2.5949,-2.5505,-2.4542,-2.4414,-2.3798,-2.2238,-2.2377,-2.2591,-2.2432,-2.2701,-2.2896,-2.2945,-2.2984,-2.2984,-2.3081,-2.3101,-2.3101,-2.3071,-2.3003,-2.2751,-2.2446,-2.2305,-2.2218,-2.2114,-2.1723,-2.1624,-2.1917,-2.1593,-2.1309,-2.142,-2.1412,-2.1421,-2.1495,-2.1193,-2.1053,-2.1016,-2.0704,-2.0272,-1.9898,-1.9229,-1.8784,-1.9025,-1.8607,-1.8158,-3.1344,-3.1276,-3.1091,-3.0826,-3.0537,-3.0206,-3.0086,-3.0013,-2.928,-2.8943,-2.8919,-2.8643,-2.851,-2.851,-2.851,-2.851,-2.851,-2.851,-2.851,-2.8534,-2.8799,-2.8943,-2.8967,-2.9232,-2.9364,-2.9364,-2.9364,-2.9376,-2.9364,-2.9364,-2.9364,-2.9364,-2.9364,-2.922,-2.8955,-2.8943,-2.8799,-2.8522,-2.851,-2.8402,-2.8162,-2.815,-2.7858,-2.733,-2.7091,-2.6839,-2.6525,-2.6273,-2.6153,-2.6153,-2.5865,-2.5733,-2.5733,-2.5456,-2.5312,-2.5312,-2.5312,-2.5312,-2.5312,-2.5576,-2.5865,-2.6154,-2.619,-2.6165,-2.619,-2.5877,-2.5733,-2.5745,-2.5997,-2.6249,-2.6489,-2.6129,-2.5444,-2.4495,-2.4189,-2.3546,-2.255,-2.2598,-2.2808,-2.2828,-2.2974,-2.3101,-2.3101,-2.3101,-2.3101,-2.3101,-2.3101,-2.3101,-2.3101,-2.3101,-2.3003,-2.2838,-2.2794,-2.2706,-2.2476,-2.2211,-2.2077,-2.2122,-2.1806,-2.1671,-2.1668,-2.1687,-2.1687,-2.1687,-2.1513,-2.1421,-2.1394,-2.0674,-2.0031,-1.9532,-1.8557,-1.7979,-1.7784,-1.722,-1.6976,-3.1633,-3.1536,-3.1657,-3.1476,-3.1055,-3.0525,-3.0338,-3.0374,-2.9761,-2.9532,-2.9556,-2.8979,-2.8751,-2.8859,-2.8859,-2.8871,-2.8859,-2.8871,-2.8871,-2.8907,-2.9292,-2.9472,-2.952,-2.9905,-3.0086,-3.0086,-3.0086,-3.0086,-3.0086,-3.0086,-3.0086,-3.0086,-3.0086,-2.9881,-2.9472,-2.9352,-2.9088,-2.8715,-2.857,-2.851,-2.851,-2.851,-2.8318,-2.7933,-2.7738,-2.7486,-2.7102,-2.6958,-2.6885,-2.6873,-2.6514,-2.6286,-2.6262,-2.5901,-2.5673,-2.5673,-2.5673,-2.5673,-2.5661,-2.6045,-2.6478,-2.6849,-2.6822,-2.681,-2.6824,-2.6348,-2.6012,-2.6051,-2.6299,-2.652,-2.632,-2.5881,-2.5172,-2.4446,-2.4073,-2.3551,-2.2771,-2.2906,-2.3101,-2.3101,-2.3101,-2.3101,-2.3101,-2.3101,-2.3101,-2.3101,-2.3101,-2.3101,-2.3101,-2.3101,-2.3101,-2.3091,-2.3047,-2.2969,-2.2803,-2.2618,-2.2388,-2.2185,-2.1998,-2.1847,-2.1776,-2.1687,-2.1687,-2.1687,-2.1687,-2.165,-2.1606,-2.0722,-1.9877,-1.9385,-1.8163,-1.6919,-1.6505,-1.6008,-1.5677,-3.1428,-3.1091,-3.1512,-3.1693,-3.156,-3.1067,-3.1103,-3.138,-3.0501,-3.029,-3.0633,-2.9665,-2.9496,-2.9905,-2.9905,-2.9881,-2.9893,-2.9941,-2.9905,-2.9905,-2.9989,-3.0013,-3.0013,-3.0086,-3.0098,-3.0122,-3.0134,-3.0194,-3.0182,-3.0146,-3.011,-3.0086,-3.0086,-3.0086,-2.9965,-2.9556,-2.928,-2.922,-2.8751,-2.851,-2.851,-2.851,-2.8486,-2.8426,-2.7969,-2.7666,-2.7606,-2.7162,-2.6898,-2.6885,-2.6861,-2.6813,-2.6801,-2.6765,-2.6729,-2.6729,-2.6717,-2.6753,-2.6741,-2.6777,-2.6849,-2.6873,-2.6593,-2.6517,-2.6806,-2.6205,-2.5695,-2.5634,-2.567,-2.5649,-2.522,-2.5124,-2.4828,-2.4314,-2.4248,-2.4008,-2.3023,-2.2984,-2.3101,-2.3101,-2.3101,-2.3101,-2.3101,-2.3101,-2.3101,-2.3101,-2.3101,-2.3101,-2.3101,-2.3101,-2.3101,-2.3057,-2.2969,-2.2838,-2.2803,-2.2803,-2.2539,-2.2353,-2.2309,-2.2087,-2.182,-2.1687,-2.1687,-2.1687,-2.1597,-2.1544,-2.141,-2.089,-2.0052,-1.9087,-1.7739,-1.6248,-1.5703,-1.5401,-1.5284,-3.1585,-3.1404,-3.1609,-3.1705,-3.1669,-3.1476,-3.15,-3.1621,-3.0922,-3.0886,-3.1259,-3.0555,-3.0182,-3.0098,-3.0086,-3.0086,-3.0086,-3.0086,-3.0086,-3.0122,-3.0398,-3.0543,-3.0579,-3.0891,-3.1055,-3.1067,-3.1067,-3.1055,-3.1067,-3.1067,-3.1067,-3.1023,-3.1067,-3.091,-3.0543,-3.0037,-2.9617,-2.9292,-2.8775,-2.851,-2.851,-2.851,-2.851,-2.8486,-2.8306,-2.8186,-2.8174,-2.7969,-2.7873,-2.7798,-2.7546,-2.7378,-2.7354,-2.7078,-2.6885,-2.6885,-2.6885,-2.7042,-2.7342,-2.7366,-2.7394,-2.7498,-2.6923,-2.6633,-2.6616,-2.601,-2.5354,-2.4915,-2.5322,-2.5624,-2.5409,-2.4996,-2.463,-2.4329,-2.3983,-2.3474,-2.3057,-2.3047,-2.3101,-2.3101,-2.3101,-2.3101,-2.3101,-2.3101,-2.3101,-2.3101,-2.3101,-2.3101,-2.3101,-2.3101,-2.3101,-2.3091,-2.3003,-2.2838,-2.2662,-2.2451,-2.2318,-2.2097,-2.1998,-2.1865,-2.1731,-2.1687,-2.1687,-2.1642,-2.1177,-2.0898,-2.0808,-2.0051,-1.9178,-1.8205,-1.6779,-1.5156,-1.4927,-1.4747,-1.4439,-3.1705,-3.1705,-3.1705,-3.1705,-3.1705,-3.1705,-3.1705,-3.1669,-3.1296,-3.1356,-3.1645,-3.1308,-3.0922,-3.0555,-3.0518,-3.0518,-3.0518,-3.0561,-3.0518,-3.0567,-3.097,-3.1139,-3.1175,-3.1512,-3.1705,-3.1705,-3.1693,-3.1693,-3.1705,-3.1705,-3.1705,-3.1705,-3.1705,-3.1512,-3.1127,-3.0579,-3.0037,-2.9532,-2.8991,-2.8667,-2.8534,-2.851,-2.851,-2.851,-2.851,-2.851,-2.851,-2.851,-2.851,-2.8498,-2.8138,-2.7933,-2.7921,-2.7534,-2.733,-2.733,-2.733,-2.7447,-2.7765,-2.775,-2.7747,-2.7649,-2.6958,-2.6453,-2.6268,-2.5463,-2.4691,-2.4276,-2.4638,-2.4872,-2.4808,-2.436,-2.4026,-2.3907,-2.3343,-2.3101,-2.3013,-2.3057,-2.3101,-2.3101,-2.3101,-2.3101,-2.3101,-2.3101,-2.3101,-2.3101,-2.3101,-2.3101,-2.3101,-2.3101,-2.3101,-2.3101,-2.3057,-2.2925,-2.2618,-2.2574,-2.2264,-2.1909,-2.182,-2.1445,-2.132,-2.1141,-2.0862,-2.0266,-2.0076,-1.994,-1.9795,-1.9039,-1.8041,-1.6657,-1.5468,-1.4566,-1.4464,-1.4244,-1.4157,-3.1705,-3.1705,-3.1705,-3.1705,-3.1705,-3.1705,-3.1705,-3.1705,-3.1657,-3.1681,-3.1705,-3.1669,-3.1645,-3.156,-3.1536,-3.1609,-3.1597,-3.156,-3.1548,-3.1548,-3.1621,-3.1657,-3.1681,-3.1705,-3.1705,-3.1705,-3.1705,-3.1705,-3.1705,-3.1705,-3.1705,-3.1705,-3.1705,-3.1693,-3.156,-3.1091,-3.0579,-3.005,-2.9496,-2.9027,-2.8595,-2.8522,-2.851,-2.851,-2.851,-2.851,-2.851,-2.851,-2.851,-2.851,-2.8462,-2.845,-2.8462,-2.8426,-2.8366,-2.839,-2.8402,-2.8215,-2.7879,-2.7799,-2.762,-2.7092,-2.6121,-2.5704,-2.5799,-2.436,-2.3551,-2.4016,-2.342,-2.3003,-2.2818,-2.3047,-2.2925,-2.274,-2.2916,-2.296,-2.2838,-2.3013,-2.3091,-2.3101,-2.3101,-2.3101,-2.3101,-2.3101,-2.3101,-2.3101,-2.3101,-2.3101,-2.3101,-2.3101,-2.3101,-2.3057,-2.2969,-2.2882,-2.3013,-2.2784,-2.2652,-2.2299,-2.1624,-2.097,-2.0249,-1.9704,-1.9347,-1.9026,-1.898,-1.8842,-1.8657,-1.8003,-1.6994,-1.5941,-1.5246,-1.4613,-1.4462,-1.4202,-1.4088,-3.1705,-3.1705,-3.1705,-3.1705,-3.1705,-3.1705,-3.1705,-3.1705,-3.1705,-3.1705,-3.1705,-3.1705,-3.1705,-3.1705,-3.1705,-3.1705,-3.1705,-3.1705,-3.1705,-3.1705,-3.1705,-3.1705,-3.1705,-3.1705,-3.1705,-3.1705,-3.1705,-3.1705,-3.1705,-3.1705,-3.1705,-3.1705,-3.1705,-3.1705,-3.1609,-3.1187,-3.0814,-3.0518,-2.9761,-2.9196,-2.8991,-2.8679,-2.851,-2.851,-2.851,-2.851,-2.851,-2.851,-2.851,-2.851,-2.851,-2.851,-2.851,-2.851,-2.851,-2.851,-2.851,-2.8191,-2.7574,-2.7307,-2.6753,-2.5715,-2.4723,-2.4221,-2.4026,-2.3178,-2.2574,-2.2687,-2.2608,-2.2274,-2.2318,-2.2583,-2.2794,-2.2838,-2.2872,-2.2925,-2.2969,-2.3047,-2.3101,-2.3101,-2.3101,-2.3101,-2.3101,-2.3101,-2.3101,-2.3101,-2.3101,-2.3101,-2.3101,-2.3101,-2.3101,-2.3091,-2.3047,-2.3013,-2.3057,-2.2794,-2.253,-2.2211,-2.1704,-2.106,-2.0385,-1.9422,-1.8972,-1.8519,-1.8241,-1.787,-1.7684,-1.7145,-1.6137,-1.6324,-1.5594,-1.4774,-1.472,-1.4362,-1.4168,-3.1705,-3.1705,-3.1705,-3.1705,-3.1705,-3.1705,-3.1705,-3.1705,-3.1705,-3.1705,-3.1705,-3.1705,-3.1705,-3.1705,-3.1705,-3.1705,-3.1705,-3.1705,-3.1705,-3.1705,-3.1705,-3.1705,-3.1705,-3.1705,-3.1705,-3.1705,-3.1705,-3.1705,-3.1705,-3.1705,-3.1705,-3.1705,-3.1705,-3.1705,-3.1645,-3.1344,-3.1115,-3.0802,-3.017,-2.9677,-2.9328,-2.8955,-2.8667,-2.8546,-2.851,-2.851,-2.851,-2.851,-2.851,-2.851,-2.851,-2.851,-2.851,-2.851,-2.8351,-2.8139,-2.8059,-2.7592,-2.6723,-2.6381,-2.5788,-2.4701,-2.3844,-2.3246,-2.3013,-2.2353,-2.2052,-2.2052,-2.2106,-2.2097,-2.223,-2.2485,-2.275,-2.2969,-2.2925,-2.2969,-2.3091,-2.3101,-2.3101,-2.3101,-2.3101,-2.3101,-2.3101,-2.3101,-2.3101,-2.3101,-2.3101,-2.3101,-2.3101,-2.3101,-2.3101,-2.3101,-2.3091,-2.3101,-2.3057,-2.2838,-2.2706,-2.2388,-2.1338,-2.0791,-2.0158,-1.9239,-1.8419,-1.801,-1.7552,-1.7044,-1.6546,-1.6122,-1.6221,-1.6614,-1.5892,-1.4888,-1.4733,-1.4489,-1.4289,-3.1705,-3.1705,-3.1705,-3.1705,-3.1705,-3.1705,-3.1705,-3.1705,-3.1705,-3.1705,-3.1705,-3.1705,-3.1705,-3.1705,-3.1705,-3.1705,-3.1705,-3.1705,-3.1705,-3.1705,-3.1705,-3.1705,-3.1705,-3.1705,-3.1705,-3.1705,-3.1705,-3.1705,-3.1705,-3.1705,-3.1705,-3.1705,-3.1705,-3.1705,-3.1705,-3.1633,-3.1416,-3.1043,-3.0826,-3.0314,-2.9448,-2.934,-2.9112,-2.8679,-2.8551,-2.8522,-2.8515,-2.8543,-2.8582,-2.8543,-2.8527,-2.8507,-2.8402,-2.8362,-2.8089,-2.7446,-2.7265,-2.6573,-2.5507,-2.5349,-2.5083,-2.4237,-2.3513,-2.3018,-2.2715,-2.222,-2.1909,-2.2097,-2.2141,-2.2176,-2.2353,-2.2441,-2.2574,-2.275,-2.2916,-2.3047,-2.3091,-2.3101,-2.3101,-2.3101,-2.3101,-2.3101,-2.3101,-2.3101,-2.3101,-2.3101,-2.3101,-2.3101,-2.3101,-2.3101,-2.3101,-2.3101,-2.3101,-2.3101,-2.3013,-2.2925,-2.2882,-2.2574,-2.1248,-2.0249,-1.9567,-1.875,-1.7731,-1.7185,-1.6857,-1.6393,-1.6278,-1.5839,-1.5732,-1.5863,-1.5223,-1.5008,-1.4756,-1.4563,-1.4349,-3.1705,-3.1705,-3.1705,-3.1705,-3.1705,-3.1705,-3.1705,-3.1705,-3.1705,-3.1705,-3.1705,-3.1705,-3.1705,-3.1705,-3.1705,-3.1705,-3.1705,-3.1705,-3.1705,-3.1705,-3.1705,-3.1705,-3.1705,-3.1705,-3.1705,-3.1705,-3.1705,-3.1705,-3.1705,-3.1705,-3.1705,-3.1705,-3.1705,-3.1705,-3.1705,-3.1705,-3.1597,-3.1452,-3.1103,-3.0718,-3.035,-3.0025,-2.9749,-2.9575,-2.8945,-2.8587,-2.8575,-2.8863,-2.9023,-2.9023,-2.8745,-2.8238,-2.7705,-2.7545,-2.7417,-2.7202,-2.7116,-2.6726,-2.5774,-2.5399,-2.4812,-2.3866,-2.3306,-2.2939,-2.2577,-2.2337,-2.2248,-2.2328,-2.2309,-2.2397,-2.2618,-2.2662,-2.2744,-2.2813,-2.2838,-2.2969,-2.3101,-2.3101,-2.3101,-2.3101,-2.3101,-2.3101,-2.3101,-2.3101,-2.3101,-2.3101,-2.3101,-2.3101,-2.3101,-2.3101,-2.3101,-2.3101,-2.3101,-2.3101,-2.3057,-2.3013,-2.2925,-2.2662,-2.1561,-2.0331,-1.9476,-1.8519,-1.7466,-1.6636,-1.6258,-1.6015,-1.5852,-1.5758,-1.5665,-1.5598,-1.5444,-1.5184,-1.4897,-1.4669,-1.4482,-3.1705,-3.1705,-3.1705,-3.1705,-3.1705,-3.1705,-3.1705,-3.1705,-3.1705,-3.1705,-3.1705,-3.1705,-3.1705,-3.1705,-3.1705,-3.1705,-3.1705,-3.1705,-3.1705,-3.1705,-3.1705,-3.1705,-3.1705,-3.1705,-3.1705,-3.1705,-3.1705,-3.1705,-3.1705,-3.1705,-3.1705,-3.1705,-3.1705,-3.1705,-3.1705,-3.1705,-3.1705,-3.1657,-3.1392,-3.0941,-3.0399,-3.0005,-2.9574,-2.9001,-2.8352,-2.8092,-2.8081,-2.8517,-2.8869,-2.8932,-2.873,-2.8124,-2.7206,-2.7096,-2.6985,-2.6674,-2.654,-2.6217,-2.5401,-2.5032,-2.4709,-2.3835,-2.3522,-2.3345,-2.3007,-2.2896,-2.2896,-2.2896,-2.2924,-2.2941,-2.3095,-2.323,-2.3265,-2.332,-2.3065,-2.2998,-2.3101,-2.3101,-2.3101,-2.3101,-2.3101,-2.3101,-2.3101,-2.3101,-2.3101,-2.3101,-2.3101,-2.3101,-2.3101,-2.3101,-2.3101,-2.3101,-2.3101,-2.3101,-2.3101,-2.3057,-2.2969,-2.2608,-2.2015,-2.0917,-1.9968,-1.8926,-1.7831,-1.6864,-1.6305,-1.617,-1.6008,-1.5866,-1.5765,-1.5712,-1.5638,-1.5384,-1.509,-1.487,-1.4643,-3.1705,-3.1705,-3.1705,-3.1705,-3.1705,-3.1705,-3.1705,-3.1705,-3.1705,-3.1705,-3.1705,-3.1705,-3.1705,-3.1705,-3.1705,-3.1705,-3.1705,-3.1705,-3.1705,-3.1705,-3.1705,-3.1705,-3.1705,-3.1705,-3.1705,-3.1705,-3.1705,-3.1705,-3.1705,-3.1705,-3.1705,-3.1705,-3.1705,-3.1705,-3.1705,-3.1705,-3.1705,-3.1705,-3.1581,-3.0788,-2.9616,-2.9392,-2.8822,-2.7524,-2.7302,-2.7235,-2.7334,-2.7718,-2.8121,-2.8436,-2.8415,-2.7922,-2.7203,-2.7027,-2.6597,-2.596,-2.5822,-2.5462,-2.4753,-2.4768,-2.4551,-2.4251,-2.4139,-2.4026,-2.3763,-2.364,-2.365,-2.3669,-2.3698,-2.3726,-2.3773,-2.3902,-2.3994,-2.4031,-2.358,-2.329,-2.3159,-2.3169,-2.3169,-2.312,-2.3101,-2.3101,-2.3101,-2.3101,-2.3101,-2.3101,-2.3101,-2.3101,-2.3101,-2.3101,-2.3101,-2.3101,-2.3101,-2.3101,-2.3101,-2.3057,-2.3013,-2.2882,-2.2378,-2.1596,-2.0421,-1.9285,-1.811,-1.7145,-1.6501,-1.6312,-1.617,-1.6021,-1.5927,-1.5886,-1.5759,-1.5491,-1.5251,-1.4983,-1.4696,-3.1705,-3.1705,-3.1705,-3.1705,-3.1705,-3.1705,-3.1705,-3.1705,-3.1705,-3.1705,-3.1705,-3.1705,-3.1705,-3.1705,-3.1705,-3.1705,-3.1705,-3.1705,-3.1705,-3.1705,-3.1705,-3.1705,-3.1705,-3.1705,-3.1705,-3.1705,-3.1705,-3.1705,-3.1705,-3.1705,-3.1705,-3.1705,-3.1705,-3.1705,-3.1705,-3.1705,-3.1705,-3.1572,-3.0913,-3.044,-2.9941,-2.916,-2.8715,-2.8342,-2.754,-2.7169,-2.7144,-2.7316,-2.7441,-2.7547,-2.7572,-2.7118,-2.6253,-2.6111,-2.5996,-2.5817,-2.5714,-2.5638,-2.5399,-2.5342,-2.5177,-2.4884,-2.4798,-2.4662,-2.4258,-2.4239,-2.4239,-2.4239,-2.4239,-2.4222,-2.4249,-2.4314,-2.4361,-2.4312,-2.4173,-2.391,-2.3691,-2.3613,-2.3506,-2.3169,-2.312,-2.313,-2.3101,-2.3101,-2.3101,-2.3101,-2.3101,-2.3101,-2.3101,-2.3101,-2.3101,-2.3101,-2.3101,-2.3101,-2.3101,-2.3047,-2.3057,-2.3057,-2.274,-2.228,-2.0962,-1.965,-1.8388,-1.72,-1.6878,-1.6643,-1.6454,-1.6305,-1.6211,-1.6076,-1.5961,-1.5758,-1.5283,-1.4968,-1.4707,-3.1705,-3.1705,-3.1705,-3.1705,-3.1705,-3.1705,-3.1705,-3.1705,-3.1705,-3.1705,-3.1705,-3.1705,-3.1705,-3.1705,-3.1705,-3.1705,-3.1705,-3.1705,-3.1705,-3.1705,-3.1705,-3.1705,-3.1705,-3.1705,-3.1705,-3.1705,-3.1705,-3.1705,-3.1705,-3.1705,-3.1705,-3.1705,-3.1705,-3.1705,-3.1705,-3.1705,-3.1717,-3.1516,-3.0722,-3.0022,-2.951,-2.8577,-2.784,-2.7474,-2.6829,-2.6552,-2.6542,-2.6542,-2.6733,-2.7084,-2.7179,-2.6733,-2.582,-2.5684,-2.5684,-2.5684,-2.5684,-2.5723,-2.5684,-2.5684,-2.5625,-2.541,-2.5342,-2.5225,-2.5001,-2.4923,-2.4923,-2.4953,-2.4923,-2.4971,-2.4923,-2.4923,-2.4923,-2.4962,-2.4971,-2.4717,-2.4131,-2.4062,-2.3848,-2.3564,-2.3408,-2.332,-2.314,-2.3101,-2.3101,-2.3101,-2.3101,-2.3101,-2.3101,-2.3101,-2.3101,-2.3101,-2.3101,-2.3101,-2.3101,-2.3091,-2.3047,-2.3101,-2.3013,-2.2599,-2.1284,-1.9877,-1.8611,-1.752,-1.7207,-1.6932,-1.6737,-1.6588,-1.6447,-1.6305,-1.6211,-1.5967,-1.5547,-1.5136,-1.4815,-3.1705,-3.1705,-3.1705,-3.1705,-3.1705,-3.1705,-3.1705,-3.1705,-3.1705,-3.1705,-3.1705,-3.1705,-3.1705,-3.1705,-3.1705,-3.1705,-3.1705,-3.1705,-3.1705,-3.1705,-3.1705,-3.1705,-3.1705,-3.1705,-3.1705,-3.1705,-3.1705,-3.1705,-3.1705,-3.1705,-3.1705,-3.1705,-3.1705,-3.1705,-3.1705,-3.1717,-3.1741,-3.1591,-3.0487,-2.9646,-2.8883,-2.782,-2.6733,-2.6187,-2.6004,-2.5868,-2.582,-2.582,-2.6139,-2.6999,-2.7057,-2.6504,-2.5771,-2.5684,-2.5684,-2.5684,-2.5684,-2.5684,-2.5684,-2.5684,-2.5684,-2.5625,-2.5635,-2.5684,-2.5577,-2.5528,-2.5528,-2.5508,-2.5664,-2.5567,-2.5557,-2.5625,-2.5577,-2.5528,-2.5606,-2.5274,-2.4785,-2.4512,-2.4326,-2.3916,-2.3828,-2.3584,-2.335,-2.312,-2.3101,-2.3101,-2.3101,-2.3101,-2.3101,-2.3101,-2.3101,-2.3101,-2.3101,-2.3101,-2.3101,-2.3101,-2.3101,-2.3101,-2.3101,-2.2643,-2.132,-1.9968,-1.8696,-1.7785,-1.7333,-1.7113,-1.7019,-1.6871,-1.6683,-1.6581,-1.6494,-1.6234,-1.5906,-1.5542,-1.5181,-3.1705,-3.1705,-3.1705,-3.1705,-3.1705,-3.1705,-3.1705,-3.1705,-3.1705,-3.1705,-3.1705,-3.1705,-3.1705,-3.1705,-3.1705,-3.1705,-3.1705,-3.1705,-3.1705,-3.1705,-3.1705,-3.1705,-3.1705,-3.1705,-3.1705,-3.1705,-3.1705,-3.1705,-3.1705,-3.1705,-3.1705,-3.1705,-3.1705,-3.1717,-3.1753,-3.1753,-3.1913,-3.1872,-3.0251,-2.9318,-2.8907,-2.7222,-2.6052,-2.5732,-2.5684,-2.5684,-2.5684,-2.5684,-2.582,-2.5955,-2.6052,-2.6004,-2.5771,-2.5684,-2.5684,-2.5684,-2.5684,-2.5684,-2.5684,-2.5684,-2.5684,-2.5684,-2.5684,-2.5684,-2.5684,-2.5684,-2.5684,-2.5684,-2.5684,-2.5684,-2.5684,-2.5684,-2.5684,-2.5684,-2.5674,-2.5615,-2.5391,-2.5127,-2.4756,-2.4365,-2.4033,-2.376,-2.3652,-2.3276,-2.3188,-2.312,-2.3101,-2.3101,-2.3101,-2.3101,-2.3101,-2.3101,-2.3101,-2.3101,-2.3101,-2.3101,-2.3101,-2.3101,-2.3101,-2.2775,-2.1418,-2.0466,-1.9376,-1.8334,-1.7326,-1.7239,-1.7293,-1.7073,-1.6925,-1.6831,-1.6763,-1.6535,-1.6246,-1.5864,-1.5534,-3.1705,-3.1705,-3.1705,-3.1705,-3.1705,-3.1705,-3.1705,-3.1705,-3.1705,-3.1705,-3.1705,-3.1705,-3.1705,-3.1705,-3.1705,-3.1705,-3.1705,-3.1705,-3.1705,-3.1705,-3.1705,-3.1705,-3.1705,-3.1705,-3.1705,-3.1705,-3.1705,-3.1705,-3.1705,-3.1705,-3.1705,-3.1705,-3.1705,-3.1898,-3.1994,-3.1874,-3.2187,-3.2311,-3.0652,-2.9491,-2.9128,-2.7554,-2.6052,-2.5781,-2.5684,-2.5684,-2.5684,-2.5684,-2.5684,-2.5684,-2.5684,-2.5684,-2.5684,-2.5684,-2.5684,-2.5684,-2.5684,-2.5684,-2.5684,-2.5684,-2.5684,-2.5684,-2.5684,-2.5684,-2.5684,-2.5684,-2.5684,-2.5684,-2.5684,-2.5684,-2.5684,-2.5684,-2.5684,-2.5684,-2.5684,-2.5684,-2.5645,-2.5518,-2.5205,-2.4824,-2.4551,-2.4189,-2.3887,-2.3555,-2.3247,-2.3179,-2.3101,-2.3101,-2.3101,-2.3101,-2.3101,-2.3101,-2.3101,-2.3101,-2.3101,-2.3101,-2.3101,-2.3101,-2.3101,-2.2599,-2.1695,-2.0962,-2.024,-1.9055,-1.7831,-1.7552,-1.7512,-1.734,-1.7113,-1.7106,-1.6976,-1.6804,-1.654,-1.6182,-1.5845,-3.1705,-3.1705,-3.1705,-3.1705,-3.1705,-3.1705,-3.1705,-3.1705,-3.1705,-3.1705,-3.1705,-3.1705,-3.1705,-3.1705,-3.1705,-3.1705,-3.1705,-3.1705,-3.1705,-3.1705,-3.1705,-3.1705,-3.1705,-3.1705,-3.1705,-3.1705,-3.1705,-3.1705,-3.1705,-3.1705,-3.1705,-3.1705,-3.1705,-3.197,-3.2238,-3.213,-3.237,-3.2989,-3.1078,-2.9866,-2.9332,-2.7867,-2.639,-2.5868,-2.5684,-2.5684,-2.5684,-2.5684,-2.5684,-2.5684,-2.5684,-2.5684,-2.5684,-2.5684,-2.5684,-2.5684,-2.5684,-2.5684,-2.5684,-2.5684,-2.5684,-2.5684,-2.5684,-2.5684,-2.5684,-2.5684,-2.5684,-2.5684,-2.5684,-2.5684,-2.5684,-2.5684,-2.5684,-2.5684,-2.5684,-2.5684,-2.5684,-2.5684,-2.5498,-2.5264,-2.4941,-2.4626,-2.416,-2.3789,-2.3516,-2.3227,-2.3149,-2.3101,-2.3101,-2.3101,-2.3101,-2.3101,-2.3101,-2.3101,-2.3101,-2.3101,-2.3101,-2.3101,-2.3101,-2.2687,-2.2148,-2.1872,-2.115,-1.9521,-1.8473,-1.8102,-1.7692,-1.738,-1.7246,-1.7286,-1.7225,-1.7041,-1.6793,-1.6495,-1.6211,-3.1705,-3.1705,-3.1705,-3.1705,-3.1705,-3.1705,-3.1705,-3.1705,-3.1705,-3.1705,-3.1705,-3.1705,-3.1705,-3.1705,-3.1705,-3.1705,-3.1705,-3.1705,-3.1705,-3.1705,-3.1705,-3.1705,-3.1705,-3.1705,-3.1705,-3.1705,-3.1705,-3.1705,-3.1705,-3.1705,-3.1705,-3.1705,-3.1753,-3.201,-3.2406,-3.2454,-3.2863,-3.3397,-3.1412,-3.0175,-2.9663,-2.7703,-2.61,-2.5732,-2.5684,-2.5684,-2.5684,-2.5684,-2.5684,-2.5684,-2.5684,-2.5684,-2.5684,-2.5684,-2.5684,-2.5684,-2.5684,-2.5684,-2.5684,-2.5684,-2.5684,-2.5684,-2.5684,-2.5684,-2.5684,-2.5684,-2.5684,-2.5684,-2.5684,-2.5684,-2.5684,-2.5684,-2.5684,-2.5684,-2.5684,-2.5684,-2.5684,-2.5674,-2.5654,-2.5537,-2.5244,-2.4979,-2.4502,-2.4072,-2.3721,-2.3383,-2.3179,-2.312,-2.3101,-2.3101,-2.3101,-2.3101,-2.3101,-2.3101,-2.3101,-2.3101,-2.3101,-2.3101,-2.3101,-2.3101,-2.2775,-2.2872,-2.2006,-2.0059,-1.888,-1.8427,-1.7971,-1.7419,-1.7286,-1.7286,-1.7286,-1.7279,-1.7057,-1.6776,-1.6737,-3.1705,-3.1705,-3.1705,-3.1705,-3.1705,-3.1705,-3.1705,-3.1705,-3.1705,-3.1705,-3.1705,-3.1705,-3.1705,-3.1705,-3.1705,-3.1705,-3.1705,-3.1705,-3.1705,-3.1705,-3.1705,-3.1705,-3.1705,-3.1705,-3.1705,-3.1705,-3.1705,-3.1705,-3.1705,-3.1705,-3.1705,-3.1789,-3.1913,-3.237,-3.2791,-3.2935,-3.3477,-3.3601,-3.223,-3.091,-3.0726,-2.8013,-2.642,-2.582,-2.5684,-2.5684,-2.5684,-2.5684,-2.5684,-2.5684,-2.5684,-2.5684,-2.5684,-2.5684,-2.5684,-2.5684,-2.5684,-2.5684,-2.5684,-2.5684,-2.5684,-2.5684,-2.5684,-2.5684,-2.5684,-2.5684,-2.5684,-2.5684,-2.5684,-2.5684,-2.5684,-2.5684,-2.5684,-2.5684,-2.5684,-2.5684,-2.5684,-2.5684,-2.5684,-2.5684,-2.5547,-2.5234,-2.4891,-2.4414,-2.3975,-2.3623,-2.3257,-2.3149,-2.3101,-2.3101,-2.3101,-2.3101,-2.3101,-2.3101,-2.3101,-2.3101,-2.3101,-2.3101,-2.3101,-2.3101,-2.3101,-2.3047,-2.1961,-2.0232,-1.9376,-1.888,-1.7924,-1.7286,-1.7286,-1.7286,-1.7286,-1.7264,-1.7198,-1.7128,-1.7027,-3.1705,-3.1705,-3.1705,-3.1705,-3.1705,-3.1705,-3.1705,-3.1705,-3.1705,-3.1705,-3.1705,-3.1705,-3.1705,-3.1705,-3.1705,-3.1705,-3.1705,-3.1705,-3.1705,-3.1705,-3.1705,-3.1705,-3.1705,-3.1705,-3.1705,-3.1705,-3.1705,-3.1705,-3.1705,-3.1705,-3.1705,-3.1849,-3.2214,-3.2767,-3.314,-3.32,-3.3945,-3.3994,-3.3052,-3.1914,-3.0431,-2.856,-2.6733,-2.582,-2.5684,-2.5684,-2.5684,-2.5684,-2.5684,-2.5684,-2.5684,-2.5684,-2.5684,-2.5684,-2.5684,-2.5684,-2.5684,-2.5684,-2.5684,-2.5684,-2.5684,-2.5684,-2.5684,-2.5684,-2.5684,-2.5684,-2.5684,-2.5684,-2.5684,-2.5684,-2.5684,-2.5684,-2.5684,-2.5684,-2.5684,-2.5684,-2.5684,-2.5684,-2.5684,-2.5684,-2.5684,-2.5478,-2.5049,-2.459,-2.4121,-2.3691,-2.3325,-2.314,-2.3101,-2.3101,-2.3101,-2.3101,-2.3101,-2.3101,-2.3101,-2.3101,-2.3101,-2.3101,-2.3101,-2.3101,-2.3101,-2.3101,-2.1774,-2.0683,-2.0096,-1.9467,-1.8334,-1.7333,-1.7286,-1.7286,-1.7286,-1.7264,-1.7274,-1.7216,-1.7106,-3.1705,-3.1705,-3.1705,-3.1705,-3.1705,-3.1705,-3.1705,-3.1705,-3.1705,-3.1705,-3.1705,-3.1705,-3.1705,-3.1705,-3.1705,-3.1705,-3.1705,-3.1705,-3.1705,-3.1705,-3.1705,-3.1705,-3.1705,-3.1705,-3.1705,-3.1705,-3.1705,-3.1705,-3.1705,-3.1705,-3.1753,-3.1886,-3.231,-3.2767,-3.3236,-3.338,-3.3825,-3.4198,-3.2441,-3.0221,-2.8353,-2.751,-2.6706,-2.5955,-2.5684,-2.5684,-2.5684,-2.5684,-2.5684,-2.5684,-2.5684,-2.5684,-2.5684,-2.5684,-2.5684,-2.5684,-2.5684,-2.5684,-2.5684,-2.5684,-2.5684,-2.5684,-2.5684,-2.5684,-2.5684,-2.5684,-2.5684,-2.5684,-2.5684,-2.5684,-2.5684,-2.5684,-2.5684,-2.5684,-2.5684,-2.5684,-2.5684,-2.5684,-2.5684,-2.5684,-2.5684,-2.5508,-2.5166,-2.4707,-2.4248,-2.3828,-2.3477,-2.3247,-2.3101,-2.3101,-2.3101,-2.3101,-2.3101,-2.3101,-2.3101,-2.3101,-2.3101,-2.3101,-2.3101,-2.3101,-2.3101,-2.3003,-2.2555,-2.1596,-2.0872,-1.9741,-1.838,-1.7606,-1.738,-1.7286,-1.7286,-1.7286,-1.7279,-1.7267,-1.7201,-3.1705,-3.1705,-3.1705,-3.1705,-3.1705,-3.1705,-3.1705,-3.1705,-3.1705,-3.1705,-3.1705,-3.1705,-3.1705,-3.1705,-3.1705,-3.1705,-3.1705,-3.1705,-3.1705,-3.1705,-3.1705,-3.1705,-3.1705,-3.1705,-3.1705,-3.1705,-3.1705,-3.1705,-3.1705,-3.1753,-3.1825,-3.219,-3.2635,-3.3044,-3.3296,-3.3573,-3.3741,-3.3374,-3.1961,-3.006,-2.8438,-2.7463,-2.6733,-2.5732,-2.5684,-2.5684,-2.5684,-2.5684,-2.5684,-2.5684,-2.5684,-2.5684,-2.5684,-2.5684,-2.5684,-2.5684,-2.5684,-2.5684,-2.5684,-2.5684,-2.5684,-2.5684,-2.5684,-2.5684,-2.5684,-2.5684,-2.5684,-2.5684,-2.5684,-2.5684,-2.5684,-2.5684,-2.5684,-2.5684,-2.5684,-2.5684,-2.5684,-2.5684,-2.5684,-2.5684,-2.5664,-2.5537,-2.5361,-2.5059,-2.4609,-2.4141,-2.374,-2.3437,-2.3218,-2.3101,-2.3101,-2.3101,-2.3101,-2.3101,-2.3101,-2.3101,-2.3101,-2.3101,-2.3101,-2.3101,-2.3101,-2.2916,-2.2555,-2.1872,-2.0872,-1.9695,-1.8334,-1.7699,-1.7333,-1.7286,-1.7286,-1.7286,-1.7286,-1.7279,-1.7274,-3.222,-3.2176,-3.1825,-3.1705,-3.1705,-3.1705,-3.1705,-3.1705,-3.1705,-3.1705,-3.1705,-3.1705,-3.1705,-3.1705,-3.1705,-3.1705,-3.1705,-3.1705,-3.1705,-3.1705,-3.1705,-3.1705,-3.1705,-3.1705,-3.1705,-3.1717,-3.1705,-3.1705,-3.1705,-3.1765,-3.1982,-3.2503,-3.2731,-3.3104,-3.332,-3.3356,-3.3332,-3.2769,-3.1981,-3.0502,-2.8872,-2.7981,-2.6924,-2.61,-2.5684,-2.5684,-2.5684,-2.5684,-2.5684,-2.5684,-2.5684,-2.5684,-2.5684,-2.5684,-2.5684,-2.5684,-2.5684,-2.5684,-2.5684,-2.5684,-2.5684,-2.5684,-2.5684,-2.5684,-2.5684,-2.5684,-2.5684,-2.5684,-2.5684,-2.5684,-2.5684,-2.5684,-2.5684,-2.5684,-2.5684,-2.5684,-2.5684,-2.5684,-2.5684,-2.5684,-2.5684,-2.5684,-2.5557,-2.5391,-2.501,-2.4482,-2.4053,-2.3633,-2.3369,-2.311,-2.3101,-2.3101,-2.3101,-2.3101,-2.3101,-2.3101,-2.3101,-2.3101,-2.3101,-2.3101,-2.3101,-2.3057,-2.2828,-2.1961,-2.1006,-2.0141,-1.9147,-1.8195,-1.7286,-1.7286,-1.7286,-1.7286,-1.7286,-1.7286,-1.7286,-3.3543,-3.3458,-3.2264,-3.1749,-3.1749,-3.1705,-3.1705,-3.1705,-3.1705,-3.1705,-3.1705,-3.1705,-3.1705,-3.1705,-3.1705,-3.1705,-3.1705,-3.1705,-3.1705,-3.1705,-3.1705,-3.1705,-3.1705,-3.1705,-3.1717,-3.1717,-3.1801,-3.1813,-3.1777,-3.1946,-3.2118,-3.2442,-3.2635,-3.2899,-3.2959,-3.2851,-3.2587,-3.2205,-3.1877,-3.079,-2.9322,-2.8262,-2.7484,-2.6052,-2.5684,-2.5684,-2.5684,-2.5684,-2.5684,-2.5684,-2.5684,-2.5684,-2.5684,-2.5684,-2.5684,-2.5684,-2.5684,-2.5684,-2.5684,-2.5684,-2.5684,-2.5684,-2.5684,-2.5684,-2.5684,-2.5684,-2.5684,-2.5684,-2.5684,-2.5684,-2.5684,-2.5684,-2.5684,-2.5684,-2.5684,-2.5684,-2.5684,-2.5684,-2.5684,-2.5684,-2.5684,-2.5684,-2.5684,-2.5557,-2.5225,-2.4717,-2.4062,-2.3633,-2.334,-2.3101,-2.3101,-2.3101,-2.3101,-2.3101,-2.3101,-2.3101,-2.3101,-2.3101,-2.3101,-2.3101,-2.3101,-2.3057,-2.2969,-2.2369,-2.1463,-2.0728,-1.9778,-1.8465,-1.7512,-1.738,-1.7286,-1.7286,-1.7286,-1.7286,-1.7286,-3.4262,-3.4415,-3.3619,-3.292,-3.232,-3.232,-3.2057,-3.1749,-3.1705,-3.1705,-3.1705,-3.1705,-3.1705,-3.1705,-3.1705,-3.1705,-3.1705,-3.1705,-3.1705,-3.1705,-3.1705,-3.1705,-3.1705,-3.1705,-3.1717,-3.1801,-3.1949,-3.1982,-3.1765,-3.2163,-3.2394,-3.2575,-3.2454,-3.2587,-3.2587,-3.2394,-3.2106,-3.1938,-3.1414,-3.0194,-2.9093,-2.797,-2.7105,-2.5868,-2.5684,-2.5684,-2.5684,-2.5684,-2.5684,-2.5684,-2.5684,-2.5684,-2.5684,-2.5684,-2.5684,-2.5684,-2.5684,-2.5684,-2.5684,-2.5684,-2.5684,-2.5684,-2.5684,-2.5684,-2.5684,-2.5684,-2.5684,-2.5684,-2.5684,-2.5684,-2.5684,-2.5684,-2.5684,-2.5684,-2.5684,-2.5684,-2.5684,-2.5684,-2.5684,-2.5684,-2.5684,-2.5684,-2.5684,-2.5664,-2.5342,-2.4912,-2.4248,-2.3652,-2.335,-2.3101,-2.3101,-2.3101,-2.3101,-2.3101,-2.3101,-2.3101,-2.3101,-2.3101,-2.3101,-2.3101,-2.3101,-2.3101,-2.296,-2.2413,-2.173,-2.0692,-1.9596,-1.8326,-1.7645,-1.7372,-1.7286,-1.7286,-1.7286,-1.7286,-1.7286,-3.4714,-3.5021,-3.4861,-3.4258,-3.339,-3.3116,-3.2717,-3.2295,-3.2013,-3.1849,-3.1805,-3.1761,-3.1705,-3.1705,-3.1705,-3.1705,-3.1705,-3.1705,-3.1705,-3.1705,-3.1705,-3.1705,-3.1705,-3.1753,-3.1825,-3.1958,-3.2054,-3.2042,-3.2054,-3.2551,-3.243,-3.225,-3.2274,-3.231,-3.243,-3.2178,-3.2102,-3.189,-3.1496,-3.0216,-2.9244,-2.8588,-2.7793,-2.6791,-2.6466,-2.6235,-2.6149,-2.5965,-2.5684,-2.5684,-2.5684,-2.5684,-2.5684,-2.5684,-2.5684,-2.5684,-2.5684,-2.5684,-2.5684,-2.5684,-2.5684,-2.5684,-2.5684,-2.5684,-2.5684,-2.5684,-2.5684,-2.5684,-2.5684,-2.5684,-2.5684,-2.5684,-2.5684,-2.5684,-2.5684,-2.5684,-2.5684,-2.5684,-2.5684,-2.5684,-2.5684,-2.5684,-2.5684,-2.5635,-2.5273,-2.4834,-2.4209,-2.3652,-2.3237,-2.3101,-2.3101,-2.3101,-2.3101,-2.3101,-2.3101,-2.3101,-2.3101,-2.3101,-2.3101,-2.3101,-2.3101,-2.3101,-2.3047,-2.2731,-2.1863,-2.0647,-1.955,-1.8465,-1.7831,-1.7333,-1.7333,-1.7419,-1.7286,-1.7286,-1.7286,-3.5125,-3.5139,-3.5675,-3.5521,-3.479,-3.404,-3.3619,-3.3335,-3.2667,-3.2213,-3.1981,-3.1805,-3.1705,-3.1705,-3.1705,-3.1765,-3.1801,-3.1753,-3.1753,-3.1813,-3.1753,-3.1729,-3.1789,-3.1862,-3.201,-3.225,-3.2286,-3.2286,-3.231,-3.2391,-3.209,-3.1862,-3.191,-3.2046,-3.2454,-3.2503,-3.2226,-3.191,-3.2148,-3.1325,-3.0273,-2.9761,-2.9096,-2.8215,-2.7284,-2.6867,-2.6733,-2.6052,-2.5723,-2.5684,-2.5684,-2.5684,-2.5684,-2.5684,-2.5684,-2.5684,-2.5684,-2.5684,-2.5684,-2.5684,-2.5684,-2.5684,-2.5684,-2.5684,-2.5684,-2.5684,-2.5684,-2.5684,-2.5684,-2.5684,-2.5684,-2.5684,-2.5684,-2.5684,-2.5684,-2.5684,-2.5684,-2.5684,-2.5684,-2.5684,-2.5684,-2.5684,-2.5684,-2.5577,-2.5148,-2.4697,-2.4121,-2.3652,-2.3227,-2.3101,-2.3101,-2.3101,-2.3101,-2.3101,-2.3101,-2.3101,-2.3101,-2.3101,-2.3101,-2.3101,-2.3101,-2.3101,-2.3047,-2.2906,-2.205,-2.0872,-1.9778,-1.8734,-1.8465,-1.8195,-1.7645,-1.7552,-1.7419,-1.7286,-1.7286,-3.5652,-3.5899,-3.5829,-3.5733,-3.5544,-3.4751,-3.4137,-3.359,-3.284,-3.2356,-3.2213,-3.2038,-3.1893,-3.1837,-3.1834,-3.1922,-3.2126,-3.1801,-3.1801,-3.213,-3.1922,-3.2018,-3.2058,-3.2154,-3.2298,-3.2515,-3.2515,-3.2223,-3.1901,-3.2163,-3.2138,-3.1922,-3.1849,-3.203,-3.2466,-3.2731,-3.2755,-3.2346,-3.2268,-3.1774,-3.0443,-3.017,-2.9795,-2.8808,-2.7887,-2.7416,-2.7321,-2.6504,-2.5955,-2.5868,-2.582,-2.5781,-2.5732,-2.5684,-2.5684,-2.5684,-2.5684,-2.5684,-2.5684,-2.5684,-2.5684,-2.5684,-2.5684,-2.5684,-2.5684,-2.5684,-2.5684,-2.5684,-2.5684,-2.5684,-2.5684,-2.5684,-2.5684,-2.5684,-2.5684,-2.5684,-2.5684,-2.5684,-2.5684,-2.5684,-2.5684,-2.5684,-2.5684,-2.5547,-2.5156,-2.4727,-2.418,-2.3682,-2.3227,-2.313,-2.3101,-2.3101,-2.3101,-2.3101,-2.3101,-2.3101,-2.3101,-2.3101,-2.3101,-2.3101,-2.3101,-2.3101,-2.3091,-2.3003,-2.2094,-2.1096,-2.0322,-1.9687,-1.9505,-1.9193,-1.8826,-1.8326,-1.811,-1.7746,-1.7286,-3.5387,-3.5627,-3.5597,-3.5502,-3.5339,-3.4885,-3.426,-3.353,-3.2984,-3.2802,-3.2751,-3.2697,-3.2609,-3.2483,-3.2435,-3.2107,-3.234,-3.2163,-3.1849,-3.2238,-3.2151,-3.209,-3.2178,-3.243,-3.2442,-3.2551,-3.237,-3.2094,-3.2022,-3.2262,-3.2126,-3.1862,-3.2066,-3.2379,-3.2683,-3.2875,-3.2984,-3.2647,-3.2496,-3.2192,-3.1217,-3.0722,-3.0498,-2.9749,-2.9004,-2.8355,-2.7981,-2.7389,-2.6562,-2.6322,-2.6187,-2.6004,-2.5868,-2.5684,-2.5684,-2.5684,-2.5684,-2.5684,-2.5684,-2.5684,-2.5684,-2.5684,-2.5684,-2.5684,-2.5684,-2.5684,-2.5684,-2.5684,-2.5684,-2.5684,-2.5684,-2.5684,-2.5684,-2.5684,-2.5684,-2.5684,-2.5684,-2.5684,-2.5684,-2.5684,-2.5684,-2.5684,-2.5635,-2.541,-2.5127,-2.4697,-2.4248,-2.3715,-2.3247,-2.3159,-2.3101,-2.3101,-2.3101,-2.3101,-2.3101,-2.3101,-2.3101,-2.3101,-2.3101,-2.3101,-2.3101,-2.3101,-2.3101,-2.3003,-2.2192,-2.1463,-2.1096,-2.0737,-2.0602,-2.0466,-2.0286,-1.9695,-1.9018,-1.8334,-1.7699,-3.4395,-3.4501,-3.5116,-3.4923,-3.4349,-3.4508,-3.4025,-3.3149,-3.3333,-3.3456,-3.3486,-3.3716,-3.3564,-3.3314,-3.3442,-3.3132,-3.2552,-3.2611,-3.2397,-3.2288,-3.2563,-3.2373,-3.2361,-3.2542,-3.2759,-3.234,-3.2051,-3.2168,-3.2319,-3.1954,-3.1653,-3.1849,-3.2545,-3.2729,-3.2873,-3.308,-3.3104,-3.2911,-3.2887,-3.2508,-3.1776,-3.1532,-3.135,-3.0824,-3.026,-2.9795,-2.9383,-2.883,-2.7981,-2.7521,-2.7152,-2.6552,-2.61,-2.5742,-2.5684,-2.5684,-2.5684,-2.5684,-2.5684,-2.5684,-2.5684,-2.5684,-2.5684,-2.5684,-2.5684,-2.5684,-2.5684,-2.5684,-2.5684,-2.5684,-2.5684,-2.5684,-2.5684,-2.5684,-2.5684,-2.5684,-2.5684,-2.5684,-2.5684,-2.5684,-2.5684,-2.5664,-2.5664,-2.543,-2.5019,-2.46,-2.416,-2.3711,-2.3266,-2.3149,-2.3101,-2.3101,-2.3101,-2.3101,-2.3101,-2.3101,-2.3101,-2.3101,-2.3101,-2.3101,-2.3101,-2.3101,-2.3101,-2.2872,-2.228,-2.1872,-2.173,-2.173,-2.1739,-2.1606,-2.1463,-2.0557,-1.9741,-1.8926,-1.8288,-3.438,-3.4409,-3.4617,-3.4473,-3.4119,-3.3869,-3.3519,-3.3154,-3.3183,-3.3408,-3.3777,-3.368,-3.3814,-3.4028,-3.3958,-3.387,-3.3787,-3.3738,-3.3533,-3.3378,-3.3186,-3.3317,-3.3341,-3.3296,-3.3421,-3.3095,-3.267,-3.2042,-3.1962,-3.1583,-3.1564,-3.1837,-3.2638,-3.2858,-3.3198,-3.3561,-3.3404,-3.3248,-3.3296,-3.2791,-3.2262,-3.1898,-3.1801,-3.1427,-3.0824,-3.0407,-3.0125,-2.9418,-2.8669,-2.8355,-2.7615,-2.6962,-2.6867,-2.6139,-2.5684,-2.5684,-2.5684,-2.5684,-2.5684,-2.5684,-2.5684,-2.5684,-2.5684,-2.5684,-2.5684,-2.5684,-2.5684,-2.5684,-2.5684,-2.5684,-2.5684,-2.5684,-2.5684,-2.5684,-2.5684,-2.5684,-2.5684,-2.5684,-2.5684,-2.5684,-2.5684,-2.5606,-2.5605,-2.5273,-2.4853,-2.4463,-2.4043,-2.3603,-2.332,-2.3149,-2.3101,-2.3101,-2.3101,-2.3101,-2.3101,-2.3101,-2.3101,-2.3101,-2.3101,-2.3101,-2.3101,-2.3101,-2.3101,-2.2916,-2.2599,-2.2555,-2.2589,-2.2545,-2.2369,-2.2599,-2.2457,-2.1418,-2.0458,-1.965,-1.8603,-3.438,-3.438,-3.438,-3.4266,-3.4005,-3.3355,-3.3101,-3.3195,-3.3366,-3.3621,-3.3865,-3.397,-3.4063,-3.4105,-3.4111,-3.3999,-3.3777,-3.358,-3.3388,-3.3154,-3.3687,-3.3371,-3.3445,-3.3543,-3.3138,-3.2942,-3.2477,-3.1773,-3.177,-3.1889,-3.1893,-3.191,-3.2584,-3.3037,-3.3415,-3.3885,-3.4174,-3.3861,-3.3513,-3.3032,-3.2515,-3.1985,-3.1801,-3.1641,-3.0982,-3.0847,-3.0746,-2.9988,-2.9749,-2.9383,-2.8541,-2.7934,-2.7426,-2.6274,-2.5732,-2.5684,-2.5684,-2.5684,-2.5684,-2.5684,-2.5684,-2.5674,-2.5645,-2.5684,-2.5684,-2.5684,-2.5684,-2.5684,-2.5684,-2.5684,-2.5684,-2.5684,-2.5684,-2.5684,-2.5684,-2.5684,-2.5684,-2.5684,-2.5684,-2.5684,-2.5635,-2.5605,-2.54,-2.5049,-2.4648,-2.417,-2.3789,-2.3403,-2.3198,-2.313,-2.3101,-2.3101,-2.3101,-2.3101,-2.3101,-2.3101,-2.3101,-2.3101,-2.3101,-2.3101,-2.3101,-2.3101,-2.3101,-2.3101,-2.3047,-2.3003,-2.2906,-2.296,-2.296,-2.3101,-2.3003,-2.2138,-2.1096,-2.0232,-1.9101,-3.438,-3.438,-3.438,-3.428,-3.4008,-3.3227,-3.3159,-3.3478,-3.3798,-3.3947,-3.4016,-3.4399,-3.4317,-3.4222,-3.4267,-3.3891,-3.3734,-3.3608,-3.3439,-3.2579,-3.3407,-3.3439,-3.3044,-3.2906,-3.2758,-3.1841,-3.1422,-3.1778,-3.178,-3.1987,-3.2181,-3.211,-3.298,-3.3468,-3.3579,-3.4354,-3.4667,-3.4655,-3.3979,-3.3317,-3.2647,-3.2118,-3.1777,-3.1846,-3.1769,-3.1725,-3.1733,-3.1508,-3.1282,-3.0633,-2.9886,-2.9096,-2.7568,-2.6504,-2.6052,-2.5615,-2.5586,-2.5576,-2.5518,-2.5411,-2.5411,-2.546,-2.5567,-2.543,-2.5333,-2.5606,-2.5674,-2.5684,-2.5684,-2.5684,-2.5684,-2.5684,-2.5684,-2.5684,-2.5684,-2.5684,-2.5684,-2.5654,-2.5606,-2.5567,-2.5488,-2.5371,-2.501,-2.4648,-2.4346,-2.3867,-2.3525,-2.3188,-2.313,-2.3101,-2.3101,-2.3101,-2.3101,-2.3101,-2.3101,-2.3101,-2.3101,-2.3101,-2.3101,-2.3101,-2.3101,-2.3101,-2.3101,-2.3101,-2.3101,-2.3101,-2.3047,-2.3101,-2.3101,-2.3101,-2.296,-2.2589,-2.1774,-2.0782,-1.9604,-3.438,-3.438,-3.438,-3.428,-3.4153,-3.4358,-3.4383,-3.4406,-3.4308,-3.4131,-3.396,-3.4048,-3.4236,-3.4342,-3.4385,-3.414,-3.4107,-3.3776,-3.392,-3.3651,-3.3863,-3.3433,-3.3033,-3.2897,-3.2543,-3.2102,-3.1871,-3.1933,-3.2203,-3.237,-3.2468,-3.2491,-3.3322,-3.3873,-3.3893,-3.4737,-3.5126,-3.5223,-3.4519,-3.3724,-3.3112,-3.2656,-3.2343,-3.2361,-3.2369,-3.2276,-3.218,-3.1906,-3.1677,-3.1294,-3.0543,-2.9189,-2.7379,-2.6962,-2.6418,-2.5819,-2.543,-2.5322,-2.5166,-2.5029,-2.4912,-2.4824,-2.4805,-2.4756,-2.4865,-2.5382,-2.5645,-2.5635,-2.5625,-2.5615,-2.5606,-2.5606,-2.5596,-2.5606,-2.5606,-2.5606,-2.5606,-2.5547,-2.5469,-2.54,-2.5264,-2.4971,-2.46,-2.4297,-2.3984,-2.3682,-2.3335,-2.312,-2.311,-2.3101,-2.3101,-2.3101,-2.3101,-2.3101,-2.3101,-2.3101,-2.3101,-2.3101,-2.3101,-2.3101,-2.3101,-2.3101,-2.3101,-2.3101,-2.3101,-2.3101,-2.3101,-2.3101,-2.3101,-2.3101,-2.3003,-2.2731,-2.2094,-2.1141,-1.9968,-3.438,-3.438,-3.438,-3.4329,-3.4285,-3.4516,-3.4678,-3.478,-3.462,-3.4374,-3.4032,-3.3763,-3.3721,-3.3997,-3.3997,-3.406,-3.4048,-3.3947,-3.364,-3.3658,-3.3571,-3.3326,-3.3068,-3.278,-3.2469,-3.2126,-3.2156,-3.2306,-3.2504,-3.2673,-3.2667,-3.2957,-3.3818,-3.4259,-3.4379,-3.5011,-3.544,-3.5536,-3.4889,-3.4247,-3.3538,-3.3089,-3.2547,-3.2495,-3.2341,-3.2321,-3.2212,-3.197,-3.1821,-3.1205,-3.026,-2.8912,-2.7426,-2.6648,-2.6116,-2.5612,-2.5205,-2.5037,-2.4775,-2.4551,-2.4365,-2.4336,-2.4394,-2.4502,-2.4541,-2.4923,-2.4943,-2.499,-2.4953,-2.4943,-2.4933,-2.4933,-2.4933,-2.4933,-2.4933,-2.4933,-2.4933,-2.4914,-2.4912,-2.4863,-2.4727,-2.457,-2.4258,-2.4072,-2.376,-2.3457,-2.313,-2.3101,-2.3101,-2.3101,-2.3101,-2.3101,-2.3101,-2.3101,-2.3101,-2.3101,-2.3101,-2.3101,-2.3101,-2.3101,-2.3101,-2.3101,-2.3101,-2.3101,-2.3101,-2.3101,-2.3101,-2.3101,-2.3101,-2.3101,-2.3047,-2.296,-2.2236,-2.1641,-2.0917,-3.438,-3.438,-3.438,-3.438,-3.4399,-3.4335,-3.4601,-3.4961,-3.4819,-3.462,-3.431,-3.3538,-3.3194,-3.3111,-3.3124,-3.3124,-3.3199,-3.3357,-3.3237,-3.2867,-3.2554,-3.2428,-3.2378,-3.2277,-3.2047,-3.1985,-3.2014,-3.2127,-3.2243,-3.2596,-3.3071,-3.3543,-3.3942,-3.4324,-3.4829,-3.5213,-3.5494,-3.5283,-3.4829,-3.4413,-3.3866,-3.3313,-3.2865,-3.2378,-3.2034,-3.2034,-3.2091,-3.193,-3.1829,-3.1282,-3.0351,-2.905,-2.7934,-2.7047,-2.5994,-2.552,-2.499,-2.4707,-2.4414,-2.418,-2.415,-2.418,-2.4268,-2.4268,-2.4258,-2.4258,-2.4277,-2.4316,-2.428,-2.4407,-2.4407,-2.4407,-2.4407,-2.4407,-2.4407,-2.4407,-2.4407,-2.4397,-2.4414,-2.4385,-2.4248,-2.4121,-2.3926,-2.374,-2.3545,-2.3198,-2.3101,-2.3101,-2.3101,-2.3101,-2.3101,-2.3101,-2.3101,-2.3101,-2.3101,-2.3101,-2.3101,-2.3101,-2.3101,-2.3101,-2.3101,-2.3101,-2.3101,-2.3101,-2.3101,-2.3101,-2.3101,-2.3101,-2.3101,-2.3101,-2.3047,-2.3003,-2.2775,-2.228,-2.2094,-3.438,-3.438,-3.438,-3.438,-3.4467,-3.4894,-3.522,-3.5252,-3.502,-3.4816,-3.4393,-3.3759,-3.328,-3.3111,-3.3124,-3.3086,-3.2973,-3.3011,-3.2692,-3.2365,-3.2089,-3.17,-3.1524,-3.1738,-3.1587,-3.1599,-3.1687,-3.1813,-3.2026,-3.2624,-3.3289,-3.3759,-3.424,-3.457,-3.4699,-3.5052,-3.5183,-3.4947,-3.4665,-3.4247,-3.3929,-3.3592,-3.3597,-3.3293,-3.3039,-3.3071,-3.2985,-3.2365,-3.2098,-3.1749,-3.1104,-2.9749,-2.8509,-2.7484,-2.6472,-2.5216,-2.4736,-2.4326,-2.4014,-2.3676,-2.3608,-2.353,-2.3549,-2.351,-2.35,-2.3491,-2.3539,-2.3617,-2.3754,-2.4209,-2.4277,-2.4277,-2.4277,-2.4277,-2.4277,-2.4277,-2.4277,-2.4228,-2.4189,-2.4053,-2.3877,-2.3682,-2.3393,-2.335,-2.3296,-2.3101,-2.3101,-2.3101,-2.3101,-2.3101,-2.3101,-2.3101,-2.3101,-2.3101,-2.3101,-2.3101,-2.3101,-2.3101,-2.3101,-2.3101,-2.3101,-2.3101,-2.3101,-2.3101,-2.3101,-2.3101,-2.3101,-2.3101,-2.3101,-2.3101,-2.3101,-2.3047,-2.296,-2.2775,-2.2457]},{"header":{"parameterUnit":"m.s-1","parameterCategory":1,"la1":31.0,"la2":29.5877,"lo1":-88.7671,"lo2":-86.6584,"dy":0.0162,"dx":0.0185,"nx":115,"ny":88,"refTime":"2023-08-06T00:00:00:Z","depth":0,"parameterNumber":3,"parameterNumberName":"V-component_of_WINDS"},"data":[0.0,0.0,0.0,0.0,0.0,0.0,0.0,0.0,0.0,0.0,0.0,0.0,0.0,0.0,0.0,0.0,0.0,0.0,0.0,0.0,0.0,0.0,0.0,0.0,0.0,0.0,0.0,0.0,0.0,0.0,0.0,0.0,0.0,0.0,0.0,0.0,0.0,0.0,0.0,0.0,0.0,0.0,0.0,0.0,0.0,0.0,0.0,0.0,0.0,0.0,0.0,0.0,0.0,0.0,0.0,0.0,0.0,0.0,0.0,0.0,0.0,0.0,0.0,0.0,0.0,0.0,0.0,0.0,0.0,0.0,0.0,0.0,0.0,0.0,0.0,0.0,0.0,0.0,0.0,0.0,0.0,0.0,0.0,0.0,0.0,0.0,0.0,0.0,0.0,0.0,0.0,0.0,0.0,0.0,0.0,0.0,0.0,0.0,0.0,0.0,0.0,0.0,0.0,0.0,0.0,0.0,0.0,0.0,0.0,0.0,0.0,0.0,0.0,0.0,0.0,0.0,0.0,0.0,0.0,0.0,0.0,0.0,0.0,0.0,0.0,0.0,0.0,0.0,0.0,0.0,0.0,0.0,0.0,0.0,0.0,0.0,0.0,0.0,0.0,0.0,0.0,0.0,0.0,0.0,0.0,0.0,0.0,0.0,0.0,0.0,0.0,0.0,0.0,0.0,0.0,0.0,0.0,0.0,0.0,0.0,0.0,0.0,0.0,0.0,0.0,0.0,0.0,0.0,0.0,0.0,0.0,0.0,0.0,0.0,0.0,0.0,0.0,0.0,0.0,0.0,0.0,0.0,0.0,0.0,0.0,0.0,0.0,0.0,0.0,0.0,0.0,0.0,0.0,0.0,0.0,0.0,0.0,0.0,0.0,0.0,0.0,0.0,0.0,0.0,0.0,0.0,0.0,0.0,0.0,0.0,0.0,0.0,0.0,0.0,0.0,0.0,0.0,0.0,0.0,0.0,0.0,0.0,0.0,0.0,0.0,0.0,0.0,0.0,0.0,0.0,0.0,0.0,0.0,0.0,0.0,0.0,0.0,0.0,0.0,0.0,0.0,0.0,0.0,0.0,0.0,0.0,0.0,0.0,0.0,0.0,0.0,0.0,0.0,0.0,0.0,0.0,0.0,0.0,0.0,0.0,0.0,0.0,0.0,0.0,0.0,0.0,0.0,0.0,0.0,0.0,0.0,0.0,0.0,0.0,0.0,0.0,0.0,0.0,0.0,0.0,0.0,0.0,0.0,0.0,0.0,0.0,0.0,0.0,0.0,0.0,0.0,0.0,0.0,0.0,0.0,0.0,0.0,0.0,0.0,0.0,0.0,0.0,0.0,0.0,0.0,0.0,0.0,0.0,0.0,0.0,0.0,0.0,0.0,0.0,0.0,0.0,0.0,0.0,0.0,0.0,0.0,0.0,0.0,0.0,0.0,0.0,0.0,0.0,0.0,0.0,0.0,0.0,0.0,0.0,0.0,0.0,0.0,0.0,0.0,0.0,0.0,0.0,0.0,0.0,0.0,0.0,0.0,0.0,0.0,0.0,0.0,0.0,0.0,0.0,0.0,0.0,0.0,0.0,0.0,0.0,0.0,0.0,0.0,0.0,0.0,0.0,0.0,0.0,0.0,0.0,0.0,0.0,0.0,0.0,0.0,0.0,0.0,0.0,0.0,0.0,0.0,0.0,0.0,0.0,0.0,0.0,0.0,0.0,0.0,0.0,0.0,0.0,0.0,0.0,0.0,0.0,0.0,0.0,0.0,0.0,0.0,0.0,0.0,0.0,0.0,0.0,0.0,0.0,0.0,0.0,0.0,0.0,0.0,0.0,0.0,0.0,0.0,0.0,0.0,0.0,0.0,0.0,0.0,0.0,0.0,0.0,0.0,0.0,0.0,0.0,0.0,0.0,0.0,0.0,0.0,0.0,0.0,0.0,0.0,0.0,0.0,0.0,0.0,0.0,0.0,0.0,0.0,0.0,0.0,0.0,0.0,0.0,0.0,0.0,0.0,0.0,0.0,0.0,0.0,0.0,0.0,0.0,0.0,0.0,0.0,0.0,0.0,0.0,0.0,0.0,0.0,0.0,0.0,0.0,0.0,0.0,0.0,0.0,0.0,0.0,0.0,0.0,0.0,0.0,0.0,0.0,0.0,0.0,0.0,0.0,0.0,0.0,0.0,0.0,0.0,0.0,0.0,0.0,0.0,0.0,0.0,0.0,0.0,0.0,0.0,0.0,0.0,0.0,0.0,0.0,0.0,0.0,0.0,0.0,0.0,0.0,0.0,0.0,0.0,0.0,0.0,0.0,0.0,0.0,0.0,0.0,0.0,0.0,0.0,0.0,0.0,0.0,0.0,0.0,0.0,0.0,0.0,0.0,0.0,0.0,0.0,0.0,0.0,0.0,0.0,0.0,0.0,0.0,0.0,0.0,0.0,0.0,0.0,0.0,0.0,0.0,0.0,0.0,0.0,0.0,0.0,0.0,0.0,0.0,0.0,0.0,0.0,0.0,0.0,0.0,0.0,0.0,0.0,0.0,0.0,0.0,0.0,0.0,0.0,0.0,0.0,0.0,0.0,0.0,0.0,0.0,0.0,0.0,0.0,0.0,0.0,0.0,0.0,0.0,0.0,0.0,0.0,0.0,0.0,0.0,0.0,0.0,0.0,0.0,0.0,0.0,0.0,0.0,0.0,0.0,0.0,0.0,0.0,0.0,0.0,0.0,0.0,0.0,0.0,0.0,0.0,0.0,0.0,0.0,0.0,0.0,0.0,0.0,0.0,0.0,0.0,0.0,0.0,0.0,0.0,0.0,0.0,0.0,0.0,0.0,0.0,0.0,0.0,0.0,0.0,0.0,0.0,0.0,0.0,0.0,0.0,0.0,0.0,0.0,0.0,0.0,0.0,0.0,0.0,0.0,0.0,0.0,0.0,0.0,0.0,0.0,0.0,0.0,0.0,0.0,0.0,0.0,0.0,0.0,0.0,0.0,0.0,0.0,0.0,0.0,0.0,0.0,0.0,0.0,0.0,0.0,0.0,0.0,0.0,0.0,0.0,0.0,0.0,0.0,0.0,0.0,0.0,0.0,0.0,0.0,0.0,0.0,0.0,0.0,0.0,0.0,0.0,0.0,0.0,0.0,0.0,0.0,0.0,0.0,0.0,0.0,0.0,0.0,0.0,0.0,0.0,0.0,0.0,0.0,0.0,0.0,0.0,0.0,0.0,0.0,0.0,0.0,0.0,0.0,0.0,0.0,0.0,0.0,0.0,0.0,0.0,0.0,0.0,0.0,0.0,0.0,0.0,0.0,0.0,0.0,0.0,0.0,0.0,0.0,0.0,0.0,0.0,0.0,0.0,0.0,0.0,0.0,0.0,0.0,0.0,0.0,0.0,0.0,0.0,0.0,0.0,0.0,0.0,0.0,0.0,0.0,0.0,0.0,0.0,0.0,0.0,0.0,0.0,0.0,0.0,0.0,0.0,0.0,0.0,0.0,0.0,0.0,0.0,0.0,0.0,0.0,0.0,0.0,0.0,0.0,0.0,0.0,0.0,0.0,0.0,0.0,0.0,0.0,0.0,0.0,0.0,0.0,0.0,0.0,0.0,0.0,0.0,0.0,0.0,0.0,0.0,0.0,0.0,0.0,0.0,0.0,0.0,0.0,0.0,0.0,0.0,0.0,0.0,0.0,0.0,0.0,0.0,0.0,0.0,0.0,0.0,0.0,0.0,0.0,0.0,0.0,0.0,0.0,0.0,0.0,0.0,0.0,0.0,0.0,0.0,0.0,0.0,0.0,0.0,0.0,0.0,0.0,0.0,0.0,0.0,0.0,0.0,0.0,0.0,0.0,0.0,0.0,0.0,0.0,0.0,0.0,0.0,0.0,0.0,0.0,0.0,0.0,0.0,0.0,0.0,0.0,0.0,0.0,0.0,0.0,0.0,0.0,0.0,0.0,0.0,0.0,0.0,0.0,0.0,0.0,0.0,0.0,0.0,0.0,0.0,0.0,0.0,0.0,0.0,0.0,0.0,0.0,0.0,0.0,0.0,0.0,0.0,0.0,0.0,0.0,0.0,0.0,0.0,0.0,0.0,0.0,0.0,0.0,0.0,0.0,0.0,0.0,0.0,0.0,0.0,0.0,0.0,0.0,0.0,0.0,0.0,0.0,0.0,0.0,0.0,0.0,0.0,0.0,0.0,0.0,0.0,0.0,0.0,0.0,0.0,0.0,0.0,0.0,0.0,0.0,0.0,0.0,0.0,0.0,0.0,0.0,-1.9097,0.0,0.0,0.0,0.0,0.0,0.0,0.0,0.0,0.0,0.0,0.0,0.0,0.0,0.0,0.0,0.0,0.0,0.0,0.0,0.0,0.0,0.0,0.0,0.0,0.0,0.0,0.0,0.0,0.0,0.0,0.0,0.0,0.0,0.0,0.0,0.0,0.0,0.0,0.0,0.0,0.0,0.0,0.0,0.0,0.0,0.0,0.0,0.0,0.0,0.0,0.0,0.0,0.0,0.0,0.0,0.0,0.0,0.0,0.0,0.0,0.0,0.0,0.0,0.0,0.0,0.0,0.0,0.0,0.0,0.0,0.0,0.0,0.0,0.0,0.0,0.0,0.0,0.0,0.0,0.0,0.0,0.0,0.0,0.0,0.0,0.0,0.0,0.0,0.0,0.0,0.0,0.0,0.0,0.0,0.0,0.0,0.0,0.0,0.0,0.0,0.0,0.0,0.0,0.0,0.0,0.0,0.0,0.0,0.0,0.0,-1.9446,-1.9302,-1.9288,-1.9246,-1.9101,0.0,0.0,0.0,0.0,0.0,0.0,0.0,0.0,0.0,0.0,0.0,0.0,0.0,0.0,0.0,0.0,0.0,0.0,0.0,0.0,0.0,0.0,0.0,0.0,0.0,0.0,0.0,0.0,0.0,0.0,0.0,0.0,0.0,0.0,0.0,0.0,0.0,0.0,0.0,0.0,0.0,0.0,0.0,0.0,0.0,0.0,0.0,0.0,0.0,0.0,0.0,0.0,0.0,0.0,0.0,0.0,0.0,0.0,0.0,0.0,0.0,0.0,0.0,0.0,0.0,0.0,0.0,0.0,0.0,0.0,0.0,0.0,0.0,0.0,0.0,0.0,0.0,0.0,0.0,0.0,0.0,0.0,0.0,0.0,0.0,0.0,0.0,0.0,0.0,0.0,0.0,0.0,0.0,0.0,0.0,0.0,0.0,0.0,0.0,0.0,0.0,0.0,0.0,0.0,0.0,0.0,0.0,0.0,0.0,0.0,0.0,0.0,-1.9376,-1.9361,-1.9409,0.0,0.0,0.0,0.0,0.0,0.0,0.0,0.0,0.0,0.0,0.0,0.0,0.0,0.0,0.0,0.0,0.0,0.0,0.0,0.0,0.0,0.0,0.0,0.0,0.0,0.0,0.0,0.0,0.0,0.0,0.0,0.0,0.0,0.0,0.0,0.0,0.0,0.0,0.0,0.0,0.0,0.0,0.0,0.0,0.0,0.0,0.0,0.0,0.0,0.0,0.0,0.0,0.0,0.0,0.0,0.0,0.0,0.0,0.0,0.0,0.0,0.0,0.0,0.0,0.0,0.0,0.0,0.0,0.0,0.0,0.0,0.0,0.0,0.0,0.0,0.0,0.0,0.0,0.0,0.0,0.0,0.0,0.0,0.0,0.0,0.0,0.0,0.0,0.0,0.0,0.0,0.0,0.0,0.0,0.0,0.0,0.0,0.0,0.0,0.0,0.0,0.0,0.0,0.0,0.0,0.0,0.0,0.0,0.0,0.0,-1.965,-1.9574,-1.9589,0.0,-2.0239,0.0,0.0,0.0,0.0,0.0,0.0,0.0,0.0,0.0,0.0,0.0,0.0,0.0,0.0,0.0,0.0,0.0,0.0,0.0,0.0,0.0,0.0,0.0,0.0,0.0,0.0,0.0,0.0,0.0,0.0,0.0,0.0,0.0,0.0,0.0,0.0,0.0,0.0,0.0,0.0,0.0,0.0,0.0,0.0,0.0,0.0,0.0,0.0,0.0,0.0,0.0,0.0,0.0,0.0,0.0,0.0,0.0,0.0,0.0,0.0,0.0,0.0,0.0,0.0,0.0,0.0,0.0,0.0,0.0,0.0,0.0,0.0,0.0,0.0,0.0,0.0,0.0,0.0,0.0,0.0,0.0,0.0,0.0,0.0,0.0,0.0,0.0,0.0,0.0,0.0,0.0,0.0,0.0,0.0,0.0,0.0,0.0,0.0,0.0,0.0,0.0,0.0,0.0,0.0,0.0,0.0,0.0,0.0,0.0,0.0,-1.9687,-1.9593,-1.9909,-2.0178,0.0,0.0,0.0,0.0,0.0,0.0,0.0,0.0,0.0,0.0,0.0,0.0,0.0,0.0,0.0,0.0,0.0,0.0,0.0,0.0,0.0,0.0,0.0,0.0,0.0,0.0,0.0,0.0,0.0,0.0,0.0,0.0,0.0,0.0,0.0,0.0,0.0,0.0,0.0,0.0,0.0,0.0,0.0,0.0,0.0,0.0,0.0,0.0,0.0,0.0,0.0,0.0,0.0,0.0,0.0,0.0,0.0,0.0,0.0,0.0,0.0,0.0,0.0,0.0,0.0,0.0,0.0,0.0,0.0,0.0,0.0,0.0,0.0,0.0,0.0,0.0,0.0,0.0,0.0,0.0,0.0,0.0,0.0,0.0,0.0,0.0,0.0,0.0,0.0,0.0,0.0,0.0,0.0,0.0,0.0,0.0,0.0,0.0,0.0,0.0,0.0,0.0,0.0,0.0,0.0,0.0,0.0,0.0,0.0,0.0,-1.9723,-1.9761,-1.9927,-2.0268,-2.066,-2.102,0.0,0.0,0.0,0.0,0.0,0.0,0.0,0.0,0.0,0.0,0.0,0.0,0.0,0.0,0.0,0.0,0.0,0.0,0.0,0.0,0.0,0.0,0.0,0.0,0.0,0.0,0.0,0.0,0.0,0.0,0.0,0.0,0.0,0.0,0.0,0.0,0.0,0.0,0.0,0.0,0.0,0.0,0.0,0.0,0.0,0.0,0.0,0.0,0.0,0.0,0.0,0.0,0.0,0.0,0.0,0.0,0.0,0.0,0.0,0.0,0.0,0.0,0.0,0.0,0.0,0.0,0.0,0.0,0.0,0.0,0.0,0.0,0.0,0.0,0.0,0.0,0.0,0.0,0.0,0.0,0.0,0.0,0.0,0.0,0.0,0.0,0.0,0.0,0.0,0.0,0.0,0.0,0.0,0.0,0.0,0.0,0.0,0.0,0.0,0.0,0.0,0.0,0.0,0.0,0.0,0.0,0.0,0.0,-1.9723,-1.9723,-2.0004,-2.0628,-2.0673,-2.1286,0.0,0.0,0.0,0.0,0.0,0.0,0.0,0.0,0.0,0.0,0.0,0.0,0.0,0.0,0.0,0.0,0.0,0.0,0.0,0.0,0.0,0.0,0.0,0.0,0.0,0.0,0.0,0.0,0.0,0.0,0.0,0.0,0.0,0.0,0.0,0.0,0.0,0.0,0.0,0.0,0.0,0.0,0.0,0.0,0.0,0.0,0.0,0.0,0.0,0.0,0.0,0.0,0.0,0.0,0.0,0.0,0.0,0.0,0.0,0.0,0.0,0.0,0.0,0.0,0.0,0.0,0.0,0.0,0.0,0.0,0.0,0.0,0.0,0.0,0.0,0.0,0.0,0.0,0.0,0.0,0.0,0.0,0.0,0.0,0.0,0.0,0.0,0.0,0.0,0.0,0.0,0.0,0.0,0.0,0.0,0.0,0.0,0.0,0.0,0.0,0.0,0.0,0.0,0.0,0.0,0.0,0.0,0.0,0.0,-1.9723,-2.0124,-2.0662,-2.1306,-2.1739,-2.2224,0.0,0.0,0.0,0.0,0.0,0.0,0.0,0.0,0.0,0.0,0.0,0.0,0.0,0.0,0.0,0.0,0.0,0.0,0.0,0.0,0.0,0.0,0.0,0.0,0.0,0.0,0.0,0.0,0.0,0.0,0.0,0.0,0.0,0.0,0.0,0.0,0.0,0.0,0.0,0.0,0.0,0.0,0.0,0.0,0.0,0.0,0.0,0.0,0.0,0.0,0.0,0.0,0.0,0.0,0.0,0.0,0.0,0.0,0.0,0.0,0.0,0.0,0.0,0.0,0.0,0.0,0.0,0.0,0.0,0.0,0.0,0.0,0.0,0.0,0.0,0.0,0.0,0.0,0.0,0.0,0.0,0.0,0.0,0.0,0.0,0.0,0.0,0.0,0.0,0.0,0.0,0.0,0.0,0.0,0.0,0.0,0.0,0.0,0.0,0.0,0.0,0.0,0.0,0.0,0.0,0.0,0.0,0.0,0.0,-2.0034,0.0,-2.1335,-2.1994,-2.2463,-2.2793,0.0,0.0,0.0,0.0,0.0,0.0,0.0,0.0,0.0,0.0,0.0,0.0,0.0,0.0,0.0,0.0,0.0,0.0,0.0,0.0,0.0,0.0,0.0,0.0,0.0,0.0,0.0,0.0,0.0,0.0,0.0,0.0,0.0,0.0,0.0,0.0,0.0,0.0,0.0,0.0,0.0,0.0,0.0,0.0,0.0,0.0,0.0,0.0,0.0,0.0,0.0,0.0,0.0,0.0,0.0,0.0,0.0,0.0,0.0,0.0,0.0,0.0,0.0,0.0,0.0,0.0,0.0,0.0,0.0,0.0,0.0,0.0,0.0,0.0,0.0,0.0,0.0,0.0,0.0,0.0,0.0,0.0,0.0,0.0,0.0,0.0,0.0,0.0,0.0,0.0,0.0,0.0,0.0,0.0,0.0,0.0,0.0,0.0,0.0,0.0,0.0,0.0,0.0,0.0,0.0,0.0,0.0,0.0,-2.0079,-2.0737,-2.1365,-2.2029,-2.2673,-2.2718,-2.3002,0.0,0.0,0.0,0.0,0.0,0.0,0.0,0.0,0.0,0.0,0.0,0.0,0.0,0.0,0.0,0.0,0.0,0.0,0.0,0.0,0.0,0.0,0.0,0.0,0.0,0.0,0.0,0.0,0.0,0.0,0.0,0.0,0.0,0.0,0.0,0.0,0.0,0.0,0.0,0.0,0.0,0.0,0.0,0.0,0.0,0.0,0.0,0.0,0.0,0.0,0.0,0.0,0.0,0.0,0.0,0.0,0.0,0.0,0.0,0.0,0.0,0.0,0.0,0.0,0.0,0.0,0.0,0.0,0.0,0.0,0.0,0.0,0.0,0.0,0.0,0.0,0.0,0.0,0.0,0.0,0.0,0.0,0.0,0.0,0.0,0.0,0.0,0.0,0.0,0.0,0.0,0.0,0.0,0.0,0.0,0.0,0.0,0.0,0.0,0.0,0.0,0.0,0.0,0.0,0.0,0.0,0.0,0.0,0.0,-2.2074,-2.2283,-2.2703,-2.3281,-2.3332,-2.34,0.0,0.0,0.0,0.0,0.0,0.0,0.0,0.0,0.0,0.0,0.0,0.0,0.0,0.0,0.0,0.0,0.0,0.0,0.0,0.0,0.0,0.0,0.0,0.0,0.0,0.0,0.0,0.0,0.0,0.0,0.0,0.0,0.0,0.0,0.0,0.0,0.0,0.0,0.0,0.0,0.0,0.0,0.0,0.0,0.0,0.0,0.0,0.0,0.0,0.0,0.0,0.0,0.0,0.0,0.0,0.0,0.0,0.0,0.0,0.0,0.0,0.0,0.0,0.0,0.0,0.0,0.0,0.0,0.0,0.0,0.0,0.0,0.0,0.0,0.0,0.0,0.0,0.0,0.0,0.0,0.0,0.0,0.0,0.0,0.0,0.0,0.0,0.0,0.0,0.0,0.0,0.0,0.0,0.0,0.0,0.0,0.0,0.0,0.0,0.0,0.0,0.0,0.0,0.0,0.0,0.0,0.0,0.0,0.0,-2.3017,-2.3032,-2.3206,-2.3595,-2.3595,-2.3595,-2.3595,0.0,0.0,0.0,0.0,0.0,0.0,0.0,0.0,0.0,0.0,0.0,0.0,0.0,0.0,0.0,0.0,0.0,0.0,0.0,0.0,0.0,0.0,0.0,0.0,0.0,0.0,0.0,0.0,0.0,0.0,0.0,0.0,0.0,0.0,0.0,0.0,0.0,0.0,0.0,0.0,0.0,0.0,0.0,0.0,0.0,0.0,0.0,0.0,0.0,0.0,0.0,0.0,0.0,0.0,0.0,0.0,0.0,0.0,0.0,0.0,0.0,0.0,0.0,0.0,0.0,0.0,0.0,0.0,0.0,0.0,0.0,0.0,0.0,0.0,0.0,0.0,0.0,0.0,0.0,0.0,0.0,0.0,0.0,0.0,0.0,0.0,0.0,0.0,0.0,0.0,0.0,0.0,0.0,0.0,0.0,0.0,0.0,0.0,0.0,0.0,0.0,0.0,0.0,0.0,0.0,0.0,0.0,0.0,-2.3558,-2.3573,-2.3595,-2.3595,-2.3595,-2.3595,0.0,0.0,0.0,0.0,0.0,0.0,0.0,0.0,0.0,0.0,0.0,0.0,0.0,0.0,0.0,0.0,0.0,0.0,0.0,0.0,0.0,0.0,0.0,0.0,0.0,0.0,0.0,0.0,0.0,0.0,0.0,0.0,0.0,0.0,0.0,0.0,0.0,0.0,0.0,0.0,0.0,0.0,0.0,0.0,0.0,0.0,0.0,0.0,0.0,0.0,0.0,0.0,0.0,0.0,0.0,0.0,0.0,0.0,0.0,0.0,0.0,0.0,0.0,0.0,0.0,0.0,0.0,0.0,0.0,0.0,0.0,0.0,0.0,0.0,0.0,0.0,0.0,0.0,0.0,0.0,0.0,0.0,0.0,0.0,0.0,0.0,0.0,0.0,0.0,0.0,0.0,0.0,0.0,0.0,0.0,0.0,0.0,0.0,0.0,0.0,0.0,0.0,0.0,0.0,0.0,0.0,0.0,0.0,0.0,-2.3098,-2.3436,-2.3595,-2.3595,-2.3595,-2.3595,0.0,0.0,0.0,0.0,0.0,0.0,0.0,0.0,0.0,0.0,0.0,0.0,0.0,0.0,0.0,0.0,0.0,0.0,0.0,0.0,0.0,0.0,0.0,0.0,0.0,0.0,0.0,0.0,0.0,0.0,0.0,0.0,0.0,0.0,0.0,0.0,0.0,0.0,0.0,0.0,0.0,0.0,0.0,0.0,0.0,0.0,0.0,0.0,0.0,0.0,0.0,0.0,0.0,0.0,0.0,0.0,0.0,0.0,0.0,0.0,0.0,0.0,0.0,0.0,0.0,0.0,0.0,0.0,0.0,0.0,0.0,0.0,0.0,0.0,0.0,0.0,0.0,0.0,0.0,0.0,0.0,0.0,0.0,0.0,0.0,0.0,0.0,0.0,0.0,0.0,0.0,0.0,0.0,0.0,0.0,0.0,0.0,0.0,0.0,0.0,0.0,0.0,0.0,0.0,0.0,0.0,0.0,0.0,-2.3458,-2.2912,-2.3179,-2.3297,-2.3312,-2.3486,-2.3595,0.0,0.0,0.0,0.0,0.0,0.0,0.0,0.0,0.0,0.0,0.0,0.0,0.0,0.0,0.0,0.0,0.0,0.0,0.0,0.0,0.0,0.0,0.0,0.0,0.0,0.0,0.0,0.0,0.0,0.0,0.0,0.0,0.0,0.0,0.0,0.0,0.0,0.0,0.0,0.0,0.0,0.0,0.0,0.0,0.0,0.0,0.0,0.0,0.0,0.0,0.0,0.0,0.0,0.0,0.0,0.0,0.0,0.0,0.0,0.0,0.0,0.0,0.0,0.0,0.0,0.0,0.0,0.0,0.0,0.0,0.0,0.0,0.0,0.0,0.0,0.0,0.0,0.0,0.0,0.0,0.0,0.0,0.0,0.0,0.0,0.0,0.0,0.0,0.0,0.0,0.0,0.0,0.0,0.0,0.0,0.0,0.0,0.0,0.0,0.0,0.0,0.0,0.0,0.0,0.0,0.0,0.0,0.0,-2.329,-2.2807,-2.2881,-2.2867,-2.283,-2.329,-2.3551,0.0,0.0,0.0,0.0,0.0,0.0,0.0,0.0,0.0,0.0,0.0,0.0,0.0,0.0,0.0,0.0,0.0,0.0,0.0,0.0,0.0,0.0,0.0,0.0,0.0,0.0,0.0,0.0,0.0,0.0,0.0,0.0,0.0,0.0,0.0,0.0,0.0,0.0,0.0,0.0,0.0,0.0,0.0,0.0,0.0,0.0,0.0,0.0,0.0,0.0,0.0,0.0,0.0,0.0,0.0,0.0,0.0,0.0,0.0,0.0,0.0,0.0,0.0,0.0,0.0,0.0,0.0,0.0,0.0,0.0,0.0,0.0,0.0,0.0,0.0,0.0,0.0,0.0,0.0,0.0,0.0,0.0,0.0,0.0,0.0,0.0,0.0,0.0,0.0,0.0,0.0,0.0,0.0,0.0,0.0,0.0,0.0,0.0,0.0,0.0,0.0,0.0,0.0,0.0,0.0,0.0,0.0,0.0,-2.2807,-2.2291,-2.2686,-2.2694,-2.2291,-2.2762,-2.3209,0.0,0.0,0.0,0.0,0.0,0.0,0.0,0.0,0.0,0.0,0.0,0.0,0.0,0.0,0.0,0.0,0.0,0.0,0.0,0.0,0.0,0.0,0.0,0.0,0.0,0.0,0.0,0.0,0.0,0.0,0.0,0.0,0.0,0.0,0.0,0.0,0.0,0.0,0.0,0.0,0.0,0.0,0.0,0.0,0.0,0.0,0.0,0.0,-2.4219,0.0,0.0,0.0,0.0,0.0,0.0,0.0,0.0,0.0,0.0,0.0,0.0,0.0,0.0,0.0,0.0,0.0,0.0,0.0,0.0,0.0,0.0,0.0,0.0,0.0,0.0,0.0,0.0,0.0,0.0,0.0,0.0,0.0,0.0,0.0,0.0,0.0,0.0,0.0,0.0,0.0,0.0,0.0,0.0,0.0,0.0,0.0,0.0,0.0,0.0,0.0,0.0,0.0,0.0,0.0,0.0,0.0,0.0,0.0,-2.2626,-2.2128,-2.2165,-2.2165,-2.2105,-2.2374,-2.2875,0.0,0.0,0.0,0.0,0.0,0.0,0.0,0.0,0.0,0.0,0.0,0.0,0.0,0.0,0.0,0.0,0.0,0.0,0.0,0.0,0.0,0.0,0.0,0.0,0.0,0.0,0.0,0.0,0.0,0.0,0.0,0.0,0.0,0.0,0.0,0.0,0.0,0.0,0.0,0.0,0.0,0.0,0.0,0.0,0.0,0.0,0.0,0.0,0.0,0.0,0.0,0.0,0.0,0.0,0.0,0.0,0.0,0.0,0.0,0.0,0.0,0.0,0.0,0.0,0.0,0.0,0.0,0.0,0.0,0.0,0.0,0.0,0.0,0.0,0.0,0.0,0.0,0.0,0.0,0.0,0.0,0.0,0.0,0.0,0.0,0.0,0.0,0.0,0.0,0.0,0.0,0.0,0.0,0.0,0.0,0.0,0.0,0.0,0.0,0.0,0.0,0.0,0.0,0.0,0.0,0.0,0.0,-2.315,-2.2535,-2.2175,-2.166,-2.166,-2.2198,-2.2221,-2.2657,-2.3551,0.0,0.0,0.0,0.0,0.0,0.0,0.0,0.0,0.0,0.0,0.0,0.0,0.0,0.0,0.0,0.0,0.0,0.0,0.0,0.0,0.0,0.0,0.0,0.0,0.0,0.0,0.0,0.0,0.0,0.0,0.0,0.0,0.0,0.0,0.0,0.0,0.0,0.0,-2.3839,-2.4024,0.0,0.0,0.0,0.0,0.0,0.0,0.0,0.0,-2.4347,0.0,0.0,0.0,0.0,0.0,0.0,0.0,0.0,0.0,0.0,0.0,0.0,0.0,0.0,0.0,0.0,0.0,0.0,0.0,0.0,0.0,0.0,0.0,0.0,0.0,0.0,0.0,0.0,0.0,0.0,0.0,0.0,0.0,0.0,0.0,0.0,0.0,0.0,0.0,0.0,0.0,0.0,0.0,0.0,0.0,0.0,0.0,0.0,0.0,0.0,0.0,0.0,0.0,0.0,0.0,0.0,-2.3668,-2.2535,-2.2133,-2.242,-2.1756,-2.1827,-2.2731,-2.2762,-2.3031,-2.3551,0.0,0.0,0.0,0.0,0.0,0.0,0.0,0.0,0.0,0.0,0.0,0.0,0.0,0.0,0.0,0.0,0.0,0.0,0.0,0.0,0.0,0.0,0.0,0.0,0.0,0.0,0.0,0.0,0.0,0.0,0.0,0.0,0.0,0.0,0.0,0.0,0.0,0.0,0.0,-2.4003,-2.431,0.0,0.0,0.0,0.0,0.0,0.0,0.0,0.0,-2.5121,0.0,0.0,0.0,0.0,0.0,0.0,0.0,0.0,0.0,0.0,0.0,0.0,0.0,0.0,0.0,0.0,0.0,0.0,0.0,0.0,0.0,0.0,0.0,0.0,0.0,0.0,0.0,0.0,0.0,0.0,0.0,0.0,0.0,0.0,0.0,0.0,0.0,0.0,0.0,0.0,0.0,0.0,0.0,0.0,0.0,0.0,0.0,0.0,0.0,0.0,0.0,0.0,0.0,0.0,0.0,-2.428,-2.3161,-2.2489,-2.2282,-2.1708,-2.1746,-2.2452,-2.2754,-2.3135,0.0,0.0,0.0,0.0,0.0,0.0,0.0,0.0,0.0,0.0,0.0,0.0,0.0,0.0,0.0,0.0,0.0,0.0,0.0,0.0,0.0,0.0,0.0,0.0,0.0,0.0,0.0,0.0,0.0,0.0,0.0,0.0,0.0,0.0,0.0,0.0,0.0,0.0,0.0,0.0,-2.4172,-2.4575,-2.5608,0.0,0.0,0.0,0.0,0.0,0.0,-2.5096,-2.5542,0.0,0.0,0.0,0.0,0.0,0.0,0.0,0.0,0.0,0.0,0.0,0.0,0.0,0.0,0.0,0.0,0.0,0.0,0.0,0.0,0.0,0.0,0.0,0.0,0.0,0.0,0.0,0.0,0.0,0.0,0.0,0.0,0.0,0.0,0.0,0.0,0.0,0.0,0.0,0.0,0.0,0.0,0.0,0.0,0.0,0.0,0.0,0.0,0.0,0.0,0.0,0.0,0.0,0.0,0.0,-2.494,-2.3818,-2.2965,-2.2411,-2.1898,-2.1953,-2.2628,-2.2987,-2.3489,0.0,0.0,0.0,0.0,0.0,0.0,0.0,0.0,0.0,0.0,0.0,0.0,0.0,0.0,0.0,0.0,0.0,0.0,0.0,0.0,0.0,0.0,0.0,0.0,0.0,0.0,0.0,0.0,0.0,0.0,0.0,0.0,0.0,0.0,0.0,0.0,0.0,0.0,0.0,0.0,0.0,-2.4943,-2.6142,-2.5995,0.0,0.0,0.0,0.0,-2.5527,-2.5641,0.0,0.0,0.0,0.0,0.0,0.0,0.0,0.0,0.0,0.0,0.0,0.0,0.0,0.0,0.0,0.0,0.0,0.0,0.0,0.0,0.0,0.0,0.0,0.0,0.0,0.0,0.0,0.0,0.0,0.0,0.0,0.0,0.0,0.0,0.0,0.0,0.0,0.0,0.0,0.0,0.0,0.0,0.0,0.0,0.0,0.0,0.0,0.0,0.0,0.0,0.0,0.0,0.0,0.0,0.0,0.0,-2.4784,-2.3576,-2.3119,-2.3363,-2.274,-2.3037,-2.441,-2.4153,-2.4473,0.0,0.0,0.0,0.0,0.0,0.0,0.0,0.0,0.0,0.0,0.0,0.0,0.0,0.0,0.0,0.0,0.0,0.0,0.0,0.0,0.0,0.0,0.0,0.0,0.0,0.0,0.0,0.0,0.0,0.0,0.0,0.0,0.0,0.0,0.0,0.0,0.0,0.0,0.0,0.0,0.0,-2.5465,-2.6272,-2.6842,-2.718,0.0,0.0,-2.6949,-2.6349,-2.6765,0.0,0.0,0.0,0.0,0.0,0.0,0.0,0.0,0.0,0.0,0.0,0.0,0.0,0.0,0.0,0.0,0.0,0.0,0.0,0.0,0.0,0.0,0.0,0.0,0.0,0.0,0.0,0.0,0.0,0.0,0.0,0.0,0.0,0.0,0.0,0.0,0.0,0.0,0.0,0.0,0.0,0.0,0.0,0.0,0.0,0.0,0.0,0.0,0.0,0.0,0.0,0.0,0.0,0.0,0.0,-2.5673,-2.5553,-2.476,-2.442,-2.4535,-2.4259,-2.4382,-2.4957,-2.5035,-2.5332,0.0,0.0,0.0,0.0,0.0,0.0,0.0,0.0,0.0,0.0,0.0,0.0,0.0,0.0,0.0,0.0,0.0,0.0,0.0,0.0,0.0,0.0,0.0,0.0,0.0,0.0,0.0,0.0,0.0,0.0,0.0,0.0,0.0,0.0,0.0,0.0,0.0,0.0,0.0,0.0,0.0,0.0,-2.6211,-2.6588,0.0,0.0,0.0,-2.7303,-2.6995,0.0,0.0,0.0,0.0,0.0,0.0,0.0,0.0,0.0,0.0,0.0,0.0,0.0,0.0,0.0,0.0,0.0,0.0,0.0,0.0,0.0,0.0,0.0,0.0,0.0,0.0,0.0,0.0,0.0,0.0,0.0,0.0,0.0,0.0,0.0,0.0,0.0,0.0,0.0,0.0,0.0,0.0,0.0,0.0,0.0,0.0,0.0,0.0,0.0,0.0,0.0,0.0,0.0,0.0,0.0,0.0,0.0,-2.6229,-2.5863,-2.5616,-2.5561,-2.5576,-2.558,-2.5586,-2.5957,0.0,0.0,0.0,0.0,0.0,0.0,0.0,0.0,0.0,0.0,0.0,0.0,0.0,0.0,0.0,0.0,0.0,0.0,0.0,0.0,0.0,0.0,0.0,0.0,0.0,0.0,0.0,-2.4371,0.0,0.0,0.0,0.0,0.0,0.0,0.0,0.0,0.0,0.0,0.0,0.0,0.0,0.0,-2.5173,-2.6173,-2.6603,-2.6834,0.0,0.0,-2.7642,-2.7657,-2.7657,-2.785,0.0,0.0,0.0,0.0,0.0,0.0,0.0,0.0,0.0,0.0,0.0,0.0,0.0,0.0,0.0,0.0,0.0,0.0,0.0,0.0,0.0,0.0,0.0,0.0,0.0,0.0,0.0,0.0,0.0,0.0,0.0,0.0,0.0,0.0,0.0,0.0,0.0,0.0,0.0,0.0,0.0,0.0,0.0,0.0,0.0,0.0,0.0,0.0,0.0,0.0,0.0,0.0,0.0,0.0,-2.6402,-2.638,-2.6357,-2.6366,-2.6312,-2.6335,-2.6489,-2.6879,-2.7037,-2.764,0.0,0.0,0.0,0.0,0.0,0.0,0.0,0.0,0.0,0.0,0.0,0.0,0.0,0.0,0.0,0.0,0.0,0.0,0.0,0.0,0.0,0.0,0.0,0.0,0.0,0.0,0.0,0.0,0.0,0.0,0.0,0.0,0.0,0.0,0.0,0.0,0.0,0.0,0.0,0.0,0.0,-2.6272,-2.6296,-2.7403,-2.8258,0.0,-2.8304,-2.835,-2.8334,-2.8334,-2.8422,-2.8653,0.0,0.0,0.0,0.0,0.0,0.0,0.0,0.0,0.0,0.0,0.0,0.0,0.0,0.0,0.0,0.0,0.0,0.0,0.0,0.0,0.0,0.0,0.0,0.0,0.0,0.0,0.0,0.0,0.0,0.0,0.0,0.0,0.0,0.0,0.0,0.0,0.0,0.0,0.0,0.0,0.0,0.0,0.0,0.0,0.0,0.0,0.0,0.0,0.0,0.0,0.0,0.0,0.0,-2.6149,-2.6995,-2.7426,-2.7827,-2.8242,-2.8658,-2.8882,-2.8951,-2.9042,-2.9287,0.0,0.0,0.0,0.0,0.0,0.0,0.0,0.0,0.0,0.0,0.0,0.0,0.0,0.0,0.0,0.0,0.0,0.0,0.0,0.0,0.0,0.0,0.0,0.0,0.0,0.0,0.0,0.0,-2.5573,-2.5687,-2.5933,0.0,0.0,0.0,0.0,0.0,0.0,0.0,0.0,0.0,0.0,-2.7149,-2.7541,-2.7703,0.0,0.0,-2.8134,-2.8411,-2.8411,-2.8411,-2.8647,-2.9285,-2.9444,0.0,0.0,0.0,0.0,0.0,0.0,0.0,0.0,0.0,0.0,0.0,0.0,0.0,0.0,0.0,0.0,0.0,0.0,0.0,0.0,0.0,0.0,0.0,0.0,0.0,0.0,0.0,0.0,0.0,0.0,0.0,0.0,0.0,0.0,0.0,0.0,0.0,0.0,0.0,0.0,0.0,0.0,0.0,0.0,0.0,0.0,0.0,0.0,0.0,0.0,0.0,0.0,-2.7003,-2.7996,-2.8649,-2.9218,-2.9679,-3.0156,-3.0334,-3.0215,-3.0241,-3.0333,0.0,0.0,0.0,0.0,0.0,0.0,0.0,0.0,0.0,0.0,0.0,0.0,0.0,0.0,0.0,0.0,0.0,0.0,0.0,0.0,0.0,0.0,0.0,0.0,0.0,0.0,0.0,0.0,-2.658,-2.6633,-2.6433,0.0,0.0,0.0,0.0,0.0,0.0,0.0,0.0,0.0,0.0,-2.8165,-2.8642,-2.8546,-2.8384,-2.8328,-2.885,-2.9217,-2.9144,-2.9135,-2.9421,-3.0313,0.0,0.0,0.0,0.0,0.0,0.0,0.0,0.0,0.0,0.0,0.0,0.0,0.0,0.0,0.0,0.0,0.0,0.0,0.0,0.0,0.0,0.0,0.0,0.0,0.0,0.0,0.0,0.0,0.0,0.0,-2.4348,0.0,0.0,0.0,0.0,0.0,0.0,0.0,0.0,0.0,0.0,0.0,0.0,0.0,0.0,0.0,0.0,0.0,0.0,0.0,0.0,0.0,0.0,-2.9279,-2.9381,-2.9986,-3.0356,-3.0371,-3.0402,-3.038,-3.0261,-3.0365,-3.0657,-3.1178,0.0,0.0,0.0,0.0,0.0,0.0,0.0,0.0,0.0,0.0,0.0,0.0,0.0,0.0,0.0,0.0,0.0,0.0,0.0,0.0,0.0,0.0,0.0,0.0,0.0,0.0,-2.6556,-2.7018,-2.7149,0.0,0.0,0.0,0.0,0.0,0.0,0.0,0.0,0.0,0.0,-2.8965,-2.9356,-2.9412,-3.0148,-3.0524,-3.0315,-3.0723,-3.1013,-3.0738,-3.0713,-3.102,0.0,0.0,0.0,0.0,0.0,0.0,0.0,0.0,0.0,0.0,0.0,0.0,0.0,0.0,0.0,0.0,0.0,0.0,0.0,0.0,0.0,0.0,0.0,0.0,0.0,0.0,0.0,-2.6055,-2.5926,0.0,0.0,0.0,0.0,0.0,0.0,0.0,0.0,0.0,0.0,0.0,-2.7734,-2.8196,0.0,0.0,0.0,0.0,0.0,0.0,0.0,0.0,0.0,0.0,0.0,0.0,-2.9627,-3.0063,-3.072,-3.1059,-3.1074,-3.1505,-3.1709,-3.1666,-3.1709,-3.1816,-3.2004,0.0,0.0,0.0,0.0,0.0,0.0,0.0,0.0,0.0,0.0,0.0,0.0,0.0,0.0,0.0,0.0,0.0,0.0,0.0,0.0,0.0,0.0,0.0,0.0,0.0,-2.8642,0.0,0.0,0.0,0.0,0.0,0.0,0.0,0.0,0.0,0.0,0.0,-2.9904,-3.032,-3.0582,-3.072,-3.072,-3.0629,-3.0516,0.0,0.0,0.0,0.0,0.0,0.0,0.0,0.0,0.0,0.0,0.0,0.0,0.0,0.0,-3.5269,-3.4286,-3.4096,-3.4027,-3.3731,0.0,0.0,0.0,0.0,0.0,0.0,0.0,0.0,0.0,0.0,0.0,0.0,0.0,0.0,-2.6625,0.0,-2.6425,0.0,0.0,0.0,0.0,0.0,0.0,0.0,0.0,-2.8027,-2.8673,-2.9119,-2.9566,-2.9971,0.0,-3.1074,-3.0746,0.0,0.0,0.0,0.0,0.0,0.0,0.0,0.0,-3.0648,-3.1105,-3.152,-3.1736,-3.1778,-3.2167,-3.2398,-3.2398,-3.2398,-3.2398,-3.2398,-3.2398,-3.2385,0.0,0.0,0.0,0.0,0.0,0.0,0.0,0.0,0.0,0.0,0.0,0.0,0.0,0.0,0.0,0.0,0.0,0.0,0.0,0.0,0.0,0.0,0.0,-2.974,0.0,0.0,0.0,0.0,0.0,0.0,0.0,0.0,0.0,-3.0243,-3.0689,-3.1274,-3.1674,-3.1736,-3.1747,-3.1736,0.0,0.0,0.0,0.0,0.0,0.0,0.0,-3.1422,-3.2504,-3.2332,-3.2364,-3.322,-3.3947,-3.4521,-3.4798,0.0,0.0,-3.4959,-3.4645,-3.4493,-3.4493,-3.3852,-3.3473,-3.401,-3.3398,-3.2851,0.0,0.0,0.0,0.0,0.0,0.0,0.0,0.0,-2.6858,-2.6778,0.0,-2.6593,0.0,0.0,0.0,0.0,0.0,-2.7888,0.0,0.0,-2.9756,-3.0402,-3.0402,-3.0417,-3.0448,-3.0494,-3.1136,-3.1439,-3.1439,-3.2044,0.0,0.0,0.0,0.0,0.0,0.0,-3.2398,-3.2394,-3.2367,-3.2382,-3.2382,-3.2398,-3.2398,-3.2398,-3.2398,-3.2398,-3.2398,-3.2398,-3.2398,-3.2398,-3.2398,0.0,0.0,0.0,0.0,0.0,0.0,0.0,0.0,0.0,0.0,0.0,0.0,0.0,0.0,0.0,0.0,0.0,0.0,0.0,0.0,-3.0432,0.0,0.0,0.0,0.0,0.0,0.0,0.0,0.0,0.0,0.0,-3.1474,-3.1951,-3.2398,-3.241,0.0,0.0,0.0,0.0,-3.2757,-3.2422,-3.2904,-3.3377,-3.3691,-3.3149,-3.3055,-3.4197,0.0,0.0,-3.3894,-3.4044,-3.4042,-3.4079,-3.4128,-3.4579,-3.5956,-3.5542,-3.5128,-3.5166,-3.4614,-3.4182,-3.4162,-3.4182,-3.3889,-2.9202,0.0,0.0,0.0,0.0,-2.8772,-2.8615,-2.8,-2.7945,-2.7921,-2.7898,-2.7866,0.0,0.0,0.0,0.0,0.0,0.0,-2.9817,-2.9848,-3.0217,-3.0632,-3.1105,-3.112,-3.1366,-3.1828,-3.2013,-3.2105,-3.2148,-3.229,-3.2398,-3.2398,0.0,0.0,0.0,0.0,-3.2398,-3.2398,-3.2398,-3.2398,-3.2398,-3.2398,-3.2398,-3.2398,-3.2398,-3.2398,-3.2398,-3.2398,-3.2398,-3.2398,-3.2398,0.0,0.0,0.0,0.0,0.0,0.0,0.0,0.0,0.0,0.0,0.0,0.0,0.0,0.0,0.0,0.0,0.0,0.0,0.0,-3.1151,-3.112,-3.112,0.0,0.0,0.0,0.0,0.0,0.0,0.0,0.0,0.0,-3.2136,-3.2275,-3.2496,0.0,0.0,-3.2496,-3.2703,-3.2648,-3.2523,-3.2398,-3.2857,0.0,-3.3355,-3.3048,-3.2916,-3.3294,-3.2693,-3.2231,-3.2436,-3.2886,-3.3248,-3.3248,-3.3714,-3.4387,-3.5232,-3.4904,-3.4628,-3.5025,-3.5007,-3.5076,-3.5525,-3.5266,-3.4821,-3.0644,-3.0411,-3.0292,-2.9868,-2.941,-2.9853,-2.9707,-2.9187,-2.9171,-2.9171,-2.9212,-2.9196,-2.9443,-2.9787,-2.9787,0.0,0.0,0.0,-3.0797,-3.0797,-3.1089,-3.1413,-3.1794,-3.1809,-3.1997,-3.2382,-3.2398,-3.2398,-3.2398,-3.2398,-3.2398,-3.2398,0.0,0.0,-3.2398,-3.2398,-3.2398,-3.2398,-3.2398,-3.2398,-3.2398,-3.2398,-3.2398,-3.2398,-3.2398,-3.2398,-3.2398,-3.2398,-3.2398,-3.2398,-3.2398,-3.2398,0.0,0.0,0.0,0.0,0.0,0.0,0.0,0.0,0.0,0.0,0.0,-3.1213,-3.1186,0.0,0.0,0.0,-3.2151,-3.2228,-3.1828,-3.1797,0.0,0.0,0.0,0.0,0.0,0.0,0.0,-3.1855,-3.2136,-3.2398,-3.2398,-3.2602,-3.2819,-3.3011,-3.3033,-3.3097,-3.3303,0.0,-3.3029,-3.3044,-3.3303,-3.3614,-3.3878,-3.3566,-3.3327,-3.3351,-3.3026,-3.2731,-3.2714,-3.3112,-3.3369,-3.3421,-3.3803,-3.4234,-3.4663,-3.4387,-3.4458,-3.5404,-3.5387,-3.5439,-3.6146,-3.5939,-3.5559,-3.1532,-3.149,-3.0905,-3.054,-3.0402,-3.0448,-3.0448,-3.0402,-3.0386,-3.0402,-3.0402,-3.0402,-3.0432,-3.0479,-3.0525,0.0,-3.0586,-3.1213,-3.1459,-3.1516,-3.2105,-3.2398,-3.2398,-3.2398,-3.2398,-3.2398,-3.2398,-3.2398,-3.2398,-3.2459,-3.2459,-3.2475,-3.2536,-3.2505,-3.2398,-3.2398,-3.2398,-3.2398,-3.2398,-3.2398,-3.2398,-3.2398,-3.2398,-3.2398,-3.2398,-3.2398,-3.2398,-3.2398,-3.2398,-3.2398,-3.2398,-3.2398,-3.2398,0.0,0.0,0.0,0.0,0.0,0.0,0.0,0.0,0.0,0.0,0.0,0.0,0.0,0.0,0.0,-3.2398,0.0,-3.2398,-3.2398,0.0,0.0,0.0,-3.2398,-3.2398,-3.2398,-3.2425,-3.2465,0.0,0.0,-3.252,-3.3002,-3.3329,-3.3329,-3.3716,-3.4011,-3.4036,-3.3986,-3.4011,-3.3919,-3.4036,-3.4309,-3.4776,-3.447,-3.4107,-3.4017,-3.4076,-3.401,-3.399,-3.4027,-3.4079,-3.4044,-3.4096,-3.4165,-3.4182,-3.4249,-3.4611,-3.6008,-3.568,-3.5421,-3.6111,-3.6249,-3.6042,-3.2459,-3.2906,-3.2752,-3.1813,-3.0448,-3.0951,-3.0874,-3.0417,-3.0402,-3.0402,-3.0402,-3.0402,-3.0678,-3.1182,-3.169,-3.1921,-3.1936,-3.209,-3.2151,-3.2167,-3.2305,-3.2398,-3.2398,-3.2398,-3.2398,-3.2398,-3.2398,-3.2398,-3.2428,-3.2906,-3.3167,-3.3183,-3.3735,-3.3473,-3.2444,-3.2398,-3.2398,-3.2398,-3.2398,-3.2398,-3.2398,-3.2398,-3.2398,-3.2398,-3.2398,-3.2398,-3.2398,-3.2398,-3.2398,-3.2398,-3.2398,-3.2398,-3.2398,-3.2398,0.0,0.0,0.0,0.0,0.0,0.0,0.0,0.0,0.0,-3.2398,-3.2398,0.0,-3.2398,0.0,-3.2398,-3.2398,-3.2398,-3.2398,0.0,0.0,-3.2398,-3.2398,-3.2398,-3.2398,-3.2532,-3.296,-3.3013,-3.3172,-3.3578,-3.4095,-3.4415,-3.4415,-3.4202,-3.4086,-3.4317,-3.4136,-3.4011,-3.4061,-3.4456,-3.4809,-3.4971,-3.4901,-3.4592,-3.404,-3.4054,-3.4096,-3.4096,-3.4096,-3.4096,-3.4096,-3.4096,-3.432,-3.4835,-3.4938,-3.5249,-3.6042,-3.5714,-3.5421,-3.6146,-3.6284,-3.6232,-3.2613,-3.2982,-3.3275,-3.2752,-3.1782,-3.2121,-3.2074,-3.1709,-3.1428,-3.1432,-3.172,-3.1417,-3.1505,-3.1859,-3.2228,-3.2567,-3.2829,-3.2844,-3.3013,-3.3306,-3.3321,-3.3321,-3.3349,-3.3349,-3.3349,-3.3349,-3.3349,-3.3349,-3.3336,-3.3719,-3.3875,-3.3919,-3.4305,-3.412,-3.338,-3.3349,-3.3349,-3.3349,-3.3013,-3.269,-3.2413,-3.2398,-3.2398,-3.2398,-3.2398,-3.2398,-3.2398,-3.2398,-3.2398,-3.2398,-3.2398,-3.2398,-3.2398,-3.2398,-3.2398,0.0,0.0,0.0,0.0,0.0,0.0,0.0,0.0,0.0,0.0,0.0,-3.2398,-3.2398,-3.2398,-3.2398,-3.2398,-3.2398,-3.2398,-3.2398,-3.2398,-3.2492,-3.2722,-3.2749,-3.2975,-3.3485,-3.3547,-3.3819,-3.4448,-3.4997,-3.5462,-3.576,-3.5778,-3.5554,-3.507,-3.4809,-3.4721,-3.4816,-3.5068,-3.531,-3.5339,-3.5421,-3.5351,-3.5015,-3.5015,-3.5076,-3.5076,-3.5076,-3.5076,-3.5059,-3.5076,-3.518,-3.5594,-3.568,-3.5835,-3.6077,-3.5973,-3.587,-3.6197,-3.6284,-3.6284,-3.2918,-3.309,-3.349,-3.3721,-3.3783,-3.3706,-3.3614,-3.349,-3.2921,-3.2982,-3.349,-3.2921,-3.2659,-3.2659,-3.2659,-3.2982,-3.3537,-3.3537,-3.3875,-3.4474,-3.4489,-3.4489,-3.4489,-3.4489,-3.4489,-3.4489,-3.4489,-3.4489,-3.452,-3.4582,-3.4628,-3.4628,-3.472,-3.4767,-3.4751,-3.4751,-3.4674,-3.4489,-3.3844,-3.3198,-3.2552,-3.2521,-3.2475,-3.2398,-3.2398,-3.2398,-3.2398,-3.2398,-3.2398,-3.2398,-3.2398,-3.2398,-3.2398,-3.2398,-3.2398,0.0,-3.2398,0.0,0.0,0.0,0.0,0.0,0.0,0.0,0.0,-3.2398,-3.2398,-3.2398,-3.2398,-3.2398,-3.2398,-3.2398,-3.2425,-3.2492,-3.2492,-3.2722,-3.3224,-3.3366,-3.3664,-3.419,-3.4338,-3.4697,-3.5493,-3.5968,-3.6521,-3.7053,-3.744,-3.7212,-3.6202,-3.5926,-3.5982,-3.6061,-3.6,-3.6147,-3.623,-3.621,-3.6294,-3.6449,-3.641,-3.6508,-3.6577,-3.6594,-3.6594,-3.6577,-3.649,-3.6439,-3.6439,-3.637,-3.6266,-3.6284,-3.6249,-3.6232,-3.6284,-3.6284,-3.6284,-3.5537,-3.643,-3.5476,-3.5399,-3.5861,-3.5322,-3.4813,-3.4289,-3.4181,-3.4181,-3.4289,-3.4166,-3.4104,-3.412,-3.4104,-3.4181,-3.4275,-3.4305,-3.4366,-3.4489,-3.4489,-3.4489,-3.4489,-3.4489,-3.4489,-3.4489,-3.4489,-3.4489,-3.4505,-3.5059,-3.5321,-3.5352,-3.5876,-3.6091,-3.6107,0.0,0.0,0.0,-3.4382,-3.3921,-3.3244,-3.3198,-3.2952,-3.2428,-3.2398,0.0,-3.2398,-3.2398,-3.2398,-3.2398,-3.2398,0.0,0.0,0.0,0.0,0.0,0.0,0.0,0.0,0.0,0.0,0.0,-3.2398,-3.2398,-3.2398,-3.2398,-3.2398,-3.2398,-3.2398,-3.2398,-3.2398,-3.2398,-3.2559,-3.3002,-3.3039,-3.3235,-3.3799,-3.4394,-3.4955,-3.5548,-3.6117,-3.6721,-3.7233,-3.7477,-3.761,-3.7771,-3.7834,-3.7763,-3.755,-3.7432,-3.7449,-3.7506,-3.7494,-3.7752,-3.803,-3.7541,-3.7369,-3.7883,-3.7611,-3.753,-3.7939,-3.8094,-3.8151,-3.8094,-3.7685,-3.7267,-3.7249,-3.6749,-3.6335,-3.6301,-3.6301,-3.6284,-3.6284,-3.6284,-3.6284,-3.6384,0.0,-3.6615,-3.6492,0.0,-3.6476,-3.6091,-3.5444,-3.4797,-3.4489,-3.4489,-3.4489,-3.4489,-3.4489,-3.4489,-3.4674,-3.4998,-3.4998,-3.5183,-3.546,-3.5506,-3.5506,-3.5491,-3.5506,-3.5506,-3.5506,-3.5506,-3.5506,-3.5521,-3.5814,-3.6014,-3.5999,-3.6338,-3.6492,-3.6492,-3.6492,-3.5999,-3.5013,-3.4998,-3.4629,-3.3967,-3.3937,-3.3598,-3.2936,-3.289,0.0,0.0,0.0,0.0,0.0,0.0,0.0,0.0,0.0,0.0,-3.2398,-3.2398,-3.2398,-3.2398,-3.2398,-3.2398,-3.2398,-3.2398,-3.2398,-3.2398,-3.2398,-3.2398,-3.2398,-3.2398,-3.2398,-3.2398,-3.2398,-3.2614,-3.3161,-3.3525,-3.4048,-3.4888,-3.5636,-3.6306,-3.6859,-3.7274,-3.7724,-3.8372,-3.8447,-3.8599,-3.8903,-3.8971,-3.8954,-3.8903,-3.8345,-3.7922,-3.7922,-3.7997,-3.8144,-3.8213,-3.8071,-3.7933,-3.8282,-3.82,-3.8198,-3.8548,-3.8594,-3.8594,-3.8577,-3.8289,-3.8047,-3.7996,-3.7404,-3.6904,-3.6835,-3.6577,-3.6301,-3.6284,-3.6284,-3.6284,-3.703,-3.7061,-3.7507,-3.7369,-3.6892,-3.743,-3.7369,-3.6769,0.0,0.0,0.0,-3.4859,-3.4874,-3.4859,-3.4859,-3.5137,-3.5675,-3.5691,-3.5984,-3.6492,-3.6492,-3.6492,-3.6492,-3.6492,-3.6492,-3.6492,-3.6492,-3.6492,-3.6492,-3.6492,-3.6492,-3.6492,-3.6492,-3.6492,-3.6492,-3.6492,-3.6215,-3.5722,-3.5691,-3.5367,-3.4705,-3.4674,-3.4335,-3.3614,-3.346,-3.3136,-3.2598,-3.2444,-3.2398,-3.2398,-3.2398,-3.2398,-3.2398,-3.2398,-3.2398,-3.2398,-3.2398,-3.2398,-3.2398,-3.2398,-3.2398,-3.2398,-3.2398,-3.2398,-3.2398,-3.2398,-3.2398,-3.2398,-3.2398,-3.2444,-3.2567,-3.2582,-3.2901,-3.3625,-3.4271,-3.5074,-3.6191,-3.6978,-3.7594,-3.8012,-3.8237,-3.8497,-3.9089,-3.9174,-3.9402,-3.9943,-3.9977,-4.0113,-3.996,-3.9089,-3.8471,-3.8543,-3.8663,-3.851,-3.8445,-3.8427,-3.8493,-3.8762,-3.8803,-3.8813,-3.8957,-3.9014,-3.9014,-3.9129,-3.8922,-3.8801,-3.8732,-3.818,-3.7668,-3.753,-3.7059,-3.654,-3.6356,-3.6364,-3.643,-3.9044,-3.9046,-3.8536,-3.8308,-3.8246,-3.8323,-3.8323,-3.8108,-3.6784,-3.6199,-3.6215,-3.6215,-3.6215,-3.6199,-3.6199,-3.6261,-3.6353,-3.6353,-3.6399,-3.6492,-3.6492,-3.6492,-3.6492,-3.6492,-3.6492,-3.6492,-3.6507,-3.6492,-3.6492,-3.6507,-3.6492,-3.6507,-3.6492,-3.6507,-3.6492,-3.6492,-3.6445,-3.6353,-3.6353,-3.6061,-3.5383,-3.5367,-3.5044,-3.4366,-3.3737,-3.3367,-3.326,-3.2705,-3.2398,-3.2398,-3.2398,-3.2398,-3.2398,-3.2398,-3.2398,-3.2398,-3.2398,-3.2398,-3.2398,-3.2398,-3.2398,-3.2398,-3.2398,-3.2398,-3.2398,-3.2398,-3.2398,-3.2398,-3.2444,-3.2628,-3.3167,-3.3288,-3.3923,-3.546,-3.5856,-3.6385,-3.7472,-3.8274,-3.8738,-3.8853,-3.9419,-3.9757,-3.9842,-3.991,-3.991,-4.0079,-4.0113,-4.0113,-4.0062,-3.9943,-3.9908,-4.008,-4.0136,-4.0185,-3.9997,-3.9699,-3.962,-4.0261,-3.977,-3.9657,-4.0284,-4.0377,-4.0394,-4.0532,-3.9963,-3.9595,-3.9526,-3.8939,-3.8328,-3.7819,-3.7638,-3.7469,-3.6645,-3.6618,-3.6821,-4.0028,-4.0031,-3.9705,-3.9367,-3.8998,-3.8662,-3.8508,-3.8415,-3.7477,-3.7046,-3.7015,-3.6661,-3.6492,-3.6492,-3.6492,-3.6492,-3.6492,-3.6492,-3.6492,-3.6522,-3.6861,-3.7046,-3.7076,-3.7415,-3.7584,-3.7584,-3.7584,-3.76,-3.7584,-3.7584,-3.7584,-3.7584,-3.7584,-3.74,-3.7061,-3.7046,-3.6861,-3.6507,-3.6492,-3.6353,-3.6045,-3.603,-3.5737,-3.5059,-3.4675,-3.4352,-3.4027,-3.3704,-3.355,-3.355,-3.318,-3.2936,-3.2936,-3.2582,-3.2398,-3.2398,-3.2398,-3.2398,-3.2398,-3.2736,-3.3106,-3.3475,-3.3521,-3.3565,-3.3521,-3.3195,-3.2936,-3.2952,-3.3275,-3.3673,-3.3981,-3.4283,-3.494,-3.6061,-3.6806,-3.759,-3.8377,-3.914,-3.9605,-3.9639,-3.9893,-4.0113,-4.0113,-4.0113,-4.0113,-4.0113,-4.0113,-4.0113,-4.0113,-4.0113,-4.0146,-4.0263,-4.0288,-4.0337,-4.0444,-4.0278,-4.024,-4.0638,-4.0476,-4.0438,-4.086,-4.0894,-4.0894,-4.0894,-4.0567,-4.0394,-4.0342,-3.9926,-3.9312,-3.8645,-3.8365,-3.8013,-3.7284,-3.7247,-3.7359,-4.0397,-4.0274,-4.0428,-4.0197,-3.9659,-3.8982,-3.8831,-3.8877,-3.8092,-3.78,-3.7831,-3.7092,-3.6799,-3.6938,-3.6938,-3.6953,-3.6938,-3.6953,-3.6953,-3.6999,-3.7492,-3.7723,-3.7784,-3.8277,-3.8508,-3.8508,-3.8508,-3.8508,-3.8508,-3.8508,-3.8508,-3.8508,-3.8508,-3.8246,-3.7723,-3.7569,-3.723,-3.6753,-3.6569,-3.6492,-3.6492,-3.6492,-3.6245,-3.5753,-3.5583,-3.526,-3.4767,-3.4582,-3.4489,-3.4474,-3.3937,-3.3644,-3.3614,-3.3152,-3.2859,-3.2859,-3.2859,-3.2859,-3.2918,-3.3336,-3.3891,-3.4443,-3.4563,-3.4548,-3.4488,-3.4337,-3.4053,-3.395,-3.435,-3.4796,-3.5167,-3.554,-3.6117,-3.6847,-3.7788,-3.862,-3.9243,-3.9774,-4.0113,-4.0113,-4.0113,-4.0113,-4.0113,-4.0113,-4.0113,-4.0113,-4.0113,-4.0113,-4.0113,-4.0113,-4.0113,-4.0096,-4.0121,-4.0188,-4.0305,-4.0387,-4.0493,-4.0648,-4.0728,-4.0765,-4.0847,-4.0894,-4.0894,-4.0894,-4.0894,-4.0825,-4.0849,-4.0779,-4.0307,-3.9635,-3.9286,-3.8795,-3.7846,-3.7826,-3.7965,-4.0136,-3.9705,-4.0243,-4.0474,-4.0305,-3.9674,-3.9721,-4.0074,-3.8952,-3.8769,-3.9121,-3.7969,-3.7754,-3.8277,-3.8277,-3.8246,-3.8262,-3.8323,-3.8277,-3.8277,-3.8385,-3.8415,-3.8415,-3.8508,-3.8523,-3.8554,-3.8569,-3.8646,-3.8631,-3.8585,-3.8539,-3.8508,-3.8508,-3.8508,-3.8354,-3.7831,-3.7477,-3.74,-3.6799,-3.6492,-3.6492,-3.6492,-3.6461,-3.6384,-3.5799,-3.5491,-3.5414,-3.4844,-3.4505,-3.4489,-3.4459,-3.4397,-3.4382,-3.4335,-3.4289,-3.4289,-3.4274,-3.432,-3.4305,-3.4351,-3.4443,-3.4474,-3.4814,-3.4872,-3.4699,-3.5739,-3.6107,-3.5526,-3.5331,-3.5876,-3.6867,-3.7074,-3.7601,-3.8629,-3.8994,-3.937,-3.9977,-4.0112,-4.0113,-4.0113,-4.0113,-4.0113,-4.0113,-4.0113,-4.0113,-4.0113,-4.0113,-4.0113,-4.0113,-4.0113,-4.0113,-4.0138,-4.0188,-4.0263,-4.0305,-4.0305,-4.0453,-4.0534,-4.0558,-4.068,-4.0823,-4.0894,-4.0894,-4.0894,-4.0942,-4.0948,-4.1018,-4.111,-4.1113,-4.0471,-4.0078,-3.9715,-3.8503,-3.8119,-3.8188,-4.0336,-4.0105,-4.0366,-4.0489,-4.0443,-4.0197,-4.0228,-4.0382,-3.949,-3.9444,-3.992,-3.9108,-3.8631,-3.8523,-3.8508,-3.8508,-3.8508,-3.8508,-3.8508,-3.8554,-3.8908,-3.9093,-3.9139,-3.9539,-3.9659,-3.9674,-3.9674,-3.9659,-3.9674,-3.9674,-3.9674,-3.9708,-3.9674,-3.9474,-3.9093,-3.8446,-3.7908,-3.7492,-3.683,-3.6492,-3.6492,-3.6492,-3.6492,-3.6461,-3.623,-3.6076,-3.6061,-3.5799,-3.5676,-3.566,-3.5337,-3.5121,-3.509,-3.4736,-3.4489,-3.4489,-3.4489,-3.469,-3.5075,-3.5106,-3.538,-3.5917,-3.6301,-3.649,-3.655,-3.7319,-3.7767,-3.7731,-3.7365,-3.7371,-3.7848,-3.8215,-3.8661,-3.9219,-3.9523,-3.985,-4.0138,-4.0121,-4.0113,-4.0113,-4.0113,-4.0113,-4.0113,-4.0113,-4.0113,-4.0113,-4.0113,-4.0113,-4.0113,-4.0113,-4.0113,-4.0096,-4.0146,-4.0263,-4.0362,-4.0502,-4.0576,-4.0697,-4.0728,-4.0799,-4.0871,-4.0894,-4.0894,-4.0918,-4.1117,-4.1237,-4.1283,-4.1569,-4.1721,-4.1131,-4.0383,-3.9873,-3.927,-3.8796,-3.8619,-4.0489,-4.0489,-4.0489,-4.0489,-4.0489,-4.0489,-4.0489,-4.0443,-3.9967,-4.0043,-4.0413,-3.9982,-3.949,-3.9108,-3.9062,-3.9062,-3.9062,-3.9029,-3.9062,-3.9123,-3.9551,-3.9767,-3.9813,-4.0243,-4.0489,-4.0489,-4.0474,-4.0474,-4.0489,-4.0489,-4.0489,-4.0489,-4.0489,-4.0243,-3.9751,-3.9139,-3.8446,-3.78,-3.7107,-3.6692,-3.6522,-3.6492,-3.6492,-3.6492,-3.6492,-3.6492,-3.6492,-3.6492,-3.6492,-3.6476,-3.6014,-3.5753,-3.5737,-3.5321,-3.5059,-3.5059,-3.5059,-3.529,-3.5859,-3.592,-3.6242,-3.7027,-3.7533,-3.7867,-3.8042,-3.8562,-3.9038,-3.9229,-3.9049,-3.8854,-3.8941,-3.9269,-3.9497,-3.9592,-3.9927,-4.0113,-4.0163,-4.0138,-4.0113,-4.0113,-4.0113,-4.0113,-4.0113,-4.0113,-4.0113,-4.0113,-4.0113,-4.0113,-4.0113,-4.0113,-4.0113,-4.0113,-4.0138,-4.0213,-4.0387,-4.0412,-4.0583,-4.0776,-4.0823,-4.0977,-4.1065,-4.1157,-4.1277,-4.1552,-4.1622,-4.1687,-4.1735,-4.2021,-4.2119,-4.1488,-4.0694,-3.9884,-3.9339,-3.9004,-3.8765,-4.0489,-4.0489,-4.0489,-4.0489,-4.0489,-4.0489,-4.0489,-4.0489,-4.0428,-4.0459,-4.0489,-4.0443,-4.0413,-4.0305,-4.0274,-4.0366,-4.0351,-4.0305,-4.029,-4.029,-4.0382,-4.0428,-4.0459,-4.0489,-4.0489,-4.0489,-4.0489,-4.0489,-4.0489,-4.0489,-4.0489,-4.0489,-4.0489,-4.0474,-4.0305,-3.9705,-3.9139,-3.8462,-3.7754,-3.7153,-3.6599,-3.6507,-3.6492,-3.6492,-3.6492,-3.6492,-3.6492,-3.6492,-3.6492,-3.6492,-3.643,-3.6415,-3.643,-3.6384,-3.6307,-3.6338,-3.6353,-3.6523,-3.6829,-3.689,-3.7072,-3.746,-3.8096,-3.8379,-3.8339,-3.9269,-3.9782,-3.948,-3.9859,-4.0146,-4.0229,-4.0121,-4.0213,-4.0296,-4.0196,-4.0171,-4.0263,-4.0163,-4.0096,-4.0113,-4.0113,-4.0113,-4.0113,-4.0113,-4.0113,-4.0113,-4.0113,-4.0113,-4.0113,-4.0113,-4.0113,-4.0138,-4.0188,-4.0238,-4.0163,-4.0271,-4.0345,-4.0541,-4.0884,-4.1157,-4.1516,-4.1778,-4.1966,-4.2113,-4.2133,-4.2195,-4.2277,-4.2284,-4.2194,-4.1664,-4.0778,-4.0013,-3.9735,-3.9019,-3.8707,-4.0489,-4.0489,-4.0489,-4.0489,-4.0489,-4.0489,-4.0489,-4.0489,-4.0489,-4.0489,-4.0489,-4.0489,-4.0489,-4.0489,-4.0489,-4.0489,-4.0489,-4.0489,-4.0489,-4.0489,-4.0489,-4.0489,-4.0489,-4.0489,-4.0489,-4.0489,-4.0489,-4.0489,-4.0489,-4.0489,-4.0489,-4.0489,-4.0489,-4.0489,-4.0366,-3.9828,-3.9351,-3.9062,-3.8092,-3.7369,-3.7107,-3.6707,-3.6492,-3.6492,-3.6492,-3.6492,-3.6492,-3.6492,-3.6492,-3.6492,-3.6492,-3.6492,-3.6492,-3.6492,-3.6492,-3.6492,-3.6492,-3.6739,-3.718,-3.7328,-3.7679,-3.8395,-3.8995,-3.9332,-3.9497,-4.0045,-4.0412,-4.0303,-4.037,-4.06,-4.0576,-4.0429,-4.0288,-4.0263,-4.0221,-4.0213,-4.0188,-4.0121,-4.0113,-4.0113,-4.0113,-4.0113,-4.0113,-4.0113,-4.0113,-4.0113,-4.0113,-4.0113,-4.0113,-4.0113,-4.0113,-4.0096,-4.0121,-4.0163,-4.0138,-4.0288,-4.0436,-4.059,-4.0819,-4.1111,-4.145,-4.1888,-4.2115,-4.2338,-4.2458,-4.2616,-4.2693,-4.2702,-4.2592,-4.2249,-4.1294,-4.0453,-4.0306,-3.946,-3.8927,-4.0489,-4.0489,-4.0489,-4.0489,-4.0489,-4.0489,-4.0489,-4.0489,-4.0489,-4.0489,-4.0489,-4.0489,-4.0489,-4.0489,-4.0489,-4.0489,-4.0489,-4.0489,-4.0489,-4.0489,-4.0489,-4.0489,-4.0489,-4.0489,-4.0489,-4.0489,-4.0489,-4.0489,-4.0489,-4.0489,-4.0489,-4.0489,-4.0489,-4.0489,-4.0413,-4.0028,-3.9736,-3.9336,-3.8616,-3.7984,-3.7538,-3.7061,-3.6692,-3.6538,-3.6492,-3.6492,-3.6492,-3.6492,-3.6492,-3.6492,-3.6492,-3.6492,-3.6492,-3.6492,-3.6616,-3.6754,-3.6816,-3.7118,-3.7725,-3.794,-3.8322,-3.9055,-3.9584,-3.9961,-4.0163,-4.0534,-4.0721,-4.0721,-4.0714,-4.0697,-4.0624,-4.0461,-4.0313,-4.0188,-4.0213,-4.0188,-4.0096,-4.0113,-4.0113,-4.0113,-4.0113,-4.0113,-4.0113,-4.0113,-4.0113,-4.0113,-4.0113,-4.0113,-4.0113,-4.0113,-4.0113,-4.0113,-4.0096,-4.0113,-4.0138,-4.0263,-4.0337,-4.0493,-4.099,-4.1248,-4.1561,-4.1973,-4.236,-4.2557,-4.2769,-4.2995,-4.3105,-4.312,-4.2957,-4.2723,-4.1808,-4.0765,-4.0343,-3.9808,-3.9258,-4.0489,-4.0489,-4.0489,-4.0489,-4.0489,-4.0489,-4.0489,-4.0489,-4.0489,-4.0489,-4.0489,-4.0489,-4.0489,-4.0489,-4.0489,-4.0489,-4.0489,-4.0489,-4.0489,-4.0489,-4.0489,-4.0489,-4.0489,-4.0489,-4.0489,-4.0489,-4.0489,-4.0489,-4.0489,-4.0489,-4.0489,-4.0489,-4.0489,-4.0489,-4.0489,-4.0397,-4.012,-3.9644,-3.9367,-3.88,-3.7692,-3.7554,-3.7261,-3.6707,-3.6708,-3.6754,-3.6662,-3.6615,-3.6584,-3.6615,-3.6677,-3.6569,-3.6848,-3.6879,-3.6939,-3.7517,-3.7528,-3.795,-3.8721,-3.8941,-3.9183,-3.9551,-3.9918,-4.0273,-4.0355,-4.0607,-4.0776,-4.0697,-4.0673,-4.0631,-4.0534,-4.0485,-4.0412,-4.0313,-4.0196,-4.0121,-4.0096,-4.0113,-4.0113,-4.0113,-4.0113,-4.0113,-4.0113,-4.0113,-4.0113,-4.0113,-4.0113,-4.0113,-4.0113,-4.0113,-4.0113,-4.0113,-4.0113,-4.0113,-4.0163,-4.0213,-4.0238,-4.0412,-4.1036,-4.1516,-4.1842,-4.2236,-4.2674,-4.2939,-4.3069,-4.3268,-4.3249,-4.3224,-4.2931,-4.257,-4.1682,-4.1095,-4.0543,-4.001,-3.9423,-4.0489,-4.0489,-4.0489,-4.0489,-4.0489,-4.0489,-4.0489,-4.0489,-4.0489,-4.0489,-4.0489,-4.0489,-4.0489,-4.0489,-4.0489,-4.0489,-4.0489,-4.0489,-4.0489,-4.0489,-4.0489,-4.0489,-4.0489,-4.0489,-4.0489,-4.0489,-4.0489,-4.0489,-4.0489,-4.0489,-4.0489,-4.0489,-4.0489,-4.0489,-4.0489,-4.0489,-4.0351,-4.0166,-3.9721,-3.9228,-3.8846,-3.8431,-3.8077,-3.794,-3.8325,-3.8544,-3.8529,-3.77,-3.7231,-3.7231,-3.806,-3.8777,-3.9111,-3.9248,-3.9338,-3.9486,-3.9546,-3.981,-4.0456,-4.0647,-4.0688,-4.082,-4.0985,-4.0856,-4.0521,-4.061,-4.0658,-4.0593,-4.0558,-4.051,-4.0387,-4.0362,-4.0406,-4.0322,-4.0263,-4.0188,-4.0113,-4.0113,-4.0113,-4.0113,-4.0113,-4.0113,-4.0113,-4.0113,-4.0113,-4.0113,-4.0113,-4.0113,-4.0113,-4.0113,-4.0113,-4.0113,-4.0113,-4.0113,-4.0138,-4.0163,-4.0213,-4.0362,-4.0873,-4.1455,-4.1885,-4.2338,-4.2825,-4.3196,-4.334,-4.341,-4.3407,-4.3296,-4.3039,-4.2855,-4.2433,-4.1717,-4.0928,-4.0304,-3.979,-4.0489,-4.0489,-4.0489,-4.0489,-4.0489,-4.0489,-4.0489,-4.0489,-4.0489,-4.0489,-4.0489,-4.0489,-4.0489,-4.0489,-4.0489,-4.0489,-4.0489,-4.0489,-4.0489,-4.0489,-4.0489,-4.0489,-4.0489,-4.0489,-4.0489,-4.0489,-4.0489,-4.0489,-4.0489,-4.0489,-4.0489,-4.0489,-4.0489,-4.0489,-4.0489,-4.0489,-4.0489,-4.0428,-4.009,-3.9871,-3.9796,-3.9458,-3.9245,-3.9282,-3.9657,-3.9842,-3.9826,-3.925,-3.8748,-3.8481,-3.9094,-3.9795,-4.0429,-4.0456,-4.0577,-4.0782,-4.0869,-4.1054,-4.1655,-4.1764,-4.1843,-4.1808,-4.1895,-4.1793,-4.14,-4.1305,-4.1305,-4.1305,-4.1356,-4.128,-4.1239,-4.1163,-4.1121,-4.1112,-4.0561,-4.0239,-4.0113,-4.0113,-4.0113,-4.0113,-4.0113,-4.0113,-4.0113,-4.0113,-4.0113,-4.0113,-4.0113,-4.0113,-4.0113,-4.0113,-4.0113,-4.0113,-4.0113,-4.0113,-4.0113,-4.0138,-4.0188,-4.037,-4.0652,-4.1162,-4.163,-4.2136,-4.2653,-4.3087,-4.3322,-4.3394,-4.3391,-4.3443,-4.3314,-4.3167,-4.2965,-4.2268,-4.146,-4.0855,-4.023,-4.0489,-4.0489,-4.0489,-4.0489,-4.0489,-4.0489,-4.0489,-4.0489,-4.0489,-4.0489,-4.0489,-4.0489,-4.0489,-4.0489,-4.0489,-4.0489,-4.0489,-4.0489,-4.0489,-4.0489,-4.0489,-4.0489,-4.0489,-4.0489,-4.0489,-4.0489,-4.0489,-4.0489,-4.0489,-4.0489,-4.0489,-4.0489,-4.0489,-4.0489,-4.0489,-4.0489,-4.0489,-4.0489,-4.0512,-4.058,-4.0576,-4.0641,-4.0594,-4.0615,-4.0764,-4.0856,-4.0908,-4.1191,-4.0916,-3.9958,-4.002,-4.0437,-4.0713,-4.0736,-4.1251,-4.1747,-4.1626,-4.1961,-4.2338,-4.2578,-4.2523,-4.2538,-4.2556,-4.2575,-4.2432,-4.2321,-4.2338,-4.2372,-4.2424,-4.2475,-4.2449,-4.2354,-4.2302,-4.2258,-4.1256,-4.0544,-4.0214,-4.0231,-4.0231,-4.0146,-4.0113,-4.0113,-4.0113,-4.0113,-4.0113,-4.0113,-4.0113,-4.0113,-4.0113,-4.0113,-4.0113,-4.0113,-4.0113,-4.0113,-4.0113,-4.0138,-4.0163,-4.0238,-4.0476,-4.0832,-4.141,-4.1952,-4.2536,-4.2975,-4.3269,-4.334,-4.3394,-4.3428,-4.3463,-4.3353,-4.3004,-4.2561,-4.1901,-4.1167,-4.0377,-4.0489,-4.0489,-4.0489,-4.0489,-4.0489,-4.0489,-4.0489,-4.0489,-4.0489,-4.0489,-4.0489,-4.0489,-4.0489,-4.0489,-4.0489,-4.0489,-4.0489,-4.0489,-4.0489,-4.0489,-4.0489,-4.0489,-4.0489,-4.0489,-4.0489,-4.0489,-4.0489,-4.0489,-4.0489,-4.0489,-4.0489,-4.0489,-4.0489,-4.0489,-4.0489,-4.0489,-4.0489,-4.0593,-4.1024,-4.1231,-4.1305,-4.1741,-4.1977,-4.2019,-4.2408,-4.2647,-4.271,-4.2878,-4.2867,-4.252,-4.2458,-4.2772,-4.3263,-4.3349,-4.3372,-4.3502,-4.3654,-4.3743,-4.3882,-4.3893,-4.3718,-4.321,-4.3169,-4.2932,-4.2443,-4.2409,-4.2409,-4.2409,-4.2409,-4.2487,-4.2426,-4.2434,-4.2407,-4.2323,-4.1974,-4.1517,-4.1035,-4.0899,-4.0713,-4.0231,-4.0146,-4.0163,-4.0113,-4.0113,-4.0113,-4.0113,-4.0113,-4.0113,-4.0113,-4.0113,-4.0113,-4.0113,-4.0113,-4.0113,-4.0113,-4.0121,-4.0138,-4.0138,-4.0296,-4.0507,-4.1139,-4.1782,-4.2416,-4.2975,-4.3123,-4.3215,-4.3287,-4.3322,-4.3358,-4.3429,-4.3263,-4.2859,-4.1847,-4.0985,-4.027,-4.0489,-4.0489,-4.0489,-4.0489,-4.0489,-4.0489,-4.0489,-4.0489,-4.0489,-4.0489,-4.0489,-4.0489,-4.0489,-4.0489,-4.0489,-4.0489,-4.0489,-4.0489,-4.0489,-4.0489,-4.0489,-4.0489,-4.0489,-4.0489,-4.0489,-4.0489,-4.0489,-4.0489,-4.0489,-4.0489,-4.0489,-4.0489,-4.0489,-4.0489,-4.0489,-4.0489,-4.0505,-4.0612,-4.1142,-4.1608,-4.1949,-4.2567,-4.3075,-4.3333,-4.3781,-4.3972,-4.3956,-4.3956,-4.3839,-4.3555,-4.3495,-4.3839,-4.4497,-4.4598,-4.4598,-4.4598,-4.4598,-4.4553,-4.4598,-4.4598,-4.4384,-4.4012,-4.3893,-4.369,-4.3413,-4.3278,-4.3278,-4.3328,-4.3278,-4.325,-4.3278,-4.3278,-4.3278,-4.3345,-4.325,-4.2811,-4.1796,-4.1677,-4.1305,-4.0815,-4.0544,-4.0392,-4.018,-4.0113,-4.0113,-4.0113,-4.0113,-4.0113,-4.0113,-4.0113,-4.0113,-4.0113,-4.0113,-4.0113,-4.0113,-4.0096,-4.0121,-4.0113,-4.0163,-4.0353,-4.0995,-4.1674,-4.2297,-4.2824,-4.2993,-4.3123,-4.3178,-4.3214,-4.3269,-4.3322,-4.3358,-4.299,-4.2,-4.1027,-4.0292,-4.0489,-4.0489,-4.0489,-4.0489,-4.0489,-4.0489,-4.0489,-4.0489,-4.0489,-4.0489,-4.0489,-4.0489,-4.0489,-4.0489,-4.0489,-4.0489,-4.0489,-4.0489,-4.0489,-4.0489,-4.0489,-4.0489,-4.0489,-4.0489,-4.0489,-4.0489,-4.0489,-4.0489,-4.0489,-4.0489,-4.0489,-4.0489,-4.0489,-4.0489,-4.0489,-4.0505,-4.0536,-4.0801,-4.139,-4.2045,-4.2619,-4.3251,-4.3839,-4.4236,-4.4367,-4.4468,-4.4497,-4.4497,-4.4265,-4.363,-4.3617,-4.4001,-4.4525,-4.4598,-4.4598,-4.4598,-4.4598,-4.4598,-4.4598,-4.4598,-4.4598,-4.4496,-4.4513,-4.4598,-4.4412,-4.4327,-4.4327,-4.4293,-4.4564,-4.4395,-4.4378,-4.4496,-4.4412,-4.4327,-4.4462,-4.3887,-4.2929,-4.2455,-4.2134,-4.1424,-4.1271,-4.0849,-4.0443,-4.0146,-4.0113,-4.0113,-4.0113,-4.0113,-4.0113,-4.0113,-4.0113,-4.0113,-4.0113,-4.0113,-4.0113,-4.0113,-4.0113,-4.0113,-4.0113,-4.0328,-4.0955,-4.163,-4.2239,-4.2673,-4.29,-4.303,-4.3068,-4.3105,-4.3178,-4.3196,-4.3251,-4.2848,-4.2262,-4.1293,-4.0469,-4.0489,-4.0489,-4.0489,-4.0489,-4.0489,-4.0489,-4.0489,-4.0489,-4.0489,-4.0489,-4.0489,-4.0489,-4.0489,-4.0489,-4.0489,-4.0489,-4.0489,-4.0489,-4.0489,-4.0489,-4.0489,-4.0489,-4.0489,-4.0489,-4.0489,-4.0489,-4.0489,-4.0489,-4.0489,-4.0489,-4.0489,-4.0489,-4.0489,-4.0505,-4.0551,-4.0551,-4.0847,-4.1349,-4.1925,-4.2559,-4.3262,-4.3883,-4.4338,-4.457,-4.4598,-4.4598,-4.4598,-4.4598,-4.4497,-4.4395,-4.4338,-4.4367,-4.4525,-4.4598,-4.4598,-4.4598,-4.4598,-4.4598,-4.4598,-4.4598,-4.4598,-4.4598,-4.4598,-4.4598,-4.4598,-4.4598,-4.4598,-4.4598,-4.4598,-4.4598,-4.4598,-4.4598,-4.4598,-4.4598,-4.4581,-4.4479,-4.409,-4.3521,-4.2878,-4.2202,-4.1627,-4.1153,-4.0967,-4.0417,-4.0265,-4.0146,-4.0113,-4.0113,-4.0113,-4.0113,-4.0113,-4.0113,-4.0113,-4.0113,-4.0113,-4.0113,-4.0113,-4.0113,-4.0113,-4.0254,-4.0926,-4.1388,-4.1909,-4.2418,-4.2882,-4.2938,-4.2937,-4.3067,-4.3105,-4.3142,-4.3105,-4.2796,-4.2321,-4.1463,-4.0732,-4.0489,-4.0489,-4.0489,-4.0489,-4.0489,-4.0489,-4.0489,-4.0489,-4.0489,-4.0489,-4.0489,-4.0489,-4.0489,-4.0489,-4.0489,-4.0489,-4.0489,-4.0489,-4.0489,-4.0489,-4.0489,-4.0489,-4.0489,-4.0489,-4.0489,-4.0489,-4.0489,-4.0489,-4.0489,-4.0489,-4.0489,-4.0489,-4.0489,-4.0735,-4.0858,-4.0705,-4.1105,-4.1824,-4.1996,-4.251,-4.349,-4.3883,-4.4338,-4.4542,-4.4598,-4.4598,-4.4598,-4.4598,-4.4598,-4.4598,-4.4598,-4.4598,-4.4598,-4.4598,-4.4598,-4.4598,-4.4598,-4.4598,-4.4598,-4.4598,-4.4598,-4.4598,-4.4598,-4.4598,-4.4598,-4.4598,-4.4598,-4.4598,-4.4598,-4.4598,-4.4598,-4.4598,-4.4598,-4.4598,-4.4598,-4.4598,-4.453,-4.4198,-4.3656,-4.2997,-4.2523,-4.1897,-4.1373,-4.0798,-4.0367,-4.0248,-4.0113,-4.0113,-4.0113,-4.0113,-4.0113,-4.0113,-4.0113,-4.0113,-4.0113,-4.0113,-4.0113,-4.0113,-4.0113,-4.0353,-4.0802,-4.1139,-4.1499,-4.2056,-4.2653,-4.2769,-4.2806,-4.2918,-4.303,-4.3012,-4.2959,-4.2796,-4.2396,-4.1613,-4.101,-4.0489,-4.0489,-4.0489,-4.0489,-4.0489,-4.0489,-4.0489,-4.0489,-4.0489,-4.0489,-4.0489,-4.0489,-4.0489,-4.0489,-4.0489,-4.0489,-4.0489,-4.0489,-4.0489,-4.0489,-4.0489,-4.0489,-4.0489,-4.0489,-4.0489,-4.0489,-4.0489,-4.0489,-4.0489,-4.0489,-4.0489,-4.0489,-4.0489,-4.0828,-4.1263,-4.1124,-4.1432,-4.251,-4.2385,-4.2653,-4.3589,-4.3847,-4.4138,-4.4468,-4.4598,-4.4598,-4.4598,-4.4598,-4.4598,-4.4598,-4.4598,-4.4598,-4.4598,-4.4598,-4.4598,-4.4598,-4.4598,-4.4598,-4.4598,-4.4598,-4.4598,-4.4598,-4.4598,-4.4598,-4.4598,-4.4598,-4.4598,-4.4598,-4.4598,-4.4598,-4.4598,-4.4598,-4.4598,-4.4598,-4.4598,-4.4598,-4.4598,-4.4598,-4.4164,-4.3758,-4.32,-4.2547,-4.1847,-4.1204,-4.073,-4.0333,-4.0197,-4.0113,-4.0113,-4.0113,-4.0113,-4.0113,-4.0113,-4.0113,-4.0113,-4.0113,-4.0113,-4.0113,-4.0113,-4.0303,-4.058,-4.0707,-4.1065,-4.1864,-4.2358,-4.2518,-4.2711,-4.2881,-4.2956,-4.2919,-4.2902,-4.2849,-4.2359,-4.1742,-4.1287,-4.0489,-4.0489,-4.0489,-4.0489,-4.0489,-4.0489,-4.0489,-4.0489,-4.0489,-4.0489,-4.0489,-4.0489,-4.0489,-4.0489,-4.0489,-4.0489,-4.0489,-4.0489,-4.0489,-4.0489,-4.0489,-4.0489,-4.0489,-4.0489,-4.0489,-4.0489,-4.0489,-4.0489,-4.0489,-4.0489,-4.0489,-4.0489,-4.0551,-4.097,-4.1478,-4.154,-4.2063,-4.3133,-4.3037,-4.3295,-4.3978,-4.4227,-4.431,-4.457,-4.4598,-4.4598,-4.4598,-4.4598,-4.4598,-4.4598,-4.4598,-4.4598,-4.4598,-4.4598,-4.4598,-4.4598,-4.4598,-4.4598,-4.4598,-4.4598,-4.4598,-4.4598,-4.4598,-4.4598,-4.4598,-4.4598,-4.4598,-4.4598,-4.4598,-4.4598,-4.4598,-4.4598,-4.4598,-4.4598,-4.4598,-4.4598,-4.4598,-4.4581,-4.4547,-4.4231,-4.3724,-4.3156,-4.2439,-4.1694,-4.1085,-4.0603,-4.0248,-4.0146,-4.0113,-4.0113,-4.0113,-4.0113,-4.0113,-4.0113,-4.0113,-4.0113,-4.0113,-4.0113,-4.0113,-4.0113,-4.0254,-4.0221,-4.0635,-4.1587,-4.2157,-4.2378,-4.2595,-4.2844,-4.2919,-4.2919,-4.2919,-4.2901,-4.2485,-4.205,-4.1687,-4.0489,-4.0489,-4.0489,-4.0489,-4.0489,-4.0489,-4.0489,-4.0489,-4.0489,-4.0489,-4.0489,-4.0489,-4.0489,-4.0489,-4.0489,-4.0489,-4.0489,-4.0489,-4.0489,-4.0489,-4.0489,-4.0489,-4.0489,-4.0489,-4.0489,-4.0489,-4.0489,-4.0489,-4.0489,-4.0489,-4.0489,-4.0597,-4.0847,-4.1432,-4.1971,-4.2155,-4.2848,-4.3691,-4.3259,-4.3135,-4.3983,-4.4078,-4.4188,-4.4497,-4.4598,-4.4598,-4.4598,-4.4598,-4.4598,-4.4598,-4.4598,-4.4598,-4.4598,-4.4598,-4.4598,-4.4598,-4.4598,-4.4598,-4.4598,-4.4598,-4.4598,-4.4598,-4.4598,-4.4598,-4.4598,-4.4598,-4.4598,-4.4598,-4.4598,-4.4598,-4.4598,-4.4598,-4.4598,-4.4598,-4.4598,-4.4598,-4.4598,-4.4598,-4.4598,-4.4598,-4.4248,-4.3707,-4.3003,-4.2286,-4.1525,-4.0916,-4.0383,-4.0197,-4.0113,-4.0113,-4.0113,-4.0113,-4.0113,-4.0113,-4.0113,-4.0113,-4.0113,-4.0113,-4.0113,-4.0113,-4.0113,-4.0121,-4.0659,-4.1481,-4.1909,-4.2157,-4.2614,-4.2919,-4.2919,-4.2919,-4.2919,-4.2865,-4.2702,-4.2393,-4.2012,-4.0489,-4.0489,-4.0489,-4.0489,-4.0489,-4.0489,-4.0489,-4.0489,-4.0489,-4.0489,-4.0489,-4.0489,-4.0489,-4.0489,-4.0489,-4.0489,-4.0489,-4.0489,-4.0489,-4.0489,-4.0489,-4.0489,-4.0489,-4.0489,-4.0489,-4.0489,-4.0489,-4.0489,-4.0489,-4.0489,-4.0489,-4.0674,-4.1232,-4.194,-4.2417,-4.2494,-4.3448,-4.3608,-4.2881,-4.2544,-4.3259,-4.3562,-4.3839,-4.4497,-4.4598,-4.4598,-4.4598,-4.4598,-4.4598,-4.4598,-4.4598,-4.4598,-4.4598,-4.4598,-4.4598,-4.4598,-4.4598,-4.4598,-4.4598,-4.4598,-4.4598,-4.4598,-4.4598,-4.4598,-4.4598,-4.4598,-4.4598,-4.4598,-4.4598,-4.4598,-4.4598,-4.4598,-4.4598,-4.4598,-4.4598,-4.4598,-4.4598,-4.4598,-4.4598,-4.4598,-4.4598,-4.413,-4.3386,-4.2591,-4.1779,-4.1035,-4.0502,-4.018,-4.0113,-4.0113,-4.0113,-4.0113,-4.0113,-4.0113,-4.0113,-4.0113,-4.0113,-4.0113,-4.0113,-4.0113,-4.0113,-4.0113,-4.0737,-4.1258,-4.1547,-4.1867,-4.2418,-4.29,-4.2919,-4.2919,-4.2919,-4.2865,-4.2755,-4.2611,-4.2339,-4.0489,-4.0489,-4.0489,-4.0489,-4.0489,-4.0489,-4.0489,-4.0489,-4.0489,-4.0489,-4.0489,-4.0489,-4.0489,-4.0489,-4.0489,-4.0489,-4.0489,-4.0489,-4.0489,-4.0489,-4.0489,-4.0489,-4.0489,-4.0489,-4.0489,-4.0489,-4.0489,-4.0489,-4.0489,-4.0489,-4.0551,-4.072,-4.1355,-4.194,-4.254,-4.2725,-4.3294,-4.4068,-4.3149,-4.2762,-4.3348,-4.3495,-4.3902,-4.4395,-4.4598,-4.4598,-4.4598,-4.4598,-4.4598,-4.4598,-4.4598,-4.4598,-4.4598,-4.4598,-4.4598,-4.4598,-4.4598,-4.4598,-4.4598,-4.4598,-4.4598,-4.4598,-4.4598,-4.4598,-4.4598,-4.4598,-4.4598,-4.4598,-4.4598,-4.4598,-4.4598,-4.4598,-4.4598,-4.4598,-4.4598,-4.4598,-4.4598,-4.4598,-4.4598,-4.4598,-4.4598,-4.4181,-4.3589,-4.2794,-4.1999,-4.1271,-4.0663,-4.0367,-4.0113,-4.0113,-4.0113,-4.0113,-4.0113,-4.0113,-4.0113,-4.0113,-4.0113,-4.0113,-4.0113,-4.0113,-4.0113,-4.0146,-4.0377,-4.0832,-4.1185,-4.1739,-4.2398,-4.2768,-4.2881,-4.2919,-4.2919,-4.2919,-4.2901,-4.2737,-4.2574,-4.0489,-4.0489,-4.0489,-4.0489,-4.0489,-4.0489,-4.0489,-4.0489,-4.0489,-4.0489,-4.0489,-4.0489,-4.0489,-4.0489,-4.0489,-4.0489,-4.0489,-4.0489,-4.0489,-4.0489,-4.0489,-4.0489,-4.0489,-4.0489,-4.0489,-4.0489,-4.0489,-4.0489,-4.0489,-4.0551,-4.0643,-4.1201,-4.1771,-4.2294,-4.2617,-4.2971,-4.3187,-4.3298,-4.2899,-4.2732,-4.2965,-4.3317,-4.3839,-4.457,-4.4598,-4.4598,-4.4598,-4.4598,-4.4598,-4.4598,-4.4598,-4.4598,-4.4598,-4.4598,-4.4598,-4.4598,-4.4598,-4.4598,-4.4598,-4.4598,-4.4598,-4.4598,-4.4598,-4.4598,-4.4598,-4.4598,-4.4598,-4.4598,-4.4598,-4.4598,-4.4598,-4.4598,-4.4598,-4.4598,-4.4598,-4.4598,-4.4598,-4.4598,-4.4598,-4.4598,-4.4564,-4.4231,-4.3927,-4.3403,-4.2625,-4.1813,-4.1119,-4.0595,-4.0316,-4.0113,-4.0113,-4.0113,-4.0113,-4.0113,-4.0113,-4.0113,-4.0113,-4.0113,-4.0113,-4.0113,-4.0113,-4.0196,-4.0377,-4.0707,-4.1185,-4.176,-4.2418,-4.2729,-4.29,-4.2919,-4.2919,-4.2919,-4.2919,-4.2901,-4.2755,-4.0056,-4.0091,-4.037,-4.0489,-4.0489,-4.0489,-4.0489,-4.0489,-4.0489,-4.0489,-4.0489,-4.0489,-4.0489,-4.0489,-4.0489,-4.0489,-4.0489,-4.0489,-4.0489,-4.0489,-4.0489,-4.0489,-4.0489,-4.0489,-4.0489,-4.0505,-4.0489,-4.0489,-4.0489,-4.0566,-4.0843,-4.1601,-4.1894,-4.2371,-4.2648,-4.2694,-4.2663,-4.2037,-4.2249,-4.237,-4.2603,-4.2984,-4.3722,-4.431,-4.4598,-4.4598,-4.4598,-4.4598,-4.4598,-4.4598,-4.4598,-4.4598,-4.4598,-4.4598,-4.4598,-4.4598,-4.4598,-4.4598,-4.4598,-4.4598,-4.4598,-4.4598,-4.4598,-4.4598,-4.4598,-4.4598,-4.4598,-4.4598,-4.4598,-4.4598,-4.4598,-4.4598,-4.4598,-4.4598,-4.4598,-4.4598,-4.4598,-4.4598,-4.4598,-4.4598,-4.4598,-4.4598,-4.4265,-4.3978,-4.3318,-4.2405,-4.166,-4.0933,-4.0476,-4.013,-4.0113,-4.0113,-4.0113,-4.0113,-4.0113,-4.0113,-4.0113,-4.0113,-4.0113,-4.0113,-4.0113,-4.0138,-4.0246,-4.0659,-4.1116,-4.1525,-4.2015,-4.2478,-4.2919,-4.2919,-4.2919,-4.2919,-4.2919,-4.2919,-4.2919,-3.8929,-3.9002,-4.0021,-4.0455,-4.0455,-4.0489,-4.0489,-4.0489,-4.0489,-4.0489,-4.0489,-4.0489,-4.0489,-4.0489,-4.0489,-4.0489,-4.0489,-4.0489,-4.0489,-4.0489,-4.0489,-4.0489,-4.0489,-4.0489,-4.0505,-4.0505,-4.0612,-4.0628,-4.0582,-4.0797,-4.1109,-4.1524,-4.1771,-4.2109,-4.2186,-4.2048,-4.1709,-4.1313,-4.1542,-4.2088,-4.2366,-4.28,-4.335,-4.4338,-4.4598,-4.4598,-4.4598,-4.4598,-4.4598,-4.4598,-4.4598,-4.4598,-4.4598,-4.4598,-4.4598,-4.4598,-4.4598,-4.4598,-4.4598,-4.4598,-4.4598,-4.4598,-4.4598,-4.4598,-4.4598,-4.4598,-4.4598,-4.4598,-4.4598,-4.4598,-4.4598,-4.4598,-4.4598,-4.4598,-4.4598,-4.4598,-4.4598,-4.4598,-4.4598,-4.4598,-4.4598,-4.4598,-4.4598,-4.4265,-4.369,-4.2811,-4.1677,-4.0933,-4.0426,-4.0113,-4.0113,-4.0113,-4.0113,-4.0113,-4.0113,-4.0113,-4.0113,-4.0113,-4.0113,-4.0113,-4.0113,-4.0138,-4.0188,-4.0458,-4.0902,-4.1236,-4.17,-4.234,-4.2806,-4.2881,-4.2919,-4.2919,-4.2919,-4.2919,-4.2919,-3.8219,-3.8055,-3.876,-3.9406,-4.0001,-4.0001,-4.0211,-4.0455,-4.0489,-4.0489,-4.0489,-4.0489,-4.0489,-4.0489,-4.0489,-4.0489,-4.0489,-4.0489,-4.0489,-4.0489,-4.0489,-4.0489,-4.0489,-4.0489,-4.0505,-4.0612,-4.0893,-4.0843,-4.0566,-4.1074,-4.1463,-4.1694,-4.154,-4.1709,-4.1709,-4.1463,-4.1093,-4.1249,-4.1405,-4.1845,-4.2429,-4.2968,-4.3588,-4.4468,-4.4598,-4.4598,-4.4598,-4.4598,-4.4598,-4.4598,-4.4598,-4.4598,-4.4598,-4.4598,-4.4598,-4.4598,-4.4598,-4.4598,-4.4598,-4.4598,-4.4598,-4.4598,-4.4598,-4.4598,-4.4598,-4.4598,-4.4598,-4.4598,-4.4598,-4.4598,-4.4598,-4.4598,-4.4598,-4.4598,-4.4598,-4.4598,-4.4598,-4.4598,-4.4598,-4.4598,-4.4598,-4.4598,-4.4598,-4.4564,-4.3893,-4.3149,-4.1999,-4.0967,-4.0443,-4.0113,-4.0113,-4.0113,-4.0113,-4.0113,-4.0113,-4.0113,-4.0113,-4.0113,-4.0113,-4.0113,-4.0113,-4.0113,-4.0171,-4.0434,-4.0761,-4.1276,-4.1785,-4.24,-4.2731,-4.2863,-4.2919,-4.2919,-4.2919,-4.2919,-4.2919,-3.6741,-3.6503,-3.6978,-3.7881,-3.9009,-3.9292,-3.96,-3.997,-4.0246,-4.0401,-4.0436,-4.047,-4.0489,-4.0489,-4.0489,-4.0489,-4.0489,-4.0489,-4.0489,-4.0489,-4.0489,-4.0489,-4.0489,-4.0551,-4.0643,-4.0812,-4.0935,-4.092,-4.0935,-4.1663,-4.1509,-4.1278,-4.1309,-4.1355,-4.1509,-4.1186,-4.0997,-4.1187,-4.1513,-4.1685,-4.2254,-4.2583,-4.3106,-4.3827,-4.4047,-4.4207,-4.4281,-4.4412,-4.4598,-4.4598,-4.4598,-4.4598,-4.4598,-4.4598,-4.4598,-4.4598,-4.4598,-4.4598,-4.4598,-4.4598,-4.4598,-4.4598,-4.4598,-4.4598,-4.4598,-4.4598,-4.4598,-4.4598,-4.4598,-4.4598,-4.4598,-4.4598,-4.4598,-4.4598,-4.4598,-4.4598,-4.4598,-4.4598,-4.4598,-4.4598,-4.4598,-4.4598,-4.4598,-4.4513,-4.3775,-4.3014,-4.1931,-4.0967,-4.035,-4.0113,-4.0113,-4.0113,-4.0113,-4.0113,-4.0113,-4.0113,-4.0113,-4.0113,-4.0113,-4.0113,-4.0113,-4.0113,-4.0121,-4.0279,-4.0689,-4.1298,-4.1807,-4.234,-4.2653,-4.29,-4.29,-4.2844,-4.2919,-4.2919,-4.2919,-3.4142,-3.4156,-3.4753,-3.5989,-3.7553,-3.8391,-3.876,-3.903,-3.9717,-4.0137,-4.0296,-4.0436,-4.0489,-4.0489,-4.0489,-4.0566,-4.0612,-4.0551,-4.0551,-4.0628,-4.0551,-4.052,-4.0597,-4.0689,-4.097,-4.1278,-4.1324,-4.1324,-4.1355,-4.1366,-4.0981,-4.0689,-4.0751,-4.1016,-4.154,-4.1601,-4.1247,-4.0751,-4.1333,-4.157,-4.1667,-4.1819,-4.2237,-4.2831,-4.3453,-4.3735,-4.3839,-4.4338,-4.4553,-4.4598,-4.4598,-4.4598,-4.4598,-4.4598,-4.4598,-4.4598,-4.4598,-4.4598,-4.4598,-4.4598,-4.4598,-4.4598,-4.4598,-4.4598,-4.4598,-4.4598,-4.4598,-4.4598,-4.4598,-4.4598,-4.4598,-4.4598,-4.4598,-4.4598,-4.4598,-4.4598,-4.4598,-4.4598,-4.4598,-4.4598,-4.4598,-4.4598,-4.4598,-4.4412,-4.3667,-4.2777,-4.1779,-4.0967,-4.0333,-4.0113,-4.0113,-4.0113,-4.0113,-4.0113,-4.0113,-4.0113,-4.0113,-4.0113,-4.0113,-4.0113,-4.0113,-4.0113,-4.0121,-4.0179,-4.0611,-4.1185,-4.17,-4.22,-4.234,-4.2478,-4.2731,-4.2769,-4.2844,-4.2919,-4.2919,-3.3392,-3.3184,-3.3631,-3.4582,-3.5856,-3.7429,-3.8331,-3.8811,-3.9574,-4.0046,-4.0137,-4.0277,-4.0366,-4.0385,-4.0562,-4.0766,-4.1028,-4.0612,-4.0612,-4.1124,-4.0766,-4.0889,-4.1032,-4.1155,-4.134,-4.1617,-4.1617,-4.1151,-4.0832,-4.1074,-4.1043,-4.0766,-4.0674,-4.0905,-4.1555,-4.1894,-4.1925,-4.1401,-4.1487,-4.1596,-4.1519,-4.1525,-4.1771,-4.241,-4.3045,-4.3347,-4.3406,-4.4001,-4.4395,-4.4468,-4.4497,-4.4542,-4.457,-4.4598,-4.4598,-4.4598,-4.4598,-4.4598,-4.4598,-4.4598,-4.4598,-4.4598,-4.4598,-4.4598,-4.4598,-4.4598,-4.4598,-4.4598,-4.4598,-4.4598,-4.4598,-4.4598,-4.4598,-4.4598,-4.4598,-4.4598,-4.4598,-4.4598,-4.4598,-4.4598,-4.4598,-4.4598,-4.4598,-4.4248,-4.3572,-4.2828,-4.188,-4.1018,-4.0333,-4.0163,-4.0113,-4.0113,-4.0113,-4.0113,-4.0113,-4.0113,-4.0113,-4.0113,-4.0113,-4.0113,-4.0113,-4.0113,-4.0096,-4.0146,-4.0587,-4.1071,-4.1437,-4.1743,-4.1828,-4.1994,-4.216,-4.24,-4.2536,-4.271,-4.2919,-3.2355,-3.2149,-3.2618,-3.3324,-3.4426,-3.6362,-3.78,-3.8914,-3.9836,-4.0238,-4.0355,-4.0649,-4.072,-4.0746,-4.0959,-4.0819,-4.1208,-4.1074,-4.0674,-4.1263,-4.1058,-4.0981,-4.1186,-4.1509,-4.1524,-4.1663,-4.1432,-4.1078,-4.0986,-4.1294,-4.1028,-4.0689,-4.0951,-4.1351,-4.1832,-4.2078,-4.2217,-4.1786,-4.178,-4.167,-4.1333,-4.1142,-4.1309,-4.1804,-4.23,-4.2738,-4.2984,-4.341,-4.3989,-4.4133,-4.4236,-4.4367,-4.4468,-4.4598,-4.4598,-4.4598,-4.4598,-4.4598,-4.4598,-4.4598,-4.4598,-4.4598,-4.4598,-4.4598,-4.4598,-4.4598,-4.4598,-4.4598,-4.4598,-4.4598,-4.4598,-4.4598,-4.4598,-4.4598,-4.4598,-4.4598,-4.4598,-4.4598,-4.4598,-4.4598,-4.4598,-4.4598,-4.4513,-4.4012,-4.3521,-4.2777,-4.1999,-4.1179,-4.0367,-4.0214,-4.0113,-4.0113,-4.0113,-4.0113,-4.0113,-4.0113,-4.0113,-4.0113,-4.0113,-4.0113,-4.0113,-4.0113,-4.0113,-4.0146,-4.0556,-4.0902,-4.1071,-4.1253,-4.1321,-4.1388,-4.1477,-4.176,-4.2095,-4.2418,-4.2729,-3.1037,-3.1065,-3.1549,-3.2283,-3.3315,-3.5423,-3.7459,-3.9418,-4.0257,-4.0586,-4.0713,-4.1358,-4.1355,-4.1231,-4.1855,-4.1652,-4.1015,-4.1367,-4.1188,-4.105,-4.1306,-4.1157,-4.1142,-4.1372,-4.1648,-4.1208,-4.0839,-4.0896,-4.1274,-4.0716,-4.0332,-4.0674,-4.1469,-4.1797,-4.1981,-4.234,-4.2371,-4.2125,-4.2094,-4.1795,-4.1225,-4.0724,-4.0765,-4.1091,-4.1459,-4.1771,-4.2062,-4.2443,-4.2984,-4.3303,-4.3558,-4.3972,-4.431,-4.4587,-4.4598,-4.4598,-4.4598,-4.4598,-4.4598,-4.4598,-4.4598,-4.4598,-4.4598,-4.4598,-4.4598,-4.4598,-4.4598,-4.4598,-4.4598,-4.4598,-4.4598,-4.4598,-4.4598,-4.4598,-4.4598,-4.4598,-4.4598,-4.4598,-4.4598,-4.4598,-4.4598,-4.4564,-4.4451,-4.4045,-4.3335,-4.2608,-4.1847,-4.1068,-4.04,-4.0197,-4.0113,-4.0113,-4.0113,-4.0113,-4.0113,-4.0113,-4.0113,-4.0113,-4.0113,-4.0113,-4.0113,-4.0113,-4.0113,-4.0221,-4.0507,-4.0707,-4.0761,-4.0761,-4.0778,-4.0849,-4.0902,-4.1343,-4.1739,-4.2136,-4.2438,-3.1024,-3.105,-3.1169,-3.1936,-3.3383,-3.5847,-3.7887,-3.9337,-3.9721,-3.9991,-4.0522,-4.0857,-4.1202,-4.1556,-4.1841,-4.2012,-4.2004,-4.1943,-4.1782,-4.1681,-4.1534,-4.1605,-4.1635,-4.1672,-4.1922,-4.1607,-4.1072,-4.0373,-4.0635,-4.0063,-4.0128,-4.0659,-4.1495,-4.1868,-4.2396,-4.2956,-4.2756,-4.2556,-4.2617,-4.1971,-4.1294,-4.0735,-4.0612,-4.0681,-4.1091,-4.1376,-4.1558,-4.2013,-4.2504,-4.2738,-4.3243,-4.3676,-4.3735,-4.4265,-4.4598,-4.4598,-4.4598,-4.4598,-4.4598,-4.4598,-4.4598,-4.4598,-4.4598,-4.4598,-4.4598,-4.4598,-4.4598,-4.4598,-4.4598,-4.4598,-4.4598,-4.4598,-4.4598,-4.4598,-4.4598,-4.4598,-4.4598,-4.4598,-4.4598,-4.4598,-4.4598,-4.4462,-4.435,-4.3775,-4.3047,-4.2371,-4.1644,-4.0882,-4.0392,-4.0197,-4.0113,-4.0113,-4.0113,-4.0113,-4.0113,-4.0113,-4.0113,-4.0113,-4.0113,-4.0113,-4.0113,-4.0113,-4.0113,-4.0196,-4.0353,-4.0377,-4.0336,-4.036,-4.0458,-4.0353,-4.041,-4.0926,-4.137,-4.1782,-4.2279,-3.1024,-3.1024,-3.1024,-3.1814,-3.3416,-3.5847,-3.7579,-3.861,-3.9414,-4.0068,-4.0449,-4.0845,-4.1047,-4.1189,-4.1564,-4.1706,-4.1434,-4.1468,-4.1322,-4.1034,-4.1507,-4.121,-4.1301,-4.1422,-4.1197,-4.0954,-4.0375,-3.9588,-3.994,-4.027,-4.0366,-4.0477,-4.124,-4.2001,-4.2673,-4.3371,-4.3741,-4.334,-4.2894,-4.2279,-4.1617,-4.094,-4.0612,-4.0589,-4.1021,-4.1122,-4.1174,-4.1656,-4.1804,-4.2062,-4.2614,-4.3015,-4.3363,-4.4162,-4.457,-4.4598,-4.4598,-4.4598,-4.4598,-4.4598,-4.4598,-4.4581,-4.453,-4.4598,-4.4598,-4.4598,-4.4598,-4.4598,-4.4598,-4.4598,-4.4598,-4.4598,-4.4598,-4.4598,-4.4598,-4.4598,-4.4598,-4.4598,-4.4598,-4.4598,-4.4513,-4.435,-4.3995,-4.3386,-4.2692,-4.1863,-4.1204,-4.0637,-4.0282,-4.0163,-4.0113,-4.0113,-4.0113,-4.0113,-4.0113,-4.0113,-4.0113,-4.0113,-4.0113,-4.0113,-4.0113,-4.0113,-4.0113,-4.0113,-4.0121,-4.0146,-4.0179,-4.0171,-4.0171,-4.0113,-4.0146,-4.0563,-4.1071,-4.1481,-4.2035,-3.1024,-3.1024,-3.1024,-3.1827,-3.3274,-3.5244,-3.6505,-3.7427,-3.9225,-4.0278,-4.0449,-4.0995,-4.0988,-4.0965,-4.1385,-4.1113,-4.1014,-4.1042,-4.0928,-4.0142,-4.0979,-4.0928,-4.0444,-4.0455,-4.0273,-3.9232,-3.8717,-3.8981,-3.9332,-3.9767,-4.0187,-4.0368,-4.1648,-4.2358,-4.2594,-4.3774,-4.4173,-4.3959,-4.3199,-4.2452,-4.1786,-4.1109,-4.0582,-4.0578,-4.0662,-4.0697,-4.0616,-4.0693,-4.0768,-4.1209,-4.1706,-4.2237,-4.3273,-4.4001,-4.4338,-4.4479,-4.4429,-4.4299,-4.4198,-4.4124,-4.4124,-4.4209,-4.4395,-4.4158,-4.3988,-4.4462,-4.4581,-4.4598,-4.4598,-4.4598,-4.4598,-4.4598,-4.4598,-4.4598,-4.4598,-4.4598,-4.4598,-4.4547,-4.4462,-4.4395,-4.4147,-4.3944,-4.3318,-4.2692,-4.2168,-4.1339,-4.0747,-4.0265,-4.0163,-4.0113,-4.0113,-4.0113,-4.0113,-4.0113,-4.0113,-4.0113,-4.0113,-4.0113,-4.0113,-4.0113,-4.0113,-4.0113,-4.0113,-4.0113,-4.0113,-4.0113,-4.0121,-4.0113,-4.0113,-4.0113,-4.0171,-4.0336,-4.0737,-4.123,-4.1803,-3.1024,-3.1024,-3.1024,-3.1827,-3.3125,-3.4059,-3.5218,-3.6495,-3.802,-3.935,-4.0293,-4.0576,-4.0801,-4.1018,-4.116,-4.0958,-4.101,-4.0701,-4.0785,-4.0551,-4.0807,-4.0377,-3.9718,-3.973,-3.939,-3.8943,-3.8577,-3.8652,-3.9239,-3.9708,-4.0006,-4.0213,-4.1425,-4.211,-4.2419,-4.367,-4.4259,-4.4182,-4.3494,-4.2778,-4.2191,-4.1704,-4.1304,-4.1142,-4.106,-4.1034,-4.0911,-4.0655,-4.0636,-4.0783,-4.1276,-4.2173,-4.3393,-4.3676,-4.4076,-4.4384,-4.4045,-4.3859,-4.3589,-4.3352,-4.3149,-4.2997,-4.2963,-4.2878,-4.3176,-4.4073,-4.453,-4.4513,-4.4496,-4.4479,-4.4462,-4.4462,-4.4445,-4.4462,-4.4462,-4.4462,-4.4462,-4.4361,-4.4225,-4.3995,-4.3758,-4.325,-4.2608,-4.2083,-4.1542,-4.1018,-4.0519,-4.0146,-4.013,-4.0113,-4.0113,-4.0113,-4.0113,-4.0113,-4.0113,-4.0113,-4.0113,-4.0113,-4.0113,-4.0113,-4.0113,-4.0113,-4.0113,-4.0113,-4.0113,-4.0113,-4.0113,-4.0113,-4.0113,-4.0113,-4.0146,-4.0279,-4.0587,-4.1047,-4.163,-3.1024,-3.1024,-3.1024,-3.1457,-3.2252,-3.3114,-3.4152,-3.5238,-3.6642,-3.8092,-3.9409,-3.9794,-4.0187,-4.0516,-4.0516,-4.0591,-4.0576,-4.0457,-4.0179,-4.0113,-4.0008,-3.9805,-3.9409,-3.9065,-3.8867,-3.8542,-3.8492,-3.8672,-3.9168,-3.9636,-3.9894,-4.0338,-4.1299,-4.2024,-4.2455,-4.3526,-4.4058,-4.3981,-4.3373,-4.2862,-4.2352,-4.1786,-4.1194,-4.1036,-4.0933,-4.0999,-4.0861,-4.0554,-4.0547,-4.0851,-4.1459,-4.2363,-4.3363,-4.3914,-4.4006,-4.3917,-4.3656,-4.3257,-4.2912,-4.2523,-4.2202,-4.2151,-4.2252,-4.2439,-4.2506,-4.3278,-4.3311,-4.3284,-4.3328,-4.3311,-4.3295,-4.3295,-4.3295,-4.3295,-4.3295,-4.3295,-4.3295,-4.3261,-4.3149,-4.3064,-4.2828,-4.2557,-4.2016,-4.1694,-4.1153,-4.0629,-4.0163,-4.0113,-4.0113,-4.0113,-4.0113,-4.0113,-4.0113,-4.0113,-4.0113,-4.0113,-4.0113,-4.0113,-4.0113,-4.0113,-4.0113,-4.0113,-4.0113,-4.0113,-4.0113,-4.0113,-4.0113,-4.0113,-4.0113,-4.0113,-4.0121,-4.0171,-4.0531,-4.0808,-4.1162,-3.1024,-3.1024,-3.1024,-3.1024,-3.1178,-3.2369,-3.3195,-3.3835,-3.52,-3.6642,-3.7939,-3.8752,-3.9124,-3.9373,-3.9388,-3.9388,-3.9478,-3.9753,-3.9523,-3.917,-3.8796,-3.8646,-3.8586,-3.8467,-3.8277,-3.8202,-3.8153,-3.8287,-3.8597,-3.9193,-3.9941,-4.0691,-4.145,-4.2198,-4.2819,-4.3388,-4.3637,-4.328,-4.2819,-4.2402,-4.1915,-4.1507,-4.1041,-4.0705,-4.0454,-4.0454,-4.0434,-4.0412,-4.0466,-4.0768,-4.1393,-4.2269,-4.3015,-4.3601,-4.3692,-4.3541,-4.3284,-4.2794,-4.2286,-4.188,-4.183,-4.188,-4.2033,-4.2033,-4.2016,-4.2016,-4.2049,-4.2117,-4.2161,-4.2381,-4.2381,-4.2381,-4.2381,-4.2381,-4.2381,-4.2381,-4.2381,-4.2364,-4.2286,-4.2236,-4.1999,-4.1779,-4.1441,-4.1119,-4.0781,-4.0282,-4.0113,-4.0113,-4.0113,-4.0113,-4.0113,-4.0113,-4.0113,-4.0113,-4.0113,-4.0113,-4.0113,-4.0113,-4.0113,-4.0113,-4.0113,-4.0113,-4.0113,-4.0113,-4.0113,-4.0113,-4.0113,-4.0113,-4.0113,-4.0113,-4.0121,-4.0146,-4.0254,-4.0507,-4.0587,-3.1024,-3.1024,-3.1024,-3.1024,-3.1102,-3.1765,-3.2132,-3.2445,-3.3745,-3.5121,-3.6481,-3.7411,-3.82,-3.9373,-3.9388,-3.9343,-3.9209,-3.9254,-3.896,-3.8571,-3.8242,-3.7778,-3.7569,-3.7823,-3.7644,-3.7659,-3.7764,-3.7913,-3.8167,-3.8966,-3.976,-4.0411,-4.1078,-4.1565,-4.1814,-4.2333,-4.268,-4.2394,-4.2146,-4.173,-4.1435,-4.1206,-4.1304,-4.1022,-4.08,-4.0749,-4.0643,-4.0416,-4.0353,-4.0455,-4.0904,-4.1804,-4.2565,-4.3141,-4.3198,-4.313,-4.2844,-4.2134,-4.1593,-4.1111,-4.0993,-4.0857,-4.0891,-4.0823,-4.0807,-4.079,-4.0874,-4.101,-4.1247,-4.1931,-4.2049,-4.2049,-4.2049,-4.2049,-4.2049,-4.2049,-4.2049,-4.1965,-4.1897,-4.166,-4.1356,-4.1018,-4.062,-4.0443,-4.0451,-4.0113,-4.0113,-4.0113,-4.0113,-4.0113,-4.0113,-4.0113,-4.0113,-4.0113,-4.0113,-4.0113,-4.0113,-4.0113,-4.0113,-4.0113,-4.0113,-4.0113,-4.0113,-4.0113,-4.0113,-4.0113,-4.0113,-4.0113,-4.0113,-4.0113,-4.0113,-4.0121,-4.0171,-4.0254,-4.041]}]]